[[{"header":{"parameterUnit":"m.s-1","parameterCategory":1,"la1":30.6,"la2":29.2853,"lo1":-89.7004,"lo2":-87.6739,"dy":0.0162,"dx":0.0183,"nx":112,"ny":82,"refTime":"2024-09-14T12:00:00:Z","depth":0,"parameterNumber":2,"parameterNumberName":"U-component_of_WINDS"},"data":[0.0,0.0,0.0,0.0,0.0,0.0,0.0,0.0,0.0,0.0,0.0,0.0,0.0,0.0,0.0,0.0,0.0,0.0,0.0,0.0,0.0,0.0,0.0,0.0,0.0,0.0,0.0,0.0,0.0,0.0,0.0,0.0,0.0,0.0,0.0,0.0,0.0,0.0,0.0,0.0,0.0,0.0,0.0,0.0,0.0,0.0,0.0,0.0,0.0,0.0,0.0,0.0,0.0,0.0,0.0,0.0,0.0,0.0,0.0,0.0,0.0,0.0,0.0,0.0,0.0,0.0,0.0,0.0,0.0,0.0,0.0,0.0,0.0,0.0,0.0,0.0,0.0,0.0,0.0,0.0,0.0,0.0,0.0,0.0,0.0,0.0,0.0,0.0,0.0,0.0,-1.7185,-1.9889,-2.0516,-2.1029,-2.1727,-2.1548,-2.1251,-2.0845,0.0,0.0,0.0,0.0,0.0,0.0,0.0,0.0,0.0,0.0,0.0,0.0,0.0,0.0,0.0,0.0,0.0,0.0,0.0,0.0,0.0,0.0,0.0,0.0,0.0,0.0,0.0,0.0,0.0,0.0,0.0,0.0,0.0,0.0,0.0,0.0,0.0,0.0,0.0,0.0,0.0,0.0,0.0,0.0,0.0,0.0,0.0,0.0,0.0,0.0,0.0,0.0,0.0,0.0,0.0,0.0,0.0,0.0,0.0,0.0,0.0,0.0,0.0,0.0,0.0,0.0,0.0,0.0,0.0,0.0,0.0,0.0,0.0,0.0,0.0,0.0,0.0,0.0,0.0,0.0,0.0,0.0,0.0,0.0,0.0,0.0,0.0,0.0,0.0,0.0,0.0,0.0,0.0,0.0,0.0,0.0,0.0,0.0,0.0,0.0,0.0,0.0,0.0,0.0,-1.803,-1.9838,-1.9755,-1.9757,-2.0286,-2.0476,-2.0304,-1.9626,0.0,0.0,0.0,0.0,0.0,0.0,0.0,0.0,0.0,0.0,0.0,0.0,0.0,0.0,0.0,0.0,0.0,0.0,0.0,0.0,0.0,0.0,0.0,0.0,0.0,0.0,0.0,0.0,0.0,0.0,0.0,0.0,0.0,0.0,0.0,0.0,0.0,0.0,0.0,0.0,0.0,0.0,0.0,0.0,0.0,0.0,0.0,0.0,0.0,0.0,0.0,0.0,0.0,0.0,0.0,0.0,0.0,0.0,0.0,0.0,0.0,0.0,0.0,0.0,0.0,0.0,0.0,0.0,0.0,0.0,0.0,0.0,0.0,0.0,0.0,0.0,0.0,0.0,0.0,0.0,0.0,0.0,0.0,0.0,0.0,0.0,0.0,0.0,0.0,0.0,0.0,0.0,0.0,0.0,0.0,0.0,0.0,0.0,0.0,0.0,0.0,0.0,0.0,-1.7358,-1.7826,-1.8701,-1.862,-1.8659,-1.9094,-1.958,-1.9555,-1.8863,-1.7925,0.0,0.0,0.0,0.0,0.0,0.0,0.0,0.0,0.0,0.0,0.0,0.0,0.0,0.0,0.0,0.0,0.0,0.0,0.0,0.0,0.0,0.0,0.0,0.0,0.0,0.0,0.0,0.0,0.0,0.0,0.0,0.0,0.0,0.0,0.0,0.0,0.0,0.0,0.0,0.0,0.0,0.0,0.0,0.0,0.0,0.0,0.0,0.0,0.0,0.0,0.0,0.0,0.0,0.0,0.0,0.0,0.0,0.0,0.0,0.0,0.0,0.0,0.0,0.0,0.0,0.0,0.0,0.0,0.0,0.0,0.0,0.0,0.0,0.0,0.0,0.0,0.0,0.0,0.0,0.0,0.0,0.0,0.0,0.0,0.0,0.0,0.0,0.0,0.0,0.0,0.0,0.0,0.0,0.0,0.0,0.0,0.0,0.0,0.0,0.0,0.0,0.0,-1.7218,-1.7452,-1.7659,-1.7612,-1.7688,-1.8011,-1.8508,-1.8582,-1.8067,-1.6969,0.0,0.0,0.0,0.0,0.0,0.0,0.0,0.0,0.0,0.0,0.0,0.0,0.0,0.0,0.0,0.0,0.0,0.0,0.0,0.0,0.0,0.0,0.0,0.0,0.0,0.0,0.0,0.0,0.0,0.0,0.0,0.0,0.0,0.0,0.0,0.0,0.0,0.0,0.0,0.0,0.0,0.0,0.0,0.0,0.0,0.0,0.0,0.0,0.0,0.0,0.0,0.0,0.0,0.0,0.0,0.0,0.0,0.0,0.0,0.0,0.0,0.0,0.0,0.0,0.0,0.0,0.0,0.0,0.0,0.0,0.0,0.0,0.0,0.0,0.0,0.0,0.0,0.0,0.0,0.0,0.0,0.0,0.0,0.0,0.0,0.0,0.0,0.0,0.0,0.0,0.0,0.0,0.0,0.0,0.0,0.0,0.0,0.0,0.0,0.0,0.0,0.0,-1.6927,-1.7317,-1.7336,-1.706,-1.6882,-1.6913,-1.7022,-1.703,-1.6921,-1.5662,0.0,0.0,0.0,0.0,0.0,0.0,0.0,0.0,0.0,0.0,0.0,0.0,0.0,0.0,0.0,0.0,0.0,0.0,0.0,0.0,0.0,0.0,0.0,0.0,0.0,0.0,0.0,0.0,0.0,0.0,0.0,0.0,0.0,0.0,0.0,0.0,0.0,0.0,0.0,0.0,0.0,0.0,0.0,0.0,0.0,0.0,0.0,0.0,0.0,0.0,0.0,0.0,0.0,0.0,0.0,0.0,0.0,0.0,0.0,0.0,0.0,0.0,0.0,0.0,0.0,0.0,0.0,0.0,0.0,0.0,0.0,0.0,0.0,0.0,0.0,0.0,0.0,0.0,0.0,0.0,0.0,0.0,0.0,0.0,0.0,0.0,0.0,0.0,0.0,0.0,0.0,0.0,0.0,0.0,0.0,0.0,0.0,0.0,0.0,0.0,0.0,0.0,-1.6839,-1.7244,-1.7576,-1.7511,-1.7264,-1.6849,-1.7215,-1.7008,-1.5946,0.0,0.0,0.0,0.0,0.0,0.0,0.0,0.0,0.0,0.0,0.0,0.0,0.0,0.0,0.0,0.0,0.0,0.0,0.0,0.0,0.0,0.0,0.0,0.0,0.0,0.0,0.0,0.0,0.0,0.0,0.0,0.0,0.0,0.0,0.0,0.0,0.0,0.0,0.0,0.0,0.0,0.0,0.0,0.0,0.0,0.0,0.0,0.0,0.0,0.0,0.0,0.0,0.0,0.0,0.0,0.0,0.0,0.0,0.0,0.0,0.0,0.0,0.0,0.0,0.0,0.0,0.0,0.0,0.0,0.0,0.0,0.0,0.0,0.0,0.0,0.0,0.0,0.0,0.0,0.0,0.0,0.0,0.0,0.0,0.0,0.0,0.0,0.0,0.0,0.0,0.0,0.0,0.0,0.0,0.0,0.0,0.0,0.0,0.0,0.0,0.0,0.0,-1.6346,-1.672,-1.7084,-1.7452,-1.7304,-1.6977,-1.6528,-1.6709,-1.6351,-1.5219,0.0,0.0,0.0,0.0,0.0,0.0,0.0,0.0,0.0,0.0,0.0,0.0,0.0,0.0,0.0,0.0,0.0,0.0,0.0,0.0,0.0,0.0,0.0,0.0,0.0,0.0,0.0,0.0,0.0,0.0,0.0,0.0,0.0,0.0,0.0,0.0,0.0,0.0,0.0,0.0,0.0,0.0,0.0,0.0,0.0,0.0,0.0,0.0,0.0,0.0,0.0,0.0,0.0,0.0,0.0,0.0,0.0,0.0,0.0,0.0,0.0,0.0,0.0,0.0,0.0,0.0,0.0,0.0,0.0,0.0,0.0,0.0,0.0,0.0,0.0,0.0,0.0,0.0,0.0,0.0,0.0,0.0,0.0,0.0,0.0,0.0,0.0,0.0,0.0,0.0,0.0,0.0,0.0,0.0,0.0,0.0,0.0,0.0,0.0,0.0,0.0,0.0,-1.6217,-1.6553,-1.6815,-1.6789,-1.6219,-1.5799,-1.5799,-1.5206,-1.4797,0.0,0.0,0.0,0.0,0.0,0.0,0.0,0.0,0.0,0.0,0.0,0.0,0.0,0.0,0.0,0.0,0.0,0.0,0.0,0.0,0.0,0.0,0.0,0.0,0.0,0.0,0.0,0.0,0.0,0.0,0.0,0.0,0.0,0.0,0.0,0.0,0.0,0.0,0.0,0.0,0.0,0.0,0.0,0.0,0.0,0.0,0.0,0.0,0.0,0.0,0.0,0.0,0.0,0.0,0.0,0.0,0.0,0.0,0.0,0.0,0.0,0.0,0.0,0.0,0.0,0.0,0.0,0.0,0.0,0.0,0.0,0.0,0.0,0.0,0.0,0.0,0.0,0.0,0.0,0.0,0.0,0.0,0.0,0.0,0.0,0.0,0.0,0.0,0.0,0.0,0.0,0.0,0.0,0.0,0.0,0.0,0.0,0.0,0.0,0.0,0.0,0.0,0.0,-1.5958,-1.6639,-1.7052,-1.6815,-1.6607,-1.6402,-1.6163,-1.5979,-1.5366,-1.418,0.0,0.0,0.0,0.0,0.0,0.0,0.0,0.0,0.0,0.0,0.0,0.0,0.0,0.0,0.0,0.0,0.0,0.0,0.0,0.0,0.0,0.0,0.0,0.0,0.0,0.0,0.0,0.0,0.0,0.0,0.0,0.0,0.0,0.0,0.0,0.0,0.0,0.0,0.0,0.0,0.0,0.0,0.0,0.0,0.0,0.0,0.0,0.0,0.0,0.0,0.0,0.0,0.0,0.0,0.0,0.0,0.0,0.0,0.0,0.0,0.0,0.0,0.0,0.0,0.0,0.0,0.0,0.0,0.0,0.0,0.0,0.0,0.0,0.0,0.0,0.0,0.0,0.0,0.0,0.0,0.0,0.0,0.0,0.0,0.0,0.0,0.0,0.0,0.0,0.0,0.0,0.0,0.0,0.0,0.0,0.0,0.0,0.0,0.0,0.0,0.0,0.0,-1.5667,-1.6389,-1.6817,-1.6633,-1.6482,-1.632,-1.6116,-1.6088,-1.5555,-1.4266,0.0,0.0,0.0,0.0,0.0,0.0,0.0,0.0,0.0,0.0,0.0,0.0,0.0,0.0,0.0,0.0,0.0,0.0,0.0,0.0,0.0,0.0,0.0,0.0,0.0,0.0,0.0,0.0,0.0,0.0,0.0,0.0,0.0,0.0,0.0,0.0,0.0,0.0,0.0,0.0,0.0,0.0,0.0,0.0,0.0,0.0,0.0,0.0,0.0,0.0,0.0,0.0,0.0,0.0,0.0,0.0,0.0,0.0,0.0,0.0,0.0,0.0,0.0,0.0,0.0,0.0,0.0,0.0,0.0,0.0,0.0,0.0,0.0,0.0,0.0,0.0,0.0,0.0,0.0,0.0,0.0,0.0,0.0,0.0,0.0,0.0,0.0,0.0,0.0,0.0,0.0,0.0,0.0,0.0,0.0,0.0,0.0,0.0,0.0,0.0,0.0,0.0,-1.5491,-1.5959,-1.6301,-1.6274,-1.5983,-1.5799,-1.5799,-1.5799,-1.5514,-1.4827,0.0,0.0,0.0,0.0,0.0,0.0,0.0,0.0,0.0,0.0,0.0,0.0,0.0,0.0,0.0,0.0,0.0,0.0,0.0,0.0,0.0,0.0,0.0,0.0,0.0,0.0,0.0,0.0,0.0,0.0,0.0,0.0,0.0,0.0,0.0,0.0,0.0,0.0,0.0,0.0,0.0,0.0,0.0,0.0,0.0,0.0,0.0,0.0,0.0,0.0,0.0,0.0,0.0,0.0,0.0,0.0,0.0,0.0,0.0,0.0,-2.3598,-2.2623,0.0,0.0,0.0,0.0,0.0,0.0,0.0,0.0,0.0,0.0,0.0,0.0,0.0,0.0,0.0,0.0,0.0,0.0,0.0,0.0,0.0,0.0,0.0,0.0,0.0,0.0,0.0,0.0,0.0,0.0,0.0,0.0,0.0,0.0,0.0,0.0,0.0,0.0,0.0,0.0,-1.5948,-1.6122,-1.6191,-1.5926,-1.5848,-1.5799,-1.5799,-1.5799,-1.5514,-1.4827,-1.4663,0.0,0.0,0.0,0.0,0.0,0.0,0.0,0.0,0.0,0.0,0.0,0.0,0.0,0.0,0.0,0.0,0.0,0.0,0.0,0.0,0.0,0.0,0.0,0.0,0.0,0.0,0.0,0.0,0.0,0.0,0.0,0.0,0.0,0.0,0.0,0.0,0.0,0.0,0.0,0.0,0.0,0.0,0.0,0.0,0.0,0.0,0.0,0.0,0.0,0.0,0.0,0.0,0.0,0.0,0.0,0.0,0.0,0.0,0.0,-2.5632,-2.4874,0.0,0.0,0.0,0.0,0.0,0.0,0.0,0.0,0.0,0.0,0.0,0.0,0.0,0.0,0.0,0.0,0.0,0.0,0.0,0.0,0.0,0.0,0.0,0.0,0.0,0.0,0.0,0.0,0.0,0.0,0.0,0.0,0.0,0.0,0.0,0.0,0.0,0.0,0.0,0.0,-1.6104,-1.6056,-1.5983,-1.5827,-1.5799,-1.5799,-1.5799,-1.5799,-1.5656,-1.5311,-1.4989,0.0,0.0,0.0,0.0,0.0,0.0,0.0,0.0,0.0,0.0,0.0,0.0,0.0,0.0,0.0,0.0,0.0,0.0,0.0,0.0,0.0,0.0,0.0,0.0,0.0,0.0,0.0,0.0,0.0,0.0,0.0,0.0,0.0,0.0,0.0,0.0,0.0,0.0,0.0,0.0,0.0,0.0,0.0,0.0,0.0,0.0,0.0,0.0,0.0,0.0,0.0,0.0,0.0,-2.8309,-2.872,-2.872,-2.872,-2.8686,-2.855,-2.7092,-2.667,-2.6928,-2.5667,0.0,0.0,0.0,0.0,0.0,0.0,0.0,0.0,0.0,0.0,0.0,0.0,0.0,0.0,0.0,0.0,0.0,0.0,0.0,0.0,0.0,0.0,0.0,0.0,-2.774,-2.7057,-2.5862,0.0,0.0,0.0,0.0,0.0,0.0,0.0,0.0,0.0,0.0,0.0,-1.627,-1.603,-1.5848,-1.5799,-1.5799,-1.5799,-1.5799,-1.5799,-1.5799,-1.5799,-1.5366,-1.5154,0.0,0.0,0.0,0.0,0.0,0.0,0.0,0.0,0.0,0.0,0.0,0.0,0.0,0.0,0.0,0.0,0.0,0.0,0.0,0.0,0.0,0.0,0.0,0.0,0.0,0.0,0.0,0.0,0.0,0.0,0.0,0.0,-2.1621,-2.2734,0.0,0.0,0.0,0.0,0.0,0.0,0.0,0.0,0.0,0.0,0.0,0.0,0.0,-2.7949,-2.7939,-2.8758,-2.9167,-2.9177,-2.9989,-3.0379,-3.0379,-3.0379,-3.0377,-3.0349,-3.0001,0.0,-2.7958,-2.8376,0.0,0.0,0.0,0.0,0.0,0.0,0.0,0.0,0.0,0.0,0.0,0.0,0.0,0.0,0.0,0.0,0.0,0.0,0.0,0.0,0.0,0.0,-2.9522,-2.9655,-2.9516,-2.9238,0.0,-2.665,-2.4708,-2.4747,-2.3526,-2.2277,0.0,0.0,0.0,0.0,0.0,0.0,-1.6798,-1.6438,-1.6116,-1.5827,-1.5799,-1.5799,-1.5799,-1.5799,-1.5799,-1.5799,-1.6226,-1.66,-1.6966,-1.6849,0.0,0.0,0.0,0.0,0.0,0.0,0.0,0.0,0.0,0.0,0.0,0.0,0.0,0.0,0.0,0.0,0.0,0.0,0.0,0.0,0.0,0.0,0.0,0.0,0.0,0.0,0.0,0.0,0.0,-2.0911,-2.3082,-2.4443,-2.5781,-2.62,0.0,0.0,0.0,0.0,0.0,0.0,0.0,0.0,0.0,-2.8956,-2.9491,-2.9725,-2.965,-3.0071,-3.0287,-3.0287,-3.0639,-3.0806,-3.0806,-3.0806,-3.0806,-3.0803,-3.0632,-3.016,-2.9485,-2.9282,-2.903,-2.8725,0.0,0.0,0.0,0.0,-2.8529,-2.8252,-2.8973,-2.8666,-2.7855,-2.7319,0.0,0.0,0.0,0.0,0.0,0.0,0.0,-2.8181,0.0,0.0,-2.949,-2.9904,-2.9845,-2.9688,-2.9589,-2.8407,-2.7223,-2.6852,-2.5707,-2.4329,-2.2975,-2.1825,0.0,0.0,0.0,-1.8364,-1.7979,-1.6971,-1.6246,-1.6088,-1.5898,-1.5799,-1.5799,-1.5799,-1.5799,-1.5799,-1.6353,-1.6765,-1.697,-1.7448,-1.7666,0.0,0.0,0.0,0.0,0.0,0.0,0.0,0.0,0.0,0.0,0.0,0.0,0.0,0.0,0.0,0.0,0.0,0.0,0.0,0.0,0.0,0.0,0.0,0.0,0.0,0.0,0.0,0.0,-2.292,-2.4703,-2.6462,-2.7821,-2.8095,0.0,0.0,0.0,0.0,0.0,0.0,-2.8633,-2.9463,-2.991,-2.9857,-3.0535,-3.0848,-3.0747,-3.0848,-3.0898,-3.0898,-3.0898,-3.0898,-3.0898,-3.0859,-3.0848,-3.0837,-3.0667,-3.0606,-3.0535,-2.9811,-2.9525,-2.9483,-2.8924,-2.8722,-2.8808,-2.9392,-2.923,-2.8863,-2.989,-2.9831,-2.9171,-2.8466,-2.8143,-2.7795,-2.6714,0.0,0.0,0.0,0.0,-2.8844,-2.937,-2.9397,-2.9418,-2.9964,-2.9933,-2.9763,-2.9704,-2.9589,-2.9258,-2.8564,-2.7456,-2.6032,-2.4161,-2.2949,0.0,-2.0507,-1.9687,-1.9102,-1.8731,-1.7602,-1.6697,-1.6344,-1.6088,-1.5945,-1.6031,-1.5896,-1.5873,-1.6009,-1.6443,-1.6786,-1.6958,-1.7953,-1.8485,-1.8446,0.0,0.0,0.0,0.0,0.0,0.0,0.0,0.0,0.0,0.0,0.0,0.0,0.0,0.0,0.0,0.0,0.0,0.0,0.0,0.0,0.0,0.0,0.0,0.0,0.0,0.0,0.0,0.0,0.0,-2.909,-2.9389,0.0,0.0,0.0,0.0,-2.8088,-2.8982,-2.9531,-2.9531,-3.0361,-3.083,-3.083,-3.0879,-3.0898,-3.0889,-3.0898,-3.0898,-3.0898,-3.0898,-3.0898,-3.0898,-3.0769,-3.0709,-3.0706,-3.0628,-3.0606,-3.0594,-3.0404,-3.0383,-3.0431,-3.0391,-3.0426,-3.0467,-3.0451,-3.041,-3.0383,-3.0388,-3.0359,-3.0321,-3.0273,-2.9735,-2.9117,-2.903,-2.9091,0.0,0.0,-2.9743,-3.0374,-3.0349,-3.0333,-3.0331,-3.0379,-3.0182,-2.993,-2.9738,-2.9696,-2.9625,-2.9378,-2.8222,-2.6835,-2.5509,0.0,-2.2613,-2.1077,-2.0551,-1.9858,-1.8568,-1.8359,-1.7781,-1.6445,-1.6293,-1.6368,-1.6637,-1.6129,-1.6032,-1.6629,-1.6689,-1.6995,-1.7615,-1.8751,-1.9291,-1.9146,-1.9951,0.0,0.0,0.0,0.0,0.0,0.0,0.0,0.0,0.0,0.0,0.0,0.0,0.0,0.0,0.0,0.0,0.0,0.0,0.0,0.0,0.0,0.0,0.0,0.0,0.0,0.0,0.0,0.0,-2.9226,-2.9903,0.0,-2.9546,-2.9794,-2.9726,-2.9138,-2.9931,-3.0439,-3.0439,-3.0732,-3.0898,-3.0898,-3.1435,-3.1475,-3.0908,-3.1465,-3.1465,-3.0898,-3.0898,-3.0898,-3.0898,-3.0848,-3.0826,-3.0816,-3.071,-3.066,-3.0665,-3.0571,-3.0535,-3.0561,-3.0561,-3.055,-3.0545,-3.0557,-3.0537,-3.0508,-3.0472,-3.0463,-3.0452,-3.0404,-3.0211,-2.9976,-2.9976,-2.9988,-2.9999,-2.9977,-3.0198,-3.0429,-3.0412,-3.0398,-3.0398,-3.0398,-2.9901,-2.9327,-2.9001,-2.8487,-2.7982,-2.7651,-2.7539,-2.7057,-2.564,-2.4563,-2.3371,-2.1848,-2.1368,-2.0931,-2.0287,-1.9566,-1.8915,-1.8405,-1.7934,-1.7784,-1.8134,-1.7464,-1.7053,-1.7133,-1.7279,-1.7375,-1.7448,-1.8406,-1.9157,-1.9657,-1.9735,-1.953,0.0,0.0,0.0,0.0,0.0,0.0,0.0,0.0,0.0,0.0,0.0,0.0,0.0,0.0,0.0,0.0,0.0,0.0,0.0,0.0,0.0,0.0,0.0,0.0,0.0,-2.7468,-2.8699,-2.9598,-3.0273,-3.0472,-2.9952,-3.0513,-3.0664,-3.0078,-3.0566,-3.0898,-3.0898,-3.0898,-3.0898,-3.0898,-3.1748,-3.1924,-3.1338,-3.1914,-3.1914,-3.1338,-3.1035,-3.0898,-3.0898,-3.0898,-3.0898,-3.0898,-3.0814,-3.0769,-3.0757,-3.0723,-3.0699,-3.0685,-3.0632,-3.0568,-3.0545,-3.0581,-3.0568,-3.0527,-3.0527,-3.0527,-3.0531,-3.0482,-3.0452,-3.0429,-3.0429,-3.0415,-3.0398,-3.0398,-3.0398,-3.0398,-3.0398,-3.0398,-3.0321,-3.0035,-2.9471,-2.8855,-2.8273,-2.761,-2.7015,-2.6742,-2.7015,-2.686,-2.5623,-2.4897,-2.4052,-2.2763,-2.2227,-2.1831,-2.1404,-2.0608,-1.9932,-1.9524,-1.9058,-1.8933,-1.9302,-1.8599,-1.8176,-1.8279,-1.8076,-1.7967,-1.8013,-1.8515,-1.9174,-2.002,-2.0123,-2.0275,-2.0517,0.0,0.0,0.0,0.0,0.0,0.0,0.0,0.0,0.0,0.0,0.0,0.0,0.0,0.0,0.0,0.0,0.0,0.0,0.0,0.0,0.0,0.0,0.0,-2.7908,-2.8621,-2.9474,-3.0394,-3.0557,-3.0618,-3.0687,-3.0814,-3.0889,-3.0889,-3.0889,-3.0898,-3.0898,-3.0898,-3.0898,-3.0898,-3.1748,-3.2187,-3.2158,-3.2187,-3.2187,-3.2148,-3.1299,-3.0898,-3.0898,-3.0898,-3.0898,-3.0898,-3.0898,-3.0898,-3.0898,-3.0898,-3.0898,-3.0878,-3.069,-3.0611,-3.0596,-3.0611,-3.0611,-3.0596,-3.0596,-3.0596,-3.0606,-3.0606,-3.0557,-3.0497,-3.0497,-3.0452,-3.0412,-3.04,-3.04,-3.04,-3.041,-3.0379,-3.015,-2.9294,-2.8906,-2.8497,-2.7641,-2.7128,-2.6842,-2.6823,-2.6657,-2.6291,-2.5541,-2.512,-2.4617,-2.381,-2.3117,0.0,-2.1716,-2.1404,-2.0809,-1.971,-1.9566,-1.9689,-2.001,-1.9423,-1.9302,-1.9933,-1.9004,-1.8695,-1.9331,-1.907,-1.9394,-2.0348,-2.1229,-2.2007,-2.2729,0.0,0.0,0.0,0.0,0.0,0.0,0.0,0.0,0.0,0.0,0.0,0.0,0.0,0.0,0.0,0.0,0.0,0.0,0.0,0.0,0.0,-2.7022,-2.8327,-2.8712,-2.9496,-3.0142,-3.0399,-3.0491,-3.0527,-3.0547,-3.0632,-3.0696,-3.0745,-3.0747,-3.0803,-3.0889,-3.0898,-3.0898,-3.0898,-3.1748,-3.1904,-3.126,-3.1885,-3.1885,-3.125,-3.1006,-3.0898,-3.0898,-3.0898,-3.0898,-3.0898,-3.0898,-3.0898,-3.0898,-3.0898,-3.0898,-3.0889,-3.0845,-3.076,-3.068,-3.0774,-3.076,-3.0667,-3.0667,-3.0638,-3.0606,-3.0606,-3.0587,-3.0568,-3.0568,-3.0564,-3.0537,-3.0491,-3.0463,-3.0462,-3.0414,-2.9929,-2.94,-2.9159,-2.8126,-2.7065,-2.6532,-2.5874,-2.5281,-2.4995,-2.4909,-2.497,-2.5348,-2.4836,-2.4151,-2.3441,-2.3165,-2.2837,-2.2199,-2.2036,-2.1885,-2.1574,-2.1226,-2.1072,-2.115,-2.0408,-1.982,-1.9586,-1.8981,-1.8606,-1.8516,-1.9014,-2.0131,-2.2013,-2.2604,-2.3112,0.0,0.0,0.0,0.0,0.0,0.0,0.0,0.0,0.0,0.0,0.0,0.0,0.0,0.0,0.0,0.0,0.0,0.0,0.0,0.0,0.0,0.0,-2.8017,-2.9051,-2.9312,-2.9867,-3.0232,-3.0232,-3.0383,-3.0498,-3.0498,-3.0564,-3.0623,-3.0661,-3.0665,-3.0687,-3.077,-3.077,-3.0786,-3.0816,-3.1655,-3.1902,-3.1445,-3.1953,-3.1953,-3.1435,-3.1074,-3.0898,-3.0898,-3.0898,-3.0898,-3.0898,-3.0898,-3.0898,-3.0898,-3.0898,-3.0898,0.0,0.0,0.0,0.0,0.0,-3.0848,-3.0782,-3.0782,-3.076,-3.0733,-3.0733,-3.0689,-3.0638,-3.0638,-3.0618,-3.0587,-3.0523,-3.0498,-3.0394,-2.9963,-2.9477,-2.8919,-2.8217,-2.7313,-2.6444,-2.5837,-2.5224,-2.4731,-2.4495,-2.4321,0.0,-2.4814,-2.4502,-2.4016,-2.3491,-2.3291,-2.3005,-2.2527,-2.2369,-2.231,-2.231,-2.2069,-2.189,-2.189,-2.1438,0.0,0.0,0.0,-1.9838,-1.9629,-2.0671,0.0,0.0,0.0,0.0,0.0,0.0,0.0,0.0,-2.5038,-2.527,0.0,0.0,0.0,0.0,0.0,0.0,0.0,0.0,0.0,0.0,0.0,0.0,0.0,0.0,0.0,0.0,-2.907,-2.9625,-2.9625,-2.9796,-2.9954,-2.9989,-3.0288,-3.049,-3.049,-3.0535,-3.0581,-3.0587,-3.0587,-3.0594,-3.0606,-3.0606,0.0,0.0,0.0,-3.1895,-3.202,-3.202,-3.202,-3.201,-3.1239,-3.0868,-3.0879,-3.0879,-3.0889,-3.0898,-3.0898,-3.0898,-3.0898,-3.0898,-3.0898,-3.0898,-3.0898,-3.0898,-3.0898,-3.0898,-3.0898,-3.0898,-3.0898,0.0,0.0,-3.0898,-3.0816,-3.0721,-3.0721,-3.0683,-3.0627,-3.0535,-3.0463,-3.0188,-2.9331,-2.8971,-2.845,-2.6957,-2.6524,-2.6235,-2.5447,-2.5024,-2.4809,-2.4766,-2.4478,-2.4228,-2.419,-2.4199,-2.4065,-2.3692,-2.3392,-2.3069,-2.2704,-2.2445,-2.231,-2.231,0.0,0.0,-2.2217,-2.2209,-2.2209,-2.2152,-2.1839,-2.1716,-2.1867,-2.3242,-2.3898,-2.3655,-2.5017,-2.5727,-2.5735,-2.6378,-2.6691,-2.6674,-2.5152,-2.5094,0.0,0.0,0.0,0.0,0.0,0.0,0.0,0.0,0.0,0.0,0.0,0.0,0.0,0.0,0.0,-2.7855,-2.8593,-2.9138,-2.9138,-2.9364,-2.9634,-2.996,-3.0251,-3.0415,-3.0415,-3.0429,-3.0462,-3.0514,-3.0523,-3.0542,-3.06,-3.0606,-3.0611,-3.0618,-3.0784,-3.0876,-3.0911,-3.0911,-3.0911,-3.0911,-3.0745,0.0,-3.0743,-3.0743,-3.0803,-3.0898,-3.0898,-3.0898,-3.0898,-3.0898,-3.0898,-3.0898,-3.0898,-3.0898,-3.0898,-3.0898,-3.0898,-3.0898,-3.0898,-3.0898,-3.0898,-3.0898,-3.0879,-3.0858,-3.0858,-3.0847,0.0,-3.07,-3.0188,-2.9611,-2.9274,-2.818,-2.7063,-2.6689,-2.6063,-2.5465,-2.5138,-2.5008,-2.4872,-2.4614,-2.4495,-2.4393,-2.4228,-2.4199,-2.3987,-2.3392,-2.3245,-2.2989,-2.2453,-2.2321,-2.231,-2.231,-2.231,-2.2143,-2.1756,-2.1735,-2.1598,-2.126,-2.1714,-2.2427,-2.3415,-2.4298,-2.4905,-2.5186,-2.604,-2.648,-2.648,-2.6623,-2.6691,-2.6683,-2.6366,-2.6347,0.0,0.0,0.0,0.0,0.0,0.0,0.0,0.0,0.0,0.0,0.0,-2.5044,-2.6365,0.0,-2.7697,-2.8306,-2.875,-2.8994,-2.8994,-2.9234,-2.9464,-2.9688,-2.9905,-3.009,-3.0196,-3.0196,-3.0273,-3.0442,-3.0452,-3.0463,-3.0499,-3.0499,-3.0524,-3.055,-3.055,-3.0571,-3.0606,-3.0606,-3.0606,-3.0606,-3.0606,-3.0623,-3.0647,-3.0647,-3.0693,-3.0752,-3.0752,-3.0752,-3.0752,-3.0788,-3.0837,-3.0898,-3.0898,-3.0898,-3.0898,-3.0898,-3.0898,-3.0898,-3.0898,-3.0898,-3.0898,-3.0898,-3.0898,-3.0898,-3.0898,-3.0898,-3.0868,-3.0743,-3.0118,-2.937,-2.8796,-2.7699,-2.6637,-2.6159,-2.5696,-2.5319,-2.5216,-2.5085,-2.4937,-2.4706,-2.4568,-2.4436,-2.4219,-2.4199,-2.4025,-2.3522,-2.3446,-2.3277,-2.2798,-2.2599,-2.25,-2.25,-2.2388,-2.2209,-2.1966,-2.1966,-2.1869,-2.1653,-2.2681,-2.3577,-2.4176,-2.5271,-2.5933,-2.6158,-2.6505,-2.6691,-2.6691,-2.6691,-2.6691,-2.6691,-2.6691,-2.6691,0.0,0.0,0.0,0.0,0.0,0.0,0.0,-2.1966,-2.2553,-2.4804,-2.4927,-2.5314,-2.7434,-2.7547,-2.768,-2.8697,-2.8887,-2.8896,-2.8984,-2.9191,-2.933,-2.933,-2.9551,-2.9763,-2.9924,-2.993,-3.0032,-3.0251,-3.0264,-3.0264,-3.0264,-3.0264,-3.0309,-3.0404,-3.0395,-3.0451,-3.0564,-3.0564,-3.0564,-3.0564,-3.0564,-3.0571,-3.0581,-3.0581,-3.0587,-3.0606,-3.0606,-3.0606,-3.0602,-3.0665,-3.074,-3.0835,-3.0835,-3.0835,-3.0846,-3.0888,-3.0898,-3.0898,-3.0898,-3.0898,-3.0898,-3.0898,-3.0898,-3.0898,-3.0898,-3.0898,-3.0839,-3.0564,-2.9904,-2.9047,-2.8111,-2.7216,-2.6373,-2.5648,-2.5428,-2.5383,-2.5383,-2.5216,-2.5018,-2.4837,-2.467,-2.4478,-2.4238,-2.4199,-2.4094,-2.3744,-2.3692,-2.3566,-2.3141,-2.2873,-2.2669,-2.2643,-2.2426,-2.231,-2.231,-2.231,-2.2369,-2.2505,-2.3756,-2.4574,-2.4726,-2.5981,-2.6691,-2.6691,-2.6691,-2.6691,-2.6691,-2.6691,-2.6691,-2.6691,-2.6691,-2.6691,-0.6357,-1.0432,-1.4666,-1.7817,-2.0043,-2.199,0.0,-2.5112,-2.5827,-2.6666,-2.7163,-2.7533,-2.7841,-2.784,-2.7949,-2.8411,-2.848,-2.8599,-2.8952,-2.904,-2.9044,-2.9044,-2.9427,-2.9713,-2.9721,-2.9738,-2.9748,-2.9782,-2.9782,-2.9782,-2.9782,-2.9782,-2.9861,-3.0047,-3.0061,-3.0161,-3.0426,-3.0417,-3.0417,-3.0417,-3.0417,-3.0442,-3.0506,-3.0506,-3.0542,-3.0606,-3.0606,-3.0606,-3.0606,-3.0611,-3.0623,-3.0628,-3.0628,-3.0628,-3.0662,-3.0834,-3.0898,-3.0898,-3.0898,-3.0898,-3.0898,-3.0898,-3.0898,-3.0898,-3.0898,-3.0898,-3.0742,-2.9951,-2.9101,-2.8221,-2.7284,-2.634,-2.5609,-2.5444,-2.5354,-2.5313,-2.5313,-2.5284,-2.5171,-2.4865,-2.479,-2.4648,-2.4275,-2.4199,-2.4094,-2.3744,-2.3692,-2.3468,-2.2848,-2.2712,-2.2625,-2.2369,-2.233,-2.231,-2.231,-2.231,-2.2589,-2.3241,-2.4066,-2.478,-2.5456,-2.626,-2.6691,-2.6691,-2.6691,-2.6691,-2.6691,-2.6691,-2.6691,-2.6691,-2.6691,-2.6691,-0.426,-0.8991,-1.3032,-1.719,-1.9599,-2.1449,-2.3153,-2.4074,-2.4929,-2.6101,-2.6589,-2.6918,-2.7365,-2.7516,-2.7678,-2.8047,-2.8102,-2.8165,-2.8343,-2.8369,-2.8421,-2.8633,-2.8833,-2.9104,-2.9485,-2.9532,-2.957,-2.9696,-2.9696,-2.9696,-2.9696,-2.9696,-2.9738,-2.9829,-2.9838,-2.9871,-2.9992,-2.9992,-2.9992,-2.9992,-2.9992,-3.0066,-3.0208,-3.0208,-3.0311,-3.0482,-3.0482,-3.0507,-3.0535,-3.0535,-3.0561,-3.0606,-3.0606,-3.0606,-3.0611,-3.0685,-3.0733,-3.0733,-3.0733,-3.0748,-3.0782,-3.0782,-3.0837,-3.0889,-3.0814,-3.046,-3.0012,-2.964,-2.8518,-2.7354,-2.704,-2.6257,-2.5562,-2.5566,-2.5493,-2.5417,-2.5417,-2.5364,-2.5223,-2.4968,-2.4917,-2.4799,-2.4444,-2.4375,-2.4284,-2.4036,-2.3996,-2.3896,-2.3619,-2.3392,-2.3078,-2.259,-2.2379,-2.231,-2.231,-2.231,-2.2437,-2.2742,-2.3841,-2.4659,-2.494,-2.6074,-2.6691,-2.6691,-2.6691,-2.6691,-2.6691,-2.6691,-2.6691,-2.6691,-2.6691,-2.6691,-0.2003,-0.6775,-1.061,-1.504,-1.7894,-1.9956,-2.1276,-2.2118,-2.3041,-2.438,-2.4851,-2.5335,-2.6313,-2.648,-2.6719,-2.7575,-2.7622,-2.7613,-2.786,-2.7897,-2.8001,-2.8228,-2.8255,-2.8453,-2.8929,-2.9175,-2.9353,-2.9504,-2.9504,-2.9504,-2.9504,-2.9504,-2.9542,-2.9616,-2.9626,-2.9643,-2.9696,-2.9696,-2.9696,-2.9696,-2.9696,-2.9772,-2.9924,-2.9924,-3.0018,-3.0215,-3.0264,-3.03,-3.0282,-3.0334,-3.0356,-3.0355,-3.0355,-3.0355,-3.0355,-3.0355,-3.0459,-3.0606,-3.0606,-3.0628,-3.0667,-3.0667,-3.0735,-3.0759,-3.0443,-2.993,-2.9367,-2.8896,-2.7807,-2.6776,-2.6617,-2.6085,-2.5577,-2.5634,-2.5571,-2.5484,-2.5482,-2.5398,-2.5264,-2.5046,-2.5001,-2.4901,-2.4629,-2.4575,-2.4536,-2.4393,-2.4321,-2.4228,-2.4084,-2.3765,-2.3369,-2.2889,-2.2572,-2.2407,-2.2407,-2.2341,-2.231,-2.231,-2.3672,-2.4515,-2.4515,-2.5913,-2.6624,-2.6513,-2.6615,-2.6624,-2.6513,-2.6624,-2.6691,-2.6691,-2.6691,-2.6691,0.1522,-0.2971,-0.7179,-1.0648,-1.4335,-1.7484,-1.8966,-2.0077,-2.0964,-2.1694,-2.2208,-2.3024,-2.4758,-2.4645,-2.4974,-2.6992,-2.6884,-2.685,-2.7756,-2.7897,-2.7888,-2.7926,-2.7926,-2.7917,-2.7945,-2.8592,-2.9007,-2.903,-2.903,-2.903,-2.903,-2.903,-2.9147,-2.9403,-2.9403,-2.9494,-2.9696,-2.9696,-2.9696,-2.9696,-2.9696,-2.9704,-2.9713,-2.9713,-2.9704,-2.9721,-2.9924,-2.9899,-2.9738,-2.993,-2.9899,-2.9729,-2.9729,-2.9729,-2.9729,-2.9729,-3.01,-3.0606,-3.0606,-3.0596,-3.0596,-3.0596,-3.0611,-3.0456,-2.9683,-2.942,-2.905,-2.7362,-2.6846,-2.6607,-2.5761,-2.5523,-2.5498,-2.5508,-2.5503,-2.5483,-2.5417,-2.5398,-2.5316,-2.505,-2.5001,-2.4959,-2.4823,-2.479,-2.479,-2.479,-2.4617,-2.4293,-2.3777,-2.3414,-2.3221,-2.3198,-2.2898,-2.2695,-2.2695,-2.2445,-2.231,-2.231,-2.3672,-2.4515,-2.4515,-2.5913,-2.6479,-2.6041,-2.6479,-2.6479,-2.6005,-2.6479,-2.6691,-2.6691,-2.6691,-2.6691,0.3068,-0.0205,-0.35,-0.8083,-1.1479,-1.4185,-1.6115,-1.7513,-1.8693,-1.9828,-2.0418,-2.1183,-2.2561,-2.3291,-2.4,-2.5086,-2.545,-2.5745,-2.6059,-2.6094,-2.6216,-2.6488,-2.6521,-2.6742,-2.7309,-2.792,-2.8264,-2.8264,-2.8473,-2.8489,-2.8281,-2.8464,-2.8531,-2.8402,-2.8612,-2.8772,-2.8851,-2.9095,-2.924,-2.924,-2.9425,-2.9494,-2.9523,-2.9634,-2.9696,-2.9704,-2.9772,-2.9772,-2.9713,-2.9763,-2.9755,-2.9696,-2.9696,-2.9696,-2.9696,-2.9696,-2.983,-2.9993,-2.9993,-3.0146,-3.0337,-3.0337,-3.0444,-3.0428,-2.954,-2.8895,-2.8226,-2.7064,-2.6294,-2.5759,-2.5546,-2.5469,-2.544,-2.5486,-2.5496,-2.5494,-2.5464,-2.5467,-2.5431,-2.5297,-2.5272,-2.5188,-2.4974,-2.4933,-2.4864,-2.4629,-2.4536,-2.4392,-2.4075,-2.3744,-2.3446,-2.3212,-2.2889,-2.2643,-2.2445,-2.2341,-2.231,-2.231,-2.3672,-2.4515,-2.4515,-2.5913,-2.6624,-2.6479,-2.6624,-2.6615,-2.647,-2.6615,-2.6691,-2.6691,-2.6691,-2.6691,0.4765,0.1973,-0.1026,-0.5354,-0.8452,-1.1002,-1.3101,-1.4655,-1.5975,-1.7267,-1.7839,-1.8549,-2.0102,-2.103,-2.1957,-2.3034,-2.3989,-2.4602,-2.4807,-2.5035,-2.5311,-2.5538,-2.5575,-2.5812,-2.6371,-2.6744,-2.7217,-2.786,-2.8102,-2.8129,-2.7926,-2.8102,-2.8129,-2.7897,-2.8102,-2.8228,-2.8228,-2.8608,-2.8782,-2.8782,-2.8832,-2.8851,-2.8874,-2.8999,-2.9058,-2.9049,-2.9126,-2.9115,-2.907,-2.9283,-2.9313,-2.9241,-2.9388,-2.9446,-2.9446,-2.9446,-2.9359,-2.9282,-2.9579,-2.9839,-2.9974,-2.9691,-2.9715,-2.9632,-2.8422,-2.7749,-2.721,-2.6342,-2.5717,-2.5312,-2.5413,-2.5408,-2.541,-2.545,-2.5482,-2.5488,-2.5475,-2.5482,-2.5476,-2.5405,-2.542,-2.5374,-2.5178,-2.5124,-2.5008,-2.4723,-2.4687,-2.4556,-2.4238,-2.4016,-2.3795,-2.3566,-2.3268,-2.2989,-2.2807,-2.2571,-2.2573,-2.2854,-2.3905,-2.4602,-2.4873,-2.6057,-2.6615,-2.6436,-2.6615,-2.6624,-2.6436,-2.6624,-2.6691,-2.6691,-2.6691,-2.6691,0.6698,0.3611,0.0416,-0.2255,-0.5136,-0.7893,-0.9953,-1.1563,-1.2916,-1.4087,-1.4517,-1.5362,-1.7433,-1.8118,-1.9023,-2.1092,-2.2556,-2.3575,-2.4109,-2.4713,-2.5136,-2.5136,-2.5136,-2.5144,-2.5144,-2.5144,-2.5889,-2.7622,-2.7785,-2.7794,-2.7794,-2.7831,-2.7831,-2.784,-2.7869,-2.7869,-2.7869,-2.821,-2.8385,-2.8359,-2.8047,-2.7897,-2.7897,-2.7897,-2.7897,-2.7917,-2.8094,-2.8094,-2.7936,-2.8515,-2.8597,-2.842,-2.8782,-2.8929,-2.8929,-2.8929,-2.8691,-2.8495,-2.9313,-2.9596,-2.9435,-2.8666,-2.8419,-2.8107,-2.6484,-2.6133,-2.6104,-2.5237,-2.513,-2.5264,-2.5264,-2.532,-2.5372,-2.5379,-2.5428,-2.5459,-2.5411,-2.5452,-2.5478,-2.5424,-2.5463,-2.5478,-2.542,-2.5347,-2.5214,-2.5036,-2.5001,-2.4794,-2.4275,-2.4218,-2.419,-2.4142,-2.3867,-2.3671,-2.3619,-2.3069,-2.305,-2.3819,-2.427,-2.4822,-2.5575,-2.6311,-2.6479,-2.6041,-2.6479,-2.647,-2.6041,-2.647,-2.6691,-2.6691,-2.67,-2.6657,0.8466,0.5951,0.3095,0.1253,-0.1415,-0.4141,-0.6291,-0.8329,-1.0124,-1.1403,-1.2526,-1.3722,-1.512,-1.7356,-1.9302,-2.0224,-2.2144,-2.3598,-2.3734,-2.3899,-2.3998,-2.3998,-2.3998,-2.415,-2.4592,-2.4584,-2.4949,-2.5818,-2.6165,-2.6387,-2.648,-2.6721,-2.6893,-2.6987,-2.7303,-2.7439,-2.7439,-2.7831,-2.8029,-2.8029,-2.7945,-2.7897,-2.7897,-2.7897,-2.7897,-2.7888,-2.7965,-2.7946,-2.7926,-2.8057,-2.8084,-2.8029,-2.8147,-2.8174,-2.8174,-2.8174,-2.812,-2.8075,-2.8288,-2.8112,-2.7704,-2.741,-2.7266,-2.7075,-2.6255,-2.6033,-2.5906,-2.5083,-2.4892,-2.4932,-2.4932,-2.4939,-2.4986,-2.5083,-2.5149,-2.5234,-2.5373,-2.5445,-2.5485,-2.5478,-2.5492,-2.5484,-2.5478,-2.5289,-2.513,-2.5081,-2.4958,-2.4741,-2.4461,-2.4418,-2.4174,-2.3526,-2.3588,-2.3418,-2.273,-2.2678,-2.2945,-2.3499,-2.413,-2.4822,-2.5575,-2.6311,-2.6657,-2.6513,-2.6624,-2.6657,-2.6513,-2.6657,-2.6691,-2.6691,-2.6332,-2.6191,0.8242,0.6391,0.4273,0.2786,0.0265,-0.2311,-0.4129,-0.6212,-0.8152,-0.9548,-1.0553,-1.1622,-1.3069,-1.5446,-1.7498,-1.8279,-2.064,-2.2356,-2.2349,-2.2613,-2.2786,-2.2786,-2.3039,-2.3209,-2.3223,-2.3699,-2.4059,-2.4104,-2.4971,-2.5578,-2.5644,-2.5834,-2.5977,-2.6043,-2.6257,-2.6463,-2.6647,-2.668,-2.6907,-2.7269,-2.6907,-2.6828,-2.7063,-2.6819,-2.6713,-2.6713,-2.6713,-2.6713,-2.6737,-2.6922,-2.6977,-2.7,-2.713,-2.7213,-2.7213,-2.7213,-2.7099,-2.6914,-2.6398,-2.5834,-2.5451,-2.6085,-2.6042,-2.5619,-2.4975,-2.4947,-2.5038,-2.4573,-2.4514,-2.4576,-2.4576,-2.4576,-2.4597,-2.4677,-2.4825,-2.5023,-2.5188,-2.5282,-2.5362,-2.5476,-2.5497,-2.5498,-2.5498,-2.5381,-2.5275,-2.5275,-2.5504,-2.5592,-2.5351,-2.4858,-2.4458,-2.4308,-2.4387,-2.4225,-2.3707,-2.398,-2.4276,-2.4531,-2.4968,-2.5569,-2.6322,-2.6562,-2.6691,-2.6691,-2.6513,-2.6505,-2.6691,-2.6505,-2.6401,-2.6401,-2.6332,-2.6191,0.7417,0.6087,0.4714,0.3318,0.1068,-0.1257,-0.2827,-0.4699,-0.6539,-0.8084,-0.8772,-0.9559,-1.1243,-1.3272,-1.505,-1.619,-1.8811,-2.077,-2.0906,-2.139,-2.1697,-2.1697,-2.22,-2.2353,-2.1751,-2.2696,-2.3135,-2.2603,-2.3914,-2.4792,-2.4965,-2.5051,-2.5144,-2.5221,-2.5221,-2.5363,-2.5732,-2.5363,-2.5578,-2.6302,-2.5541,-2.5449,-2.5888,-2.5411,-2.5221,-2.5221,-2.5221,-2.5221,-2.5213,-2.5583,-2.5724,-2.5752,-2.6031,-2.6135,-2.6135,-2.6135,-2.5894,-2.5466,-2.4469,-2.3621,-2.3187,-2.4663,-2.4653,-2.3966,-2.3368,-2.3529,-2.3882,-2.3882,-2.4026,-2.4152,-2.4152,-2.4152,-2.4152,-2.4186,-2.4454,-2.4728,-2.4882,-2.5016,-2.5184,-2.5442,-2.5488,-2.5496,-2.5507,-2.5508,-2.5541,-2.5673,-2.632,-2.6753,-2.664,-2.5623,-2.5162,-2.578,-2.5736,-2.5611,-2.5533,-2.5854,-2.6074,-2.6069,-2.6085,-2.6463,-2.7206,-2.6873,-2.6691,-2.6691,-2.6297,-2.6297,-2.6691,-2.6297,-2.6077,-2.6112,-2.6444,-2.6401,0.8623,0.7208,0.562,0.4714,0.296,0.0894,-0.1211,-0.2795,-0.4438,-0.6556,-0.7911,-0.9034,-0.9993,-1.2527,-1.4912,-1.612,-1.8446,-2.0449,-2.1424,-2.1656,-2.1697,-2.1697,-2.1798,-2.1852,-2.1697,-2.1892,-2.1986,-2.1899,-2.2144,-2.2759,-2.3738,-2.4277,-2.4744,-2.5182,-2.5221,-2.5243,-2.5303,-2.5243,-2.5289,-2.5408,-2.5281,-2.5259,-2.5335,-2.5251,-2.5221,-2.5221,-2.5221,0.0,-2.5221,-2.5273,-2.5303,-2.5303,-2.5355,-2.5376,-2.5376,-2.5376,-2.4983,-2.443,-2.4236,-2.3326,-2.2378,-2.2911,-2.2842,-2.2587,-2.3072,-2.3273,-2.3333,-2.3333,-2.3361,-2.3397,-2.3397,-2.3397,-2.3436,-2.3599,-2.3895,-2.4181,-2.4381,-2.4787,-2.5157,-2.5374,-2.5464,-2.5525,-2.5566,-2.5537,-2.5765,-2.6535,-2.6736,-2.704,-2.7719,-2.7421,-2.7001,-2.6658,-2.6821,-2.6751,-2.6196,-2.6016,-2.6084,-2.6383,-2.5962,-2.6019,-2.6782,-2.6725,-2.6691,-2.6691,-2.6624,-2.6624,-2.6691,-2.6624,-2.6581,-2.6581,-2.6254,-2.6085,0.7727,0.6774,0.5708,0.5216,0.4018,0.2356,0.0205,-0.1226,-0.2756,-0.4973,-0.6609,-0.7953,-0.9009,-1.1302,-1.3426,-1.4692,-1.6674,-1.8477,-1.9648,-2.0113,-2.039,-2.0674,-2.1002,-2.1099,-2.0756,-2.1321,-2.1404,-2.0703,-2.097,-2.1533,-2.2503,-2.2825,-2.3113,-2.3395,-2.3395,-2.3395,-2.3395,-2.3395,-2.3508,-2.3789,-2.3508,-2.3508,-2.3789,-2.3516,-2.3395,-2.3395,-2.3395,-2.3395,-2.3395,-2.3395,-2.3395,-2.3395,-2.3395,-2.3201,-2.2959,-2.2959,-2.2589,-2.2022,-2.1661,-2.1113,-2.06,-2.0942,-2.1252,-2.1584,-2.1958,-2.2173,-2.2319,-2.2319,-2.2319,-2.2319,-2.2319,-2.247,-2.266,-2.275,-2.3267,-2.371,-2.359,-2.4019,-2.4525,-2.4905,-2.5034,-2.5163,-2.5449,-2.5905,-2.6383,-2.6826,-2.7669,-2.8401,-2.8778,-2.9079,-2.8912,-2.7988,-2.7947,-2.7827,-2.7473,-2.7605,-2.7622,-2.7356,-2.7157,-2.7128,-2.7317,-2.7326,-2.7241,-2.7027,-2.6748,-2.6748,-2.6995,-2.6564,-2.6019,-2.5402,-2.5464,-2.5016,0.6548,0.6107,0.5638,0.5447,0.4726,0.3545,0.1595,0.0211,-0.1328,-0.3698,-0.5192,-0.662,-0.8212,-0.984,-1.1467,-1.3016,-1.4593,-1.6068,-1.752,-1.8154,-1.8688,-1.9264,-1.9812,-1.9914,-1.9365,-2.0218,-2.0386,-1.9343,-1.9699,-2.0334,-2.1157,-2.1122,-2.1122,-2.1212,-2.1212,-2.1212,-2.1212,-2.1377,-2.1675,-2.207,-2.1843,-2.1836,-2.207,-2.1682,-2.137,-2.1212,-2.1212,-2.1322,-2.1479,-2.1479,-2.154,-2.1697,-2.1697,-2.1291,-2.0729,-2.0729,-2.021,-1.9403,-1.8911,-1.861,-1.8543,-1.8815,-1.9617,-2.0552,-2.0773,-2.0927,-2.1051,-2.1051,-2.1121,-2.1207,-2.1207,-2.1535,-2.189,-2.1938,-2.2539,-2.3046,-2.2914,-2.3264,-2.3776,-2.4323,-2.453,-2.4741,-2.5119,-2.6042,-2.6792,-2.6981,-2.8435,-2.9539,-2.9675,-3.0312,-3.0373,-2.9388,-2.9124,-2.8977,-2.8867,-2.9184,-2.9022,-2.8163,-2.8154,-2.8002,-2.7657,-2.7648,-2.75,-2.7178,-2.6747,-2.6738,-2.7178,-2.6479,-2.566,-2.4752,-2.5182,-2.454,0.6226,0.5963,0.5676,0.5659,0.5228,0.4396,0.2878,0.1683,0.0055,-0.28,-0.4022,-0.5247,-0.7385,-0.8452,-0.9662,-1.181,-1.2775,-1.4056,-1.624,-1.6589,-1.6905,-1.7726,-1.7841,-1.7895,-1.7792,-1.789,-1.7938,-1.7786,-1.7829,-1.8407,-1.9649,-1.9175,-1.9129,-1.9693,-1.9693,-1.9693,-1.9693,-2.0394,-2.0715,-2.08,-2.1411,-2.1363,-2.0751,-2.0715,-2.0338,-1.9693,-1.9693,-2.007,0.0,-2.0715,-2.1102,-2.1697,-2.1697,-2.1062,-2.008,-2.008,-1.9008,-1.7535,-1.7478,-1.7089,-1.657,-1.659,-1.7683,-1.9148,-2.0035,-1.9947,-1.9582,-1.9582,-1.9932,-2.0332,-2.0332,-2.0717,-2.1188,-2.1483,-2.1628,-2.1914,-2.2716,-2.2952,-2.3155,-2.3757,-2.4121,-2.437,-2.4478,-2.5438,-2.6433,-2.7229,-2.8381,-2.943,-3.0219,-3.0652,-3.0786,-3.0557,-3.0457,-3.0319,-3.0061,-2.9601,-2.8987,-2.8245,-2.7681,-2.7224,-2.6816,-2.6816,-2.6783,-2.6758,-2.6716,-2.6716,-2.675,-2.6683,-2.6573,-2.6479,-2.6522,-2.5925,0.5975,0.5956,0.5868,0.5348,0.5346,0.4882,0.2647,0.1584,0.0499,-0.1552,-0.3264,-0.4643,-0.5573,-0.7039,-0.8558,-1.0075,-1.1237,-1.2577,-1.4378,-1.4975,-1.5624,-1.6754,-1.6469,-1.653,-1.7512,-1.7153,-1.668,-1.6229,-1.5375,-1.5052,-1.5538,-1.712,-1.8103,-1.8342,-1.8342,-1.8342,-1.8342,-1.8666,-1.8778,-1.8778,-1.9098,-1.9098,-1.8778,-1.8778,-1.8614,-1.8342,-1.8342,-1.8502,0.0,-1.8778,-1.8994,-1.9209,-1.9209,-1.8775,-1.8013,-1.7349,-1.6408,-1.5402,-1.4779,-1.4624,-1.4778,-1.5095,-1.5726,-1.6532,-1.755,-1.797,-1.8096,-1.8096,-1.8212,-1.8372,-1.8372,-1.8737,-1.9304,-2.0141,-2.0007,-1.9991,-2.1091,-2.103,-2.1097,-2.2346,-2.2697,-2.3111,-2.415,-2.5179,-2.6216,-2.7233,-2.8274,-2.9188,-2.9939,-3.0156,-3.0388,-3.0779,-3.0723,-3.0604,-3.0451,-2.974,-2.9174,-2.8868,-2.8118,-2.7168,-2.6064,-2.6227,-2.5913,-2.5027,-2.4989,-2.4989,-2.4989,-2.4749,-2.4294,-2.3625,-2.3625,-2.3023,0.5955,0.6095,0.6159,0.5424,0.5523,0.5189,0.2942,0.1919,0.1,-0.0446,-0.2388,-0.3877,-0.4315,-0.59,-0.7576,0.0,0.0,-1.1056,-1.2755,-1.3389,-1.405,-1.5244,-1.4907,-1.4965,-1.612,-1.5706,-1.5182,-1.4672,-1.3584,-1.3009,-1.3009,-1.5032,-1.6244,-1.6244,-1.6244,-1.6244,-1.6244,-1.646,-1.6567,-1.6567,-1.6786,-1.6786,-1.6567,-1.6567,-1.6465,-1.6239,-1.6166,-1.6289,0.0,-1.6486,-1.6613,-1.6876,-1.6796,-1.6299,-1.5563,-1.4728,-1.3962,-1.3184,-1.2414,-1.2469,-1.2916,-1.3278,-1.346,-1.37,-1.4457,-1.5503,-1.6462,-1.6462,-1.6431,-1.6484,-1.6844,-1.6993,-1.731,-1.8389,-1.8242,-1.8072,-1.8956,-1.8686,-1.8724,-2.0249,-2.0568,-2.1212,-2.3105,-2.4268,-2.5332,-2.6535,-2.757,-2.839,-2.8845,-2.9304,-2.9792,-3.0306,-3.0596,-3.07,-3.0549,-2.9976,-2.9298,-2.8545,-2.7877,-2.6735,-2.5003,-2.5155,-2.4796,-2.3738,-2.3738,-2.3738,-2.3697,-2.3656,-2.3215,-2.24,-2.2186,-2.1625,0.6186,0.6401,0.649,0.6096,0.5911,0.5473,0.4277,0.3036,0.1783,0.0278,-0.1169,-0.267,-0.4152,-0.5181,-0.6402,-0.8326,-0.8749,-0.9546,-1.1527,-1.1823,-1.2135,-1.2944,-1.3005,-1.3005,-1.3065,-1.307,-1.3005,-1.3009,-1.3005,-1.3009,-1.3009,-1.3005,-1.3065,-1.3065,-1.3065,-1.3065,-1.3065,-1.3784,-1.4164,-1.4164,-1.4869,-1.4811,-1.4164,-1.4164,-1.3725,-1.3049,-1.2751,-1.3234,0.0,-1.3862,-1.4355,-1.5209,-1.4903,-1.4123,-1.3,-1.2713,-1.1875,-1.0817,-1.0813,-1.0809,-1.0813,-1.0864,-1.0864,-1.0864,-1.0859,-1.2657,-1.4749,-1.4749,-1.4648,-1.4805,-1.6015,-1.5825,-1.5519,-1.6173,-1.6325,-1.6322,-1.6436,-1.6168,-1.6279,-1.7427,-1.7714,-1.8535,-2.0993,-2.2363,-2.3571,-2.4927,-2.6085,-2.6835,-2.6826,-2.8171,-2.9105,-2.9125,-3.0189,-3.0763,-3.0428,-3.0392,-2.9306,-2.6791,-2.6614,-2.5635,-2.3405,-2.3316,-2.3308,-2.3316,-2.3316,-2.3316,-2.3316,-2.4022,-2.4378,-2.4339,-2.3632,-2.3303,0.5779,0.579,0.5849,0.5392,0.5217,0.4709,0.2896,0.2352,0.1797,0.0288,-0.0752,-0.1802,-0.2904,-0.4188,-0.5561,-0.7054,-0.7744,-0.8627,-1.0238,-1.0501,-1.0959,-1.2315,-1.2779,-1.2565,-1.1429,-1.1304,-1.1037,-1.0451,-0.9904,-0.9603,-0.9603,-0.9603,-1.061,-1.2948,-1.3009,-1.3009,-1.3009,-1.3226,-1.3339,-1.3335,-1.3554,-1.3554,-1.3335,-1.2736,-1.2299,-1.2074,-1.1394,-1.1265,-1.1569,-1.1468,-1.1654,-1.1897,-1.185,-1.1501,-1.0957,-1.0137,-0.9515,-0.8975,-0.8218,-0.8574,-0.93,-0.8763,-0.96,-1.0598,-0.9684,-1.0918,-1.2633,-1.2633,-1.2281,-1.2123,-1.2959,-1.2987,-1.2968,-1.3507,-1.3392,-1.3393,-1.428,-1.38,-1.3873,-1.6256,-1.6741,-1.7452,-1.9605,-2.108,-2.2332,-2.3561,-2.2561,-2.1835,-2.2314,-1.7335,-1.3968,-1.4427,-1.1657,-1.2596,-1.9565,-1.9732,-1.6111,-0.8233,-0.7256,-0.6308,-0.4846,-0.4772,-0.4424,-0.3628,-0.7388,-0.9341,-0.9393,-1.7383,-1.6294,-0.6797,-0.5462,-0.4873,0.5452,0.5476,0.5508,0.5031,0.4935,0.4459,0.2398,0.2078,0.1773,0.0293,-0.0594,-0.1263,-0.1839,-0.3276,-0.4717,-0.5923,-0.68,-0.7756,-0.9064,-0.9256,-0.9601,-1.0564,-1.0923,-1.0673,-0.9666,-0.9539,-0.9342,-0.8756,-0.827,-0.7825,-0.7483,-0.7822,-0.8634,-1.0019,-1.0767,-1.1114,-1.1114,-1.1114,-1.1114,-1.1114,-1.1114,-1.1114,-1.1114,-1.0524,-1.0326,-1.0256,-0.9578,-0.9403,0.0,-0.9387,-0.9406,-0.9485,-0.9384,-0.9242,-0.9032,-0.8207,-0.7796,-0.7565,-0.6843,-0.7165,-0.7841,-0.736,-0.8159,-0.909,-0.7869,-0.894,-1.0567,-1.0567,-1.0047,-0.9683,-1.0412,-1.0342,-1.0294,-1.0876,-1.0788,-1.065,-1.1032,-1.044,-1.0401,-1.2241,-1.2506,-1.3173,-1.5355,-1.6433,-1.746,-1.8649,-1.7508,-1.664,-1.7055,-1.2544,-0.9461,-0.9894,-0.5717,-0.3931,-0.6471,-0.8086,-0.5917,0.1223,0.2119,0.2989,0.4375,0.4446,0.4785,0.548,0.2075,0.0247,0.0232,-0.7251,-0.4913,0.6707,1.0769,1.3069,0.0,0.5291,0.5355,0.5003,0.4926,0.4454,0.2589,0.2172,0.0,0.0295,-0.0545,-0.1051,-0.1118,-0.2467,-0.392,-0.4889,-0.5854,-0.689,-0.7974,-0.8195,-0.8255,-0.8255,-0.8111,-0.7962,-0.7894,-0.7829,-0.7762,-0.7697,-0.763,-0.7221,-0.6345,-0.7154,-0.6883,-0.5147,-0.675,-0.7695,-0.7892,-0.7959,-0.8027,-0.8027,-0.8027,-0.8027,-0.8027,-0.7959,-0.7894,-0.7884,-0.7489,-0.7516,-0.7815,-0.7467,-0.7497,-0.7785,-0.739,-0.7169,-0.7003,-0.6704,-0.6444,-0.631,-0.631,-0.631,-0.6364,-0.6416,-0.6502,-0.6438,-0.5608,-0.6788,-0.8482,-0.8427,-0.7852,-0.7482,-0.8192,-0.7902,-0.7553,-0.8143,-0.8371,-0.8104,-0.6989,-0.6527,-0.633,-0.6484,-0.6318,-0.6866,-0.9216,-0.9745,-1.0124,-1.1121,-1.1126,-1.0929,-1.0697,-1.1105,-1.1388,-1.1388,-0.7756,-0.1428,0.8256,0.4174,0.2158,0.4639,0.4795,0.5548,0.7226,0.7319,0.7319,0.7319,0.7319,0.7322,0.7333,0.6167,0.9307,1.6485,2.404,2.8726,0.4115,0.0,0.4718,0.4872,0.4134,0.318,0.0,0.1689,0.1123,0.0182,0.0,-0.0453,-0.1146,-0.1608,-0.2419,-0.4132,-0.4744,-0.5656,-0.7404,-0.8162,-0.8481,-0.8481,-0.8202,-0.7765,-0.7044,-0.6379,-0.5656,-0.5003,-0.4334,-0.3867,-0.36,-0.3801,-0.3733,-0.3333,-0.3732,-0.4916,-0.6876,-0.762,-0.8027,-0.8027,-0.8027,-0.8027,-0.7962,-0.7307,-0.6981,-0.6979,-0.6229,-0.5913,-0.6001,-0.5764,-0.5717,-0.5683,-0.4934,-0.4582,-0.4378,-0.3791,-0.3389,-0.3224,-0.3224,-0.3602,-0.4195,-0.4732,-0.4179,-0.3383,-0.3717,-0.5055,-0.6258,-0.5619,-0.4864,-0.4508,-0.5195,-0.5226,-0.501,-0.4632,-0.4936,-0.5184,-0.464,-0.448,-0.4827,-0.6217,-0.6419,-0.6757,-0.7967,-0.9062,-0.9059,-0.6774,-0.4775,-0.2593,-0.0054,0.6135,1.0277,1.0277,1.4655,1.8972,2.2268,1.5932,1.5361,2.3769,2.4297,2.4487,2.4915,2.4933,2.4933,2.4933,2.4933,2.4933,2.4934,2.4634,2.4837,2.5495,2.8598,2.9851,0.3856,0.4077,0.4366,0.4624,0.3948,0.3043,0.2382,0.1622,0.0,0.0,0.0,-0.0133,-0.0615,-0.1028,-0.1655,-0.2696,-0.331,-0.4075,-0.5228,-0.5748,-0.5953,-0.5953,-0.5729,-0.5385,-0.4927,-0.4399,-0.3939,-0.3412,-0.2945,-0.2543,-0.2076,-0.2477,-0.2344,-0.1476,-0.2278,-0.3403,-0.4779,-0.5313,-0.5581,-0.5581,-0.5581,-0.5581,-0.5581,-0.5059,-0.4863,-0.4863,-0.4345,-0.4185,-0.413,-0.4065,-0.4007,-0.3962,-0.3458,-0.2991,-0.2523,-0.2489,-0.1903,-0.1136,-0.1536,-0.1701,-0.1745,-0.221,-0.1785,-0.1091,-0.1193,-0.1792,-0.2644,-0.3215,-0.3105,-0.2894,-0.327,-0.3083,-0.2644,-0.2272,-0.2164,-0.1999,-0.142,-0.1002,-0.089,-0.1556,-0.1362,-0.1095,-0.1145,-0.1809,-0.1582,0.059,0.2082,0.3752,0.5933,1.0506,1.3861,1.4775,1.9549,2.3098,2.4256,2.2624,2.4073,3.0018,3.0713,3.0898,3.0898,3.0898,3.0898,3.0898,3.0898,3.0901,3.0893,3.0893,3.046,2.9617,3.0477,3.0542,0.4007,0.413,0.4338,0.4438,0.406,0.3399,0.2637,0.0,0.0,0.0,0.0,0.0,0.0,-0.0621,-0.112,-0.1264,-0.2083,-0.2779,-0.2936,-0.2919,-0.2881,-0.2887,-0.2799,-0.2678,-0.2678,-0.2543,-0.2477,-0.2477,-0.2344,-0.1943,-0.114,-0.1876,-0.161,-0.0067,-0.1341,-0.2074,-0.2074,-0.2476,-0.2678,-0.2678,-0.2542,-0.2474,-0.2474,-0.2339,-0.2272,-0.2271,-0.2328,0.0,-0.2302,-0.2345,-0.2305,-0.2316,-0.2194,-0.1611,-0.0988,-0.1512,-0.078,0.0465,-0.0293,-0.0059,0.0586,0.0454,0.0476,0.0696,0.1302,0.1499,0.1138,-0.0747,-0.1367,-0.148,-0.1463,-0.0885,-0.0354,-0.0353,0.0241,0.0932,0.1651,0.2362,0.3089,0.3835,0.4569,0.5334,0.6207,0.639,0.694,0.8264,0.8559,0.9123,1.0555,1.0777,1.1445,1.3183,1.7361,2.0499,2.1683,2.5894,2.8813,2.9608,3.0303,3.0693,3.0751,3.08,3.082,3.082,3.0869,3.0898,3.0898,3.0898,3.0898,3.0898,3.0898,3.0898,0.4085,0.4412,0.4597,0.4544,0.406,0.3341,0.2461,0.0,0.0,0.0,0.0,0.0,0.0,-0.014,-0.0424,-0.1152,-0.2214,-0.2945,-0.3081,-0.2982,-0.2901,-0.2889,-0.2763,-0.2678,-0.2678,-0.2009,-0.154,-0.154,-0.0806,-0.0337,-0.0202,-0.0337,-0.0269,0.0,0.047,0.0669,0.0669,-0.1539,-0.2678,-0.2678,-0.1868,-0.1533,-0.1466,-0.0731,-0.0398,-0.0398,0.0,-0.0574,-0.057,-0.0602,-0.0588,-0.0527,0.0235,0.0633,0.0788,0.15,0.1926,0.2115,0.2114,0.2229,0.2326,0.2322,0.2298,0.2366,0.242,0.2512,0.2557,0.2919,0.2526,0.1939,0.1949,0.2048,0.2135,0.2146,0.2224,0.2363,0.251,0.2611,0.2987,0.3855,0.4119,0.4505,0.5334,0.6022,0.7737,1.1324,1.2434,1.4499,1.9064,1.963,2.0101,2.1358,2.2228,2.3283,2.4786,2.6155,2.7525,2.8959,2.9412,2.9757,3.0037,3.0329,3.0478,3.0478,3.0762,3.0898,3.0898,3.0898,3.0898,3.0898,3.0898,3.0898,0.4063,0.4341,0.457,0.4582,0.3863,0.2894,0.1913,0.1137,0.0,0.0,0.0,0.0,0.0,0.0,-0.0145,-0.0528,-0.0995,-0.1379,-0.1433,-0.1401,-0.1367,-0.133,-0.1296,-0.1208,-0.1208,-0.0402,0.0134,0.0134,0.0939,0.1476,0.1476,0.1476,0.1476,0.1476,0.1876,0.2076,0.2076,0.0802,0.02,0.02,0.0667,0.0867,0.0867,0.1266,0.1466,0.1465,0.0,0.1359,0.1335,0.128,0.1244,0.1281,0.1604,0.1972,0.2466,0.3419,0.347,0.3201,0.3797,0.3995,0.3956,0.3907,0.3991,0.4124,0.4057,0.4423,0.4964,0.5348,0.4472,0.3496,0.3975,0.4469,0.4814,0.4817,0.5221,0.5685,0.6101,0.6589,0.7161,0.7971,0.8546,0.9109,0.9968,1.0732,1.203,1.4331,1.5367,1.7107,2.0567,2.1158,2.2101,2.4288,2.4689,2.5351,2.673,2.7123,2.7922,2.934,2.957,2.9829,3.0167,3.0319,3.045,3.0562,3.0714,3.0724,3.0578,3.0681,3.0698,3.0635,3.0742,3.083,0.4021,0.4263,0.4506,0.4461,0.3806,0.2931,0.1814,0.1042,0.0,0.0,0.0,0.0,0.0,0.0,0.0074,0.0309,0.0156,0.0,0.0,0.0,0.0,0.0,0.0203,0.0337,0.0337,0.1074,0.1608,0.1608,0.2276,0.2678,0.2678,0.2678,0.2678,0.2678,0.3057,0.3112,0.2981,0.3309,0.3253,0.2678,0.2878,0.3011,0.3012,0.3212,0.3346,0.3345,0.3256,0.3271,0.3262,0.3109,0.3016,0.2984,0.2874,0.3211,0.3887,0.4603,0.4527,0.4152,0.4889,0.5309,0.5415,0.5119,0.5302,0.5663,0.5284,0.5902,0.6719,0.6979,0.6293,0.559,0.5841,0.6455,0.691,0.691,0.7496,0.8208,0.8998,0.9699,1.0464,1.1501,1.2216,1.304,1.4007,1.5028,1.6007,1.701,1.8016,1.9357,2.1306,2.1874,2.3062,2.574,2.6309,2.6953,2.8012,2.8236,2.8753,2.9795,2.9769,2.9865,3.0234,3.0334,3.0448,3.0571,3.066,3.0583,3.0362,3.0537,3.0562,3.0452,3.0618,3.0755,0.41,0.4345,0.4361,0.3799,0.4238,0.0,0.2775,0.2343,0.0,0.0286,0.0,0.0,0.0,0.0,0.0294,0.1056,0.0531,0.0,0.0,0.0,0.0,0.0,0.0683,0.1207,0.1207,0.2076,0.2611,0.2611,0.2677,0.2678,0.2678,0.2678,0.2678,0.2678,0.4032,0.4424,0.3728,0.5188,0.4868,0.2678,0.3547,0.3882,0.3949,0.4821,0.5224,0.5218,0.5013,0.4946,0.4926,0.4791,0.4647,0.4528,0.4653,0.4841,0.4943,0.4897,0.5029,0.5262,0.5342,0.5926,0.6439,0.5657,0.5924,0.6457,0.5608,0.5999,0.685,0.7697,0.894,0.9659,0.8171,0.7867,0.7867,0.7867,0.7947,0.8208,0.8998,0.9243,0.9743,1.137,1.1748,1.2299,1.3813,1.5629,1.7342,1.8773,2.0617,2.2556,2.4438,2.5035,2.574,2.7037,2.7525,2.8031,2.8689,2.9263,2.9616,2.9701,2.9352,2.9343,2.9728,3.0104,3.0288,3.0237,3.0535,3.066,3.0583,3.0659,3.0667,3.0593,3.066,3.0674,0.3923,0.4216,0.4313,0.4397,0.4671,0.0,0.0,0.2082,0.173,0.1765,0.0863,0.0,0.0719,0.0357,0.0289,0.1126,0.1044,0.0812,0.0812,0.1288,0.1667,0.1707,0.1956,0.2142,0.2142,0.3011,0.3743,0.4268,0.4861,0.5455,0.5977,0.5977,0.5929,0.5696,0.6209,0.6311,0.5829,0.6445,0.6295,0.5423,0.5058,0.4889,0.4889,0.5226,0.5428,0.5425,0.5299,0.5274,0.5327,0.5675,0.5815,0.5809,0.6308,0.6574,0.6581,0.6625,0.6735,0.6817,0.6945,0.7246,0.744,0.7116,0.7246,0.7437,0.7116,0.764,0.8417,0.8745,1.0005,1.119,1.0561,1.0742,1.1114,1.1114,1.1114,1.1356,1.2135,1.27,1.3339,1.4463,1.5037,1.5546,1.6157,1.7258,1.8511,1.9803,2.107,2.2585,2.4736,2.5695,2.6609,2.7741,2.8573,2.9122,2.9352,2.9674,2.9893,2.9893,2.9621,2.9632,3.0,3.0209,3.0357,3.0448,3.0573,3.0544,3.035,3.0452,3.0476,3.0419,3.0516,3.0649,0.3752,0.4165,0.4401,0.4758,0.0,0.0,0.3579,0.2665,0.2215,0.2746,0.1782,0.1152,0.2031,0.1496,0.1134,0.1978,0.1887,0.1722,0.1722,0.2313,0.2667,0.2684,0.2945,0.321,0.3473,0.4338,0.52,0.6115,0.6778,0.7372,0.7962,0.7893,0.7721,0.7509,0.7614,0.7462,0.7017,0.7252,0.7252,0.7022,0.64,0.6063,0.6065,0.6183,0.6208,0.6208,0.6208,0.6208,0.6266,0.6396,0.647,0.6573,0.7234,0.7568,0.7642,0.7714,0.7723,0.7812,0.797,0.8159,0.8355,0.8091,0.8159,0.8355,0.8091,0.8616,0.9332,0.9579,1.0888,1.2262,1.2504,1.2757,1.3009,1.3009,1.3009,1.3247,1.403,1.4754,1.5548,1.6363,1.7285,1.7975,1.8197,1.9138,2.0282,2.1495,2.2406,2.3622,2.5333,2.625,2.7186,2.827,2.9229,2.9796,2.9796,3.0003,3.0136,3.0136,2.9998,3.0015,3.0252,3.036,3.0453,3.0573,3.0585,3.0499,3.0292,3.0388,3.04,3.0323,3.0448,3.0602,0.378,0.4236,0.4555,0.4653,0.0,0.0,0.5131,0.4459,0.3603,0.2873,0.2701,0.3024,0.4044,0.3408,0.2999,0.3835,0.3278,0.272,0.272,0.2725,0.2744,0.2744,0.348,0.4344,0.5261,0.6187,0.7044,0.7959,0.8024,0.8021,0.8021,0.7684,0.7499,0.7496,0.7775,0.7579,0.6902,0.7579,0.7577,0.6907,0.7348,0.7499,0.7511,0.7858,0.8027,0.8027,0.8027,0.8027,0.7962,0.7044,0.6717,0.6813,0.7294,0.776,0.7998,0.7827,0.7828,0.8024,0.8024,0.8613,0.9142,0.8285,0.8613,0.9139,0.8285,0.8678,0.9518,1.0305,1.1746,1.3187,1.3965,1.3606,1.3009,1.3005,1.3005,1.3247,1.4089,1.4812,1.5548,1.6358,1.7669,1.8859,1.9595,2.1186,2.2798,2.4033,2.5217,2.6148,2.6649,2.7051,2.7694,2.8704,2.9521,2.9999,2.9989,3.0254,3.0398,3.0398,3.0398,3.0398,3.0398,3.0535,3.0573,3.0496,3.0568,3.0568,3.0506,3.0506,3.0477,3.0398,3.0477,3.0506,0.3678,0.4236,0.4582,0.4785,0.0,0.0,0.0,0.5057,0.0,0.0,0.3688,0.3846,0.4018,0.3313,0.3,0.3824,0.3773,0.3615,0.3616,0.4156,0.4619,0.4619,0.534,0.5992,0.6254,0.7109,0.7962,0.8877,0.8702,0.885,0.9426,0.9231,0.8937,0.8688,0.8755,0.8631,0.8219,0.8435,0.8435,0.8223,0.857,0.8283,0.7511,0.7858,0.8027,0.8027,0.8027,0.8027,0.8024,0.8353,0.8871,0.9433,0.96,0.9762,0.9834,0.975,0.9771,0.9843,0.9843,0.9977,1.0295,1.0574,1.0825,1.1142,1.1436,1.1688,1.195,1.2189,1.3045,1.391,1.4149,1.4451,1.4801,1.5313,1.5482,1.5651,1.6435,1.7142,1.7747,1.7998,1.9199,2.0244,2.0421,2.1281,2.2424,2.3958,2.4516,2.5481,2.7478,2.7851,2.8379,2.9511,2.9855,3.0075,3.0276,3.0345,3.0398,3.0398,3.0398,3.0398,3.0398,3.0487,3.0525,3.05,3.0569,3.0576,3.0506,3.0506,3.0496,3.0477,3.0448,3.0487,0.3777,0.4416,0.4817,0.5367,0.6127,0.6721,0.6924,0.0,0.0,0.0,0.5426,0.5219,0.5138,0.4426,0.397,0.445,0.4864,0.51,0.5051,0.5865,0.6404,0.6404,0.692,0.7372,0.77,0.8221,0.8832,0.9568,0.946,0.95,0.989,0.9666,0.9426,0.919,0.9337,0.9343,0.9215,0.9462,0.9614,0.9618,0.9624,0.9283,0.8613,0.8745,0.8902,0.9061,0.9061,0.8804,0.8613,0.9463,0.9916,1.011,1.0431,1.0624,1.0624,1.0624,1.0804,1.1045,1.0681,1.0807,1.1108,1.1288,1.1527,1.1892,1.2389,1.2761,1.307,1.3368,1.385,1.4268,1.4569,1.5274,1.5921,1.6374,1.6487,1.6703,1.7413,1.8172,1.8762,1.9067,2.0393,2.1581,2.1831,2.2527,2.3563,2.489,2.5436,2.6244,2.7878,2.8363,2.8836,2.9553,2.9956,3.0222,3.0388,3.0398,3.0398,3.0398,3.0417,3.0427,3.0398,3.0467,3.0515,3.054,3.0543,3.0568,3.0576,3.0529,3.0516,3.0544,3.0477,3.0516,0.4091,0.4665,0.5118,0.6152,0.6585,0.7307,0.9008,0.8156,0.7163,0.8093,0.7506,0.6836,0.6948,0.6248,0.5624,0.5624,0.6334,0.6848,0.6848,0.7505,0.8027,0.8027,0.8091,0.842,0.9207,0.9314,0.9583,1.0073,1.0067,0.992,0.9772,0.9415,0.9305,0.9357,0.9711,0.9913,0.9913,1.0517,1.0813,1.0817,1.0484,1.0385,1.0384,1.0193,1.0277,1.0624,1.0624,1.0171,0.9588,1.0301,1.0171,0.9588,1.0301,1.0624,1.0624,1.0684,1.1167,1.171,1.1048,1.1292,1.1772,1.1108,1.141,1.2012,1.2135,1.2687,1.3481,1.42,1.4442,1.4674,1.5395,1.6088,1.6595,1.6652,1.6703,1.6922,1.7731,1.8436,1.9067,1.9755,2.1302,2.2753,2.3396,2.4416,2.5438,2.6362,2.73,2.7926,2.7945,2.8616,2.9094,2.9144,2.9872,3.0367,3.0398,3.0398,3.0398,3.0398,3.0467,3.0477,3.0408,3.0477,3.0535,3.0592,3.0544,3.0581,3.069,3.0568,3.054,3.0587,3.0516,3.0564,0.3979,0.4512,0.0,0.6119,0.7097,0.8156,0.991,0.9524,0.8826,0.9012,0.8322,0.7712,0.7761,0.7603,0.7442,0.7442,0.757,0.7697,0.7697,0.7897,0.8027,0.8027,0.8616,0.9075,0.9271,0.9656,1.0,1.006,0.9689,0.962,1.0151,0.9838,0.9918,1.0423,1.0557,1.0564,1.0564,1.0716,1.0813,1.0813,1.0747,1.083,1.107,1.0417,1.0277,1.0624,1.0624,1.0856,1.1212,1.08,1.086,1.1212,1.08,1.0624,1.0684,1.1288,1.1648,1.1892,1.2332,1.2581,1.2822,1.33,1.3541,1.3781,1.4437,1.5143,1.5781,1.5958,1.6399,1.689,1.7074,1.7246,1.7523,1.8118,1.8226,1.8596,1.9851,2.0226,2.0514,2.1163,2.2025,2.2824,2.3404,2.4104,2.5003,2.6294,2.73,2.8001,2.8264,2.8627,2.9052,2.9523,2.9874,3.0173,3.0388,3.0398,3.0398,3.0398,3.0408,3.0448,3.0487,3.0544,3.0564,3.0525,3.0612,3.0651,3.0617,3.0587,3.0556,3.0518,3.0448,3.0477,0.4004,0.4851,0.0,0.7344,0.0,0.9454,1.0364,1.0238,0.9916,0.9916,0.9198,0.8616,0.8616,0.8288,0.8027,0.8027,0.8353,0.8616,0.8616,0.9002,0.9209,0.9023,0.9397,0.9603,0.9475,1.0043,1.0303,1.0214,1.0172,1.0286,1.0547,1.0363,1.0415,1.0767,1.1111,1.1266,1.1266,1.1633,1.1796,1.1792,1.1475,1.1315,1.1276,1.0986,1.106,1.1437,1.1009,1.1207,1.1772,1.1351,1.141,1.183,1.1779,1.1538,1.1288,1.2085,1.2389,1.2451,1.2822,1.3247,1.361,1.3606,1.391,1.4268,1.4692,1.5618,1.6487,1.6487,1.7029,1.7578,1.7578,1.7846,1.8323,1.9002,1.8909,1.9079,2.049,2.0802,2.1161,2.2328,2.3032,2.3673,2.4562,2.5285,2.6104,2.7026,2.7703,2.8264,2.8633,2.9005,2.9352,2.9669,2.9988,3.0254,3.0388,3.0398,3.0398,3.0398,3.0427,3.0467,3.0506,3.0602,3.0621,3.0554,3.0554,3.0574,3.0606,3.0564,3.0548,3.055,3.0484,3.0506,0.401,0.5334,0.6707,0.8711,0.9942,0.0,1.0624,1.0624,1.0624,1.0624,1.0047,0.9591,0.9713,0.8962,0.8414,0.8534,0.9027,0.9394,0.9394,0.9966,1.0317,1.007,1.004,0.9947,0.9706,1.0244,1.0546,1.0333,1.0887,1.1135,1.0981,1.0965,1.1015,1.1174,1.1674,1.1972,1.1972,1.2613,1.2881,1.2881,1.229,1.1844,1.1599,1.1797,1.2068,1.2265,1.1611,1.1612,1.2119,1.2054,1.2074,1.2258,1.2818,1.2573,1.2077,1.294,1.3191,1.3252,1.3368,1.3846,1.4328,1.3606,1.3961,1.4619,1.4619,1.5656,1.6866,1.6866,1.7413,1.7955,1.7955,1.8549,1.9178,1.9774,1.9608,1.9698,2.0988,2.1252,2.1791,2.3475,2.425,2.4899,2.5903,2.6871,2.761,2.7945,2.829,2.8624,2.8961,2.9386,2.9661,2.9696,3.0076,3.0355,3.0398,3.0398,3.0398,3.0398,3.0467,3.0506,3.0506,3.0619,3.0659,3.0602,3.0506,3.049,3.06,3.0531,3.053,3.0583,3.0516,3.0554,0.3826,0.0,0.7563,0.0,0.9725,1.0624,1.0624,1.0624,1.0624,1.0624,1.0495,1.0611,1.1337,1.0568,1.0035,1.0732,1.0178,0.962,0.962,0.9741,0.9786,0.9746,0.9743,0.9726,0.9686,1.0111,1.0359,1.0314,1.0657,1.112,1.1616,1.1665,1.1981,1.2618,1.272,1.2769,1.2769,1.2827,1.2881,1.2881,1.2779,1.2749,1.2704,1.2712,1.2409,1.1825,1.2097,1.2672,1.3322,1.2993,1.3243,1.3846,1.3247,1.2948,1.2944,1.373,1.403,1.4149,1.481,1.5172,1.523,1.5108,1.5565,1.6192,1.6192,1.7235,1.8388,1.8388,1.8933,1.9527,1.9527,2.0029,2.054,2.064,2.1356,2.2221,2.2981,2.3135,2.351,2.4745,2.5631,2.6235,2.6413,2.7446,2.8272,2.8342,2.8667,2.8929,2.8984,2.9267,2.9513,2.9678,2.9908,3.015,3.0376,3.0398,3.0398,3.0398,3.0467,3.0506,3.0506,3.0574,3.0602,3.0592,3.0641,3.0645,3.0601,3.0532,3.05,3.0516,3.0448,3.0458,0.4392,0.6081,0.7605,0.0,0.9762,1.0624,1.0624,1.0624,1.0624,1.0624,1.0726,1.084,1.0844,1.1154,1.1178,1.0525,1.0328,1.0132,0.9737,1.0016,1.0062,0.9509,0.9764,0.997,0.9792,1.0272,1.0749,1.1104,1.1681,1.2098,1.2398,1.2403,1.2559,1.2881,1.2881,1.2881,1.2881,1.2881,1.2881,1.2881,1.2881,1.306,1.3372,1.306,1.2843,1.2698,1.2453,1.2832,1.3588,1.3405,1.3661,1.4213,1.4332,1.4089,1.379,1.4569,1.4574,1.4328,1.5113,1.5695,1.6036,1.6036,1.6533,1.7141,1.7141,1.7846,1.8715,1.8715,1.9254,1.9901,2.0245,2.0603,2.0993,2.1704,2.2472,2.3308,2.4238,2.4174,2.4283,2.566,2.6472,2.7029,2.7239,2.775,2.8175,2.8359,2.854,2.8803,2.9181,2.9425,2.9652,2.9845,3.0085,3.0267,3.0388,3.0398,3.0417,3.0458,3.0487,3.0535,3.0612,3.0636,3.0665,3.066,3.065,3.0612,3.0544,3.0516,3.0487,3.0448,3.0408,3.0467,0.0,0.0,0.7407,0.8545,0.9668,1.0527,1.0846,1.0744,1.0747,1.1115,1.1343,1.1256,1.0653,1.1387,1.1768,1.0609,1.0442,1.0383,1.0002,1.0271,1.0236,0.968,1.0076,1.0344,1.0091,1.0665,1.1266,1.1765,1.2501,1.2881,1.2881,1.2881,1.2973,1.3104,1.3152,1.3195,1.3339,1.3339,1.3339,1.3339,1.3339,1.361,1.4003,1.3563,1.3516,1.3781,1.2973,1.2949,1.3575,1.3833,1.4091,1.4431,1.5129,1.505,1.4569,1.5172,1.4991,1.4628,1.54,1.6036,1.6544,1.6708,1.7302,1.7901,1.7901,1.8388,1.9038,1.9184,1.9619,2.0194,2.0881,2.1175,2.1554,2.2665,2.3426,2.4205,2.5205,2.5094,2.5204,2.6472,2.7109,2.756,2.7964,2.8175,2.8385,2.8612,2.8715,2.8906,2.9406,2.9607,2.9789,2.9984,3.0173,3.0333,3.0388,3.0417,3.0458,3.0506,3.0535,3.0589,3.0674,3.0725,3.0727,3.0698,3.0675,3.0636,3.0529,3.0531,3.0506,3.0458,3.0458,3.0506,0.4495,0.5746,0.0,0.8119,0.9291,1.0387,1.1516,1.117,1.1052,1.2581,1.2605,1.2249,1.1877,1.1538,1.1584,1.2267,1.0958,1.0066,1.0671,1.0221,1.0058,1.0647,1.0744,1.0787,1.0767,1.1362,1.1765,1.1814,1.2501,1.2881,1.2881,1.2881,1.3152,1.3732,1.3726,1.4055,1.4612,1.4617,1.4617,1.4617,1.4617,1.4606,1.4652,1.4612,1.4628,1.4581,1.3805,1.3479,1.3581,1.4394,1.4739,1.4802,1.5259,1.5352,1.5352,1.5352,1.5352,1.5463,1.6208,1.6487,1.6601,1.7307,1.8064,1.8655,1.8655,1.915,1.9901,2.0497,2.0703,2.0888,2.1479,2.2107,2.2725,2.3332,2.4294,2.5259,2.5852,2.6289,2.6699,2.7161,2.7589,2.7973,2.8316,2.8906,2.9332,2.9342,2.9504,2.9642,2.9678,2.9687,2.9789,2.9984,3.0013,3.0127,3.0376,3.0467,3.0506,3.0506,3.0621,3.0655,3.0617,3.0791,3.0835,3.0698,3.0822,3.0789,3.0594,3.0588,3.0592,3.0592,3.0592,3.0592,0.3928,0.0,0.0,0.7125,0.817,0.9424,1.1088,1.1277,1.1341,1.2429,1.2666,1.2624,1.2238,1.2479,1.2407,1.1575,1.1209,1.1015,1.0817,1.0965,1.1011,1.0813,1.1166,1.1462,1.1462,1.1665,1.1976,1.2456,1.2769,1.2881,1.2881,1.2881,1.3195,1.3768,1.3821,1.4102,1.4698,1.4703,1.4703,1.4703,1.4703,1.492,1.5276,1.488,1.4926,1.5242,1.4556,1.4435,1.4636,1.4187,1.4798,1.6019,1.5274,1.5452,1.6093,1.6093,1.6093,1.6203,1.6973,1.7523,1.7955,1.8226,1.9125,2.0067,2.0067,2.0501,2.1093,2.1287,2.139,2.1534,2.2154,2.2786,2.354,2.4808,2.5591,2.6198,2.6715,2.6978,2.7255,2.7881,2.8112,2.8342,2.8725,2.9119,2.9412,2.9412,2.957,2.9738,2.9877,2.9883,2.9988,3.0232,3.0254,3.0299,3.0388,3.0467,3.0517,3.0561,3.0644,3.0731,3.0792,3.0856,3.0876,3.0825,3.0884,3.0818,3.0659,3.0661,3.0637,3.0599,3.0599,3.0617,0.3227,0.429,0.5434,0.6459,0.7501,0.8824,1.1007,1.1428,1.1596,1.2766,1.2934,1.2856,1.2736,1.3028,1.2884,1.1678,1.1674,1.172,1.1534,1.167,1.172,1.1534,1.1886,1.2132,1.1944,1.193,1.2137,1.2608,1.2837,1.2974,1.2927,1.3111,1.3517,1.414,1.4517,1.492,1.5293,1.5287,1.5287,1.5287,1.5287,1.5511,1.5914,1.5472,1.5511,1.5864,1.5281,1.5062,1.5048,1.4403,1.4975,1.6229,1.5666,1.5925,1.6597,1.6813,1.6872,1.6973,1.7682,1.828,1.8768,1.923,2.0023,2.0845,2.1022,2.1383,2.1751,2.1946,2.2053,2.2239,2.3062,2.3884,2.4799,2.5906,2.6589,2.7097,2.7554,2.7581,2.7669,2.8272,2.846,2.8652,2.9062,2.9386,2.9598,2.9598,2.9782,2.9983,3.0122,3.0127,3.0196,3.0376,3.0398,3.0408,3.0427,3.0506,3.0556,3.0628,3.0721,3.0807,3.0898,3.0898,3.0897,3.0904,3.0904,3.0859,3.0771,3.0771,3.0736,3.0699,3.0699,3.0725,0.0,0.0,0.0,0.6315,0.7226,0.8558,1.1249,1.1567,1.1837,1.369,1.3453,1.3058,1.3457,1.3204,1.2929,1.2973,1.2339,1.2075,1.2759,1.2286,1.208,1.2822,1.2915,1.2743,1.227,1.2212,1.2212,1.2273,1.2766,1.306,1.3041,1.3603,1.4169,1.4748,1.5862,1.6497,1.6497,1.6509,1.6515,1.6515,1.6515,1.6515,1.6515,1.6515,1.6515,1.6472,1.5864,1.5276,1.4783,1.516,1.5307,1.5467,1.6393,1.6777,1.6908,1.7448,1.7633,1.7737,1.8495,1.8768,1.898,2.0383,2.0852,2.0986,2.1568,2.1751,2.1899,2.2543,2.274,2.2995,2.4135,2.5456,2.6497,2.6538,2.723,2.8001,2.8333,2.8156,2.8047,2.8368,2.8646,2.8946,2.9344,2.9738,2.9999,2.9999,3.0232,3.0398,3.0398,3.0398,3.0398,3.0398,3.0398,3.0427,3.0496,3.0564,3.0631,3.0698,3.0832,3.0898,3.0898,3.0898,3.0898,3.0898,3.0898,3.0898,3.0898,3.0898,3.0898,3.0898,3.0898,3.0898,0.2562,0.0,0.0,0.0,0.0,0.0,0.997,1.0825,1.1418,1.2677,1.3147,1.3433,1.3675,1.3635,1.3689,1.4113,1.3314,1.2556,1.2404,1.2522,1.2662,1.2881,1.2956,1.2925,1.2802,1.2782,1.2979,1.3382,1.3195,1.3232,1.3641,1.3851,1.4041,1.421,1.5344,1.5925,1.5925,1.6321,1.6515,1.6515,1.6515,1.6515,1.6515,1.6515,1.6515,1.6479,1.6331,1.6151,1.5938,1.5165,1.5632,1.6805,1.6487,1.6843,1.7687,1.8201,1.8388,1.8495,1.9261,1.9825,2.0276,2.069,2.1417,2.2221,2.236,2.2718,2.3201,2.3756,2.3926,2.4168,2.5251,2.604,2.6589,2.6982,2.7683,2.8341,2.8621,2.8856,2.9006,2.9113,2.929,2.9495,2.9598,2.9829,2.9999,2.9999,3.0232,3.0398,3.0398,3.0398,3.0398,3.0398,3.0448,3.0487,3.0506,3.0612,3.0679,3.0698,3.0832,3.0898,3.0898,3.0898,3.0898,3.0898,3.0898,3.0898,3.0898,3.0898,3.0898,3.0898,3.0898,3.0898,0.2314,0.3617,0.5042,0.5793,0.0,0.0,0.9853,1.1053,1.2017,1.2881,1.3691,1.4231,1.4188,1.4195,1.4223,1.4435,1.3989,1.3564,1.3294,1.3492,1.3658,1.3658,1.3512,1.3318,1.3114,1.2866,1.2995,1.3574,1.3314,1.3369,1.3959,1.4023,1.4061,1.4061,1.4902,1.5461,1.5693,1.6013,1.6289,1.6515,1.6515,1.6515,1.6515,1.6515,1.6515,1.6515,1.6515,1.6515,1.6429,1.5744,1.607,1.7055,1.7045,1.742,1.8128,1.8876,1.9353,1.9658,2.0086,2.0633,2.121,2.1506,2.2246,2.3062,2.3325,2.3806,2.4348,2.4664,2.5011,2.5456,2.6267,2.6873,2.739,2.783,2.8382,2.8879,2.911,2.9438,2.9626,2.9542,2.9696,2.9838,2.9838,3.0018,3.0173,3.0173,3.0299,3.0398,3.0398,3.0398,3.0408,3.0448,3.0487,3.0525,3.0583,3.066,3.0722,3.0778,3.0858,3.0898,3.0898,3.0853,3.0818,3.0818,3.0821,3.0821,3.0818,3.0818,3.0802,3.0782,3.0799,3.0798,0.198,0.3534,0.5333,0.6129,0.7182,0.0,1.0164,1.1648,1.2791,1.3382,1.431,1.4904,1.4665,1.4631,1.4535,1.4235,1.4528,1.4761,1.4671,1.467,1.4703,1.4703,1.4272,1.3845,1.3437,1.2941,1.2896,1.3434,1.3547,1.3746,1.4158,1.4151,1.4162,1.4128,1.4669,1.5158,1.5659,1.5722,1.6033,1.6585,1.6585,1.6617,1.6674,1.6674,1.6674,1.6674,1.6674,1.6674,1.6674,1.6674,1.6595,1.6622,1.7735,1.8195,1.8329,1.9478,2.0301,2.0802,2.0894,2.13,2.1899,2.2582,2.3143,2.3711,2.4333,2.4824,2.5213,2.5311,2.598,2.6736,2.709,2.7812,2.8511,2.8745,2.9123,2.9484,2.9696,2.9867,2.9954,2.9815,2.9918,3.0052,3.0052,3.0232,3.0398,3.0398,3.0408,3.0408,3.0408,3.0417,3.0458,3.0506,3.0525,3.0573,3.0689,3.0718,3.0766,3.0888,3.0898,3.0898,3.0902,3.0763,3.0698,3.0698,3.0696,3.0686,3.0679,3.0689,3.0665,3.0601,3.0664,3.0664,0.201,0.3588,0.5379,0.592,0.7321,0.0,0.9011,1.0454,1.1668,1.1772,1.2353,1.3152,1.3969,1.4128,1.4257,1.4679,1.5155,1.5199,1.4346,1.4508,1.4703,1.4703,1.4675,1.4597,1.4498,1.4456,1.4648,1.519,1.5222,1.5049,1.4608,1.4591,1.4549,1.4436,1.4924,1.5254,1.5369,1.5811,1.6342,1.6997,1.6997,1.7287,1.7787,1.7787,1.7787,1.7787,1.7787,1.7787,1.7787,1.7787,1.7271,1.6627,1.7732,1.8196,1.8421,2.0027,2.0676,2.0894,2.1342,2.196,2.2582,2.3172,2.3726,2.4333,2.4894,2.5136,2.5349,2.6042,2.6922,2.7643,2.771,2.8235,2.8731,2.8783,2.9232,2.9696,2.9908,2.996,3.0052,3.0228,3.0299,3.0311,3.0311,3.0376,3.0398,3.0398,3.0458,3.0487,3.0487,3.0535,3.0573,3.0583,3.0631,3.0669,3.0698,3.0794,3.087,3.0898,3.0898,3.0901,3.0906,3.0776,3.0698,3.0698,3.0644,3.0593,3.0544,3.065,3.0675,3.0605,3.0608,3.061,0.2137,0.4004,0.6072,0.6448,0.8008,0.0,0.0,1.1192,1.2525,1.3245,1.3492,1.3947,1.5041,1.4977,1.4839,1.5159,1.5886,1.6101,1.5208,1.5393,1.5808,1.6323,1.5957,1.5649,1.5649,1.5691,1.5814,1.6075,1.636,1.6091,1.5161,1.51,1.4923,1.4522,1.4766,1.5029,1.5298,1.5565,1.601,1.6605,1.6944,1.7284,1.7618,1.7968,1.8099,1.8099,1.8099,1.8099,1.8138,1.8338,1.7992,1.7365,1.8207,1.8759,1.9172,2.0354,2.1181,2.1833,2.2388,2.3018,2.3628,2.4171,2.4713,2.5281,2.5717,2.6198,2.6655,2.727,2.778,2.8237,2.8554,2.8879,2.9147,2.9344,2.9638,2.9908,3.0146,3.0196,3.0241,3.0415,3.0458,3.0448,3.0408,3.0398,3.0408,3.0448,3.0487,3.0504,3.0548,3.0586,3.0617,3.0643,3.0649,3.0693,3.0791,3.0801,3.0802,3.0802,3.08,3.0791,3.075,3.0652,3.0621,3.065,3.0646,3.0627,3.0602,3.0669,3.0631,3.0506,3.0573,3.0584,0.2584,0.4548,0.6616,0.7057,0.8771,1.0499,0.0,0.0,0.0,1.4818,1.4905,1.4979,1.5853,1.5659,1.5407,1.5407,1.6218,1.6721,1.6362,1.6437,1.6847,1.7637,1.7045,1.6636,1.6636,1.6612,1.6661,1.6786,1.7098,1.6882,1.6005,1.5837,1.5494,1.4949,1.4815,1.4959,1.5384,1.5398,1.5665,1.6236,1.6884,1.7269,1.7446,1.8193,1.8475,1.8419,1.8584,1.8615,1.8576,1.9023,1.8986,1.8696,1.903,1.9446,1.9956,2.0882,2.1932,2.3002,2.3697,2.4281,2.4854,2.5376,2.5922,2.6429,2.6742,2.7399,2.813,2.8458,2.8591,2.8777,2.9325,2.9484,2.9607,2.9914,3.0037,3.0136,3.0345,3.0408,3.0448,3.0496,3.0513,3.0506,3.0448,3.0448,3.0467,3.0516,3.0535,3.0566,3.061,3.0641,3.0678,3.0732,3.0672,3.0684,3.0853,3.0753,3.069,3.0694,3.0698,3.0693,3.0654,3.0578,3.0558,3.0594,3.0653,3.0671,3.0659,3.0659,3.0579,3.0417,3.0535,3.0544,0.397,0.5186,0.6392,0.7114,0.9132,1.0963,1.0793,0.0,1.3719,1.3598,0.0,1.4105,1.4186,0.0,0.0,1.5058,1.5563,1.6203,1.6879,1.6804,1.6584,1.6359,1.6732,1.7013,1.7013,1.702,1.7281,1.7857,1.7419,1.7251,1.7598,1.7063,1.6651,1.6461,1.5943,1.5676,1.575,1.575,1.6047,1.6629,1.7312,1.7952,1.853,1.9596,1.9872,1.9551,2.0348,2.0426,2.0093,2.0567,2.0707,2.0634,2.0196,1.9894,1.9908,2.2046,2.3167,2.3777,2.5094,2.5776,2.6168,2.6715,2.7235,2.773,2.7942,2.8325,2.8741,2.8956,2.9287,2.956,2.9643,2.9806,2.9945,2.9999,3.0173,3.0367,3.0388,3.0458,3.0496,3.0506,3.0548,3.0593,3.0581,3.0583,3.0583,3.0592,3.0641,3.0681,3.0687,3.0794,3.0866,3.0883,3.0757,3.0702,3.0721,3.0654,3.0642,3.0702,3.0698,3.075,3.0861,3.0741,3.0645,3.0604,3.0614,3.0576,3.0514,3.0514,3.0511,3.0496,3.0506,3.0487,0.4316,0.6254,0.8136,0.8022,1.0057,1.2021,1.1854,1.2829,1.3993,1.4795,0.0,0.0,0.0,0.0,0.0,0.0,1.6247,1.6945,1.6936,1.715,1.7417,1.7622,1.7622,1.7812,1.8265,1.8042,1.8296,1.9302,1.8964,1.8834,1.9113,1.8845,1.8308,1.7431,1.7155,1.6811,1.6375,1.6375,1.6515,1.6747,1.724,1.7938,1.8843,1.9471,2.004,2.0473,2.0837,2.0991,2.0998,2.1251,2.1344,2.1326,2.1569,2.1471,2.1416,2.2901,2.3899,2.4729,2.6215,2.6809,2.7033,2.7754,2.8259,2.8621,2.8691,2.8996,2.9343,2.943,2.9568,2.9731,2.9845,2.9939,3.0047,3.0234,3.0378,3.0477,3.0516,3.0544,3.0573,3.0612,3.0644,3.0684,3.0758,3.0679,3.0616,3.0645,3.0679,3.07,3.0701,3.075,3.0779,3.0781,3.07,3.0689,3.0804,3.0712,3.0675,3.07,3.0656,3.0669,3.0718,3.0711,3.0669,3.0598,3.0646,3.0622,3.0558,3.0558,3.0536,3.0506,3.0506,3.0487,0.545,0.7644,0.9552,0.8752,1.0665,1.2623,1.2454,1.3362,1.4558,1.568,1.5602,0.0,0.0,0.0,1.6099,1.615,0.0,1.7671,1.7337,1.7634,1.8003,1.8314,1.8179,1.8342,1.9116,1.8613,1.8776,2.0073,1.9846,1.9816,2.0246,2.0085,1.9538,1.8503,1.8094,1.7653,1.7103,1.6911,1.6789,1.6805,1.7444,1.815,1.8919,1.9678,2.0369,2.1031,2.1344,2.1546,2.1682,2.199,2.2103,2.2099,2.2742,2.3109,2.3331,2.3947,2.4731,2.5689,2.7254,2.7903,2.813,2.8716,2.9063,2.9279,2.9317,2.9548,2.9806,2.9864,2.988,2.9937,3.0061,3.0122,3.0198,3.0432,3.0505,3.0539,3.0597,3.0611,3.0638,3.0674,3.0722,3.0771,3.0828,3.0749,3.0696,3.0754,3.0714,3.071,3.0754,3.0721,3.0714,3.0751,3.0686,3.0684,3.081,3.0732,3.0682,3.07,3.069,3.0667,3.063,3.0664,3.0666,3.0607,3.0658,3.0635,3.0571,3.0567,3.0544,3.0477,3.0496,3.0496,0.8193,0.9344,0.994,0.8952,1.056,1.229,1.1939,1.3738,1.5464,1.5275,1.6374,1.7161,1.6348,1.6767,1.7335,1.7594,1.7656,0.0,0.0,1.8278,1.7881,1.731,1.7806,1.8433,1.9047,1.831,1.8389,1.9819,1.9305,1.9519,2.0895,2.035,1.9996,1.9939,1.8607,1.7877,1.7853,1.7151,1.6789,1.6813,1.8199,1.8863,1.8956,2.0722,2.1352,2.1055,2.216,2.2433,2.2154,2.3067,2.3442,2.3455,2.3677,2.4423,2.5393,2.5425,2.5862,2.6688,2.8223,2.9133,2.9632,2.966,2.966,2.9721,2.9905,2.9975,3.0037,3.0299,3.0376,3.0376,3.0398,3.0436,3.0484,3.0506,3.0548,3.0594,3.0594,3.0645,3.0675,3.0622,3.0759,3.0849,3.0735,3.081,3.0888,3.0888,3.0778,3.0757,3.0883,3.0778,3.0748,3.0877,3.0775,3.0671,3.0603,3.0603,3.0624,3.0702,3.0818,3.0833,3.0706,3.07,3.0665,3.0603,3.0598,3.0564,3.0498,3.0496,3.0477,3.0398,3.0477,3.0477,0.9632,1.1517,1.2839,1.1825,1.2768,1.3953,1.3832,1.486,1.5881,1.6017,1.6962,1.757,1.6983,1.7253,1.7648,1.7907,1.8151,1.8364,0.0,1.8652,1.8616,1.8419,1.859,1.8816,1.902,1.8659,1.9084,2.0758,2.0598,2.0908,2.2046,2.2191,2.1807,2.0805,2.0325,1.9826,1.9283,1.9051,1.9035,1.9255,1.9496,2.0128,2.1023,2.1413,2.1919,2.247,2.3003,2.3271,2.3373,2.3594,2.384,2.4044,2.4097,2.4369,2.4849,2.5953,2.6969,2.7986,2.9181,2.9839,3.0165,3.0165,3.0165,3.0178,3.0241,3.0267,3.0289,3.0367,3.0427,3.0477,3.0477,3.0525,3.0583,3.0621,3.0652,3.0689,3.0778,3.0817,3.0834,3.08,3.0855,3.0888,3.0839,3.0869,3.0898,3.0898,3.0862,3.0818,3.0766,3.0723,3.0717,3.0756,3.073,3.0733,3.0791,3.0724,3.0655,3.0645,3.0723,3.0733,3.0642,3.0673,3.0648,3.054,3.0523,3.0506,3.0427,3.0427,3.0417,3.0398,3.0417,3.0417,1.0815,1.2579,1.3899,1.3349,1.4117,1.5037,1.5168,1.6021,1.6869,1.7093,1.7708,1.8277,1.8608,1.8306,1.822,1.8844,1.8841,1.8762,0.0,1.9049,1.9214,1.9214,1.9082,1.9111,1.9403,1.8957,1.9608,2.1888,2.1733,2.2184,0.0,2.403,2.3617,2.2384,2.2074,2.1556,2.0756,2.0489,2.0451,2.0688,2.0723,2.1231,2.2109,2.2233,2.265,2.3334,2.3649,2.3912,2.4146,2.421,2.4374,2.4597,2.4637,2.4845,2.5271,2.6528,2.7907,2.9233,2.9961,3.0321,3.0477,3.0477,3.0477,3.0477,3.0477,3.0477,3.0477,3.0477,3.0506,3.0539,3.0539,3.0575,3.0612,3.0651,3.0652,3.0691,3.0809,3.083,3.083,3.083,3.087,3.0882,3.0808,3.0807,3.0827,3.0827,3.0829,3.0804,3.071,3.0679,3.0696,3.0752,3.0704,3.0695,3.0791,3.0699,3.0613,3.06,3.0646,3.0628,3.0568,3.0606,3.0583,3.0477,3.0467,3.0448,3.0398,3.0398,3.0398,3.0398,3.0398,3.0398]},{"header":{"parameterUnit":"m.s-1","parameterCategory":1,"la1":30.6,"la2":29.2853,"lo1":-89.7004,"lo2":-87.6739,"dy":0.0162,"dx":0.0183,"nx":112,"ny":82,"refTime":"2024-09-14T12:00:00:Z","depth":0,"parameterNumber":3,"parameterNumberName":"V-component_of_WINDS"},"data":[0.0,0.0,0.0,0.0,0.0,0.0,0.0,0.0,0.0,0.0,0.0,0.0,0.0,0.0,0.0,0.0,0.0,0.0,0.0,0.0,0.0,0.0,0.0,0.0,0.0,0.0,0.0,0.0,0.0,0.0,0.0,0.0,0.0,0.0,0.0,0.0,0.0,0.0,0.0,0.0,0.0,0.0,0.0,0.0,0.0,0.0,0.0,0.0,0.0,0.0,0.0,0.0,0.0,0.0,0.0,0.0,0.0,0.0,0.0,0.0,0.0,0.0,0.0,0.0,0.0,0.0,0.0,0.0,0.0,0.0,0.0,0.0,0.0,0.0,0.0,0.0,0.0,0.0,0.0,0.0,0.0,0.0,0.0,0.0,0.0,0.0,0.0,0.0,0.0,0.0,-0.5009,-0.575,-0.8082,-0.9806,-1.0363,-1.0861,-1.0538,-0.9172,0.0,0.0,0.0,0.0,0.0,0.0,0.0,0.0,0.0,0.0,0.0,0.0,0.0,0.0,0.0,0.0,0.0,0.0,0.0,0.0,0.0,0.0,0.0,0.0,0.0,0.0,0.0,0.0,0.0,0.0,0.0,0.0,0.0,0.0,0.0,0.0,0.0,0.0,0.0,0.0,0.0,0.0,0.0,0.0,0.0,0.0,0.0,0.0,0.0,0.0,0.0,0.0,0.0,0.0,0.0,0.0,0.0,0.0,0.0,0.0,0.0,0.0,0.0,0.0,0.0,0.0,0.0,0.0,0.0,0.0,0.0,0.0,0.0,0.0,0.0,0.0,0.0,0.0,0.0,0.0,0.0,0.0,0.0,0.0,0.0,0.0,0.0,0.0,0.0,0.0,0.0,0.0,0.0,0.0,0.0,0.0,0.0,0.0,0.0,0.0,0.0,0.0,0.0,0.0,-0.6876,-1.0217,-1.0229,-1.0394,-1.1303,-1.106,-1.057,-0.9946,0.0,0.0,0.0,0.0,0.0,0.0,0.0,0.0,0.0,0.0,0.0,0.0,0.0,0.0,0.0,0.0,0.0,0.0,0.0,0.0,0.0,0.0,0.0,0.0,0.0,0.0,0.0,0.0,0.0,0.0,0.0,0.0,0.0,0.0,0.0,0.0,0.0,0.0,0.0,0.0,0.0,0.0,0.0,0.0,0.0,0.0,0.0,0.0,0.0,0.0,0.0,0.0,0.0,0.0,0.0,0.0,0.0,0.0,0.0,0.0,0.0,0.0,0.0,0.0,0.0,0.0,0.0,0.0,0.0,0.0,0.0,0.0,0.0,0.0,0.0,0.0,0.0,0.0,0.0,0.0,0.0,0.0,0.0,0.0,0.0,0.0,0.0,0.0,0.0,0.0,0.0,0.0,0.0,0.0,0.0,0.0,0.0,0.0,0.0,0.0,0.0,0.0,0.0,-0.6275,-0.8077,-1.0635,-1.0481,-1.0611,-1.1586,-1.1707,-1.1519,-1.1,-1.0877,0.0,0.0,0.0,0.0,0.0,0.0,0.0,0.0,0.0,0.0,0.0,0.0,0.0,0.0,0.0,0.0,0.0,0.0,0.0,0.0,0.0,0.0,0.0,0.0,0.0,0.0,0.0,0.0,0.0,0.0,0.0,0.0,0.0,0.0,0.0,0.0,0.0,0.0,0.0,0.0,0.0,0.0,0.0,0.0,0.0,0.0,0.0,0.0,0.0,0.0,0.0,0.0,0.0,0.0,0.0,0.0,0.0,0.0,0.0,0.0,0.0,0.0,0.0,0.0,0.0,0.0,0.0,0.0,0.0,0.0,0.0,0.0,0.0,0.0,0.0,0.0,0.0,0.0,0.0,0.0,0.0,0.0,0.0,0.0,0.0,0.0,0.0,0.0,0.0,0.0,0.0,0.0,0.0,0.0,0.0,0.0,0.0,0.0,0.0,0.0,0.0,0.0,-0.8538,-0.9279,-1.035,-1.0582,-1.0946,-1.1641,-1.2077,-1.2125,-1.1733,-1.1499,0.0,0.0,0.0,0.0,0.0,0.0,0.0,0.0,0.0,0.0,0.0,0.0,0.0,0.0,0.0,0.0,0.0,0.0,0.0,0.0,0.0,0.0,0.0,0.0,0.0,0.0,0.0,0.0,0.0,0.0,0.0,0.0,0.0,0.0,0.0,0.0,0.0,0.0,0.0,0.0,0.0,0.0,0.0,0.0,0.0,0.0,0.0,0.0,0.0,0.0,0.0,0.0,0.0,0.0,0.0,0.0,0.0,0.0,0.0,0.0,0.0,0.0,0.0,0.0,0.0,0.0,0.0,0.0,0.0,0.0,0.0,0.0,0.0,0.0,0.0,0.0,0.0,0.0,0.0,0.0,0.0,0.0,0.0,0.0,0.0,0.0,0.0,0.0,0.0,0.0,0.0,0.0,0.0,0.0,0.0,0.0,0.0,0.0,0.0,0.0,0.0,0.0,-0.9286,-1.0821,-1.0938,-1.1399,-1.1712,-1.1788,-1.1699,-1.1704,-1.1793,-1.0815,0.0,0.0,0.0,0.0,0.0,0.0,0.0,0.0,0.0,0.0,0.0,0.0,0.0,0.0,0.0,0.0,0.0,0.0,0.0,0.0,0.0,0.0,0.0,0.0,0.0,0.0,0.0,0.0,0.0,0.0,0.0,0.0,0.0,0.0,0.0,0.0,0.0,0.0,0.0,0.0,0.0,0.0,0.0,0.0,0.0,0.0,0.0,0.0,0.0,0.0,0.0,0.0,0.0,0.0,0.0,0.0,0.0,0.0,0.0,0.0,0.0,0.0,0.0,0.0,0.0,0.0,0.0,0.0,0.0,0.0,0.0,0.0,0.0,0.0,0.0,0.0,0.0,0.0,0.0,0.0,0.0,0.0,0.0,0.0,0.0,0.0,0.0,0.0,0.0,0.0,0.0,0.0,0.0,0.0,0.0,0.0,0.0,0.0,0.0,0.0,0.0,0.0,-0.8488,-0.9956,-1.0509,-1.0731,-1.1105,-1.1743,-1.2054,-1.2076,-1.1745,0.0,0.0,0.0,0.0,0.0,0.0,0.0,0.0,0.0,0.0,0.0,0.0,0.0,0.0,0.0,0.0,0.0,0.0,0.0,0.0,0.0,0.0,0.0,0.0,0.0,0.0,0.0,0.0,0.0,0.0,0.0,0.0,0.0,0.0,0.0,0.0,0.0,0.0,0.0,0.0,0.0,0.0,0.0,0.0,0.0,0.0,0.0,0.0,0.0,0.0,0.0,0.0,0.0,0.0,0.0,0.0,0.0,0.0,0.0,0.0,0.0,0.0,0.0,0.0,0.0,0.0,0.0,0.0,0.0,0.0,0.0,0.0,0.0,0.0,0.0,0.0,0.0,0.0,0.0,0.0,0.0,0.0,0.0,0.0,0.0,0.0,0.0,0.0,0.0,0.0,0.0,0.0,0.0,0.0,0.0,0.0,0.0,0.0,0.0,0.0,0.0,0.0,-0.6854,-0.8657,-1.0114,-1.0695,-1.1024,-1.1505,-1.2174,-1.2421,-1.2378,-1.1944,0.0,0.0,0.0,0.0,0.0,0.0,0.0,0.0,0.0,0.0,0.0,0.0,0.0,0.0,0.0,0.0,0.0,0.0,0.0,0.0,0.0,0.0,0.0,0.0,0.0,0.0,0.0,0.0,0.0,0.0,0.0,0.0,0.0,0.0,0.0,0.0,0.0,0.0,0.0,0.0,0.0,0.0,0.0,0.0,0.0,0.0,0.0,0.0,0.0,0.0,0.0,0.0,0.0,0.0,0.0,0.0,0.0,0.0,0.0,0.0,0.0,0.0,0.0,0.0,0.0,0.0,0.0,0.0,0.0,0.0,0.0,0.0,0.0,0.0,0.0,0.0,0.0,0.0,0.0,0.0,0.0,0.0,0.0,0.0,0.0,0.0,0.0,0.0,0.0,0.0,0.0,0.0,0.0,0.0,0.0,0.0,0.0,0.0,0.0,0.0,0.0,0.0,-0.7692,-1.0144,-1.1774,-1.1811,-1.2615,-1.3198,-1.3198,-1.2703,-1.2416,0.0,0.0,0.0,0.0,0.0,0.0,0.0,0.0,0.0,0.0,0.0,0.0,0.0,0.0,0.0,0.0,0.0,0.0,0.0,0.0,0.0,0.0,0.0,0.0,0.0,0.0,0.0,0.0,0.0,0.0,0.0,0.0,0.0,0.0,0.0,0.0,0.0,0.0,0.0,0.0,0.0,0.0,0.0,0.0,0.0,0.0,0.0,0.0,0.0,0.0,0.0,0.0,0.0,0.0,0.0,0.0,0.0,0.0,0.0,0.0,0.0,0.0,0.0,0.0,0.0,0.0,0.0,0.0,0.0,0.0,0.0,0.0,0.0,0.0,0.0,0.0,0.0,0.0,0.0,0.0,0.0,0.0,0.0,0.0,0.0,0.0,0.0,0.0,0.0,0.0,0.0,0.0,0.0,0.0,0.0,0.0,0.0,0.0,0.0,0.0,0.0,0.0,0.0,-0.7826,-0.985,-1.1394,-1.1774,-1.2066,-1.236,-1.2685,-1.254,-1.2277,-1.1846,0.0,0.0,0.0,0.0,0.0,0.0,0.0,0.0,0.0,0.0,0.0,0.0,0.0,0.0,0.0,0.0,0.0,0.0,0.0,0.0,0.0,0.0,0.0,0.0,0.0,0.0,0.0,0.0,0.0,0.0,0.0,0.0,0.0,0.0,0.0,0.0,0.0,0.0,0.0,0.0,0.0,0.0,0.0,0.0,0.0,0.0,0.0,0.0,0.0,0.0,0.0,0.0,0.0,0.0,0.0,0.0,0.0,0.0,0.0,0.0,0.0,0.0,0.0,0.0,0.0,0.0,0.0,0.0,0.0,0.0,0.0,0.0,0.0,0.0,0.0,0.0,0.0,0.0,0.0,0.0,0.0,0.0,0.0,0.0,0.0,0.0,0.0,0.0,0.0,0.0,0.0,0.0,0.0,0.0,0.0,0.0,0.0,0.0,0.0,0.0,0.0,0.0,-0.833,-1.0241,-1.1721,-1.2029,-1.2252,-1.2467,-1.2762,-1.2797,-1.254,-1.1971,0.0,0.0,0.0,0.0,0.0,0.0,0.0,0.0,0.0,0.0,0.0,0.0,0.0,0.0,0.0,0.0,0.0,0.0,0.0,0.0,0.0,0.0,0.0,0.0,0.0,0.0,0.0,0.0,0.0,0.0,0.0,0.0,0.0,0.0,0.0,0.0,0.0,0.0,0.0,0.0,0.0,0.0,0.0,0.0,0.0,0.0,0.0,0.0,0.0,0.0,0.0,0.0,0.0,0.0,0.0,0.0,0.0,0.0,0.0,0.0,0.0,0.0,0.0,0.0,0.0,0.0,0.0,0.0,0.0,0.0,0.0,0.0,0.0,0.0,0.0,0.0,0.0,0.0,0.0,0.0,0.0,0.0,0.0,0.0,0.0,0.0,0.0,0.0,0.0,0.0,0.0,0.0,0.0,0.0,0.0,0.0,0.0,0.0,0.0,0.0,0.0,0.0,-0.9125,-1.1123,-1.2508,-1.2544,-1.2943,-1.3198,-1.3198,-1.3198,-1.296,-1.2441,0.0,0.0,0.0,0.0,0.0,0.0,0.0,0.0,0.0,0.0,0.0,0.0,0.0,0.0,0.0,0.0,0.0,0.0,0.0,0.0,0.0,0.0,0.0,0.0,0.0,0.0,0.0,0.0,0.0,0.0,0.0,0.0,0.0,0.0,0.0,0.0,0.0,0.0,0.0,0.0,0.0,0.0,0.0,0.0,0.0,0.0,0.0,0.0,0.0,0.0,0.0,0.0,0.0,0.0,0.0,0.0,0.0,0.0,0.0,0.0,-0.0515,-0.0395,0.0,0.0,0.0,0.0,0.0,0.0,0.0,0.0,0.0,0.0,0.0,0.0,0.0,0.0,0.0,0.0,0.0,0.0,0.0,0.0,0.0,0.0,0.0,0.0,0.0,0.0,0.0,0.0,0.0,0.0,0.0,0.0,0.0,0.0,0.0,0.0,0.0,0.0,0.0,0.0,-1.0063,-1.1553,-1.265,-1.3012,-1.3123,-1.3198,-1.3198,-1.3198,-1.296,-1.2441,-1.2303,0.0,0.0,0.0,0.0,0.0,0.0,0.0,0.0,0.0,0.0,0.0,0.0,0.0,0.0,0.0,0.0,0.0,0.0,0.0,0.0,0.0,0.0,0.0,0.0,0.0,0.0,0.0,0.0,0.0,0.0,0.0,0.0,0.0,0.0,0.0,0.0,0.0,0.0,0.0,0.0,0.0,0.0,0.0,0.0,0.0,0.0,0.0,0.0,0.0,0.0,0.0,0.0,0.0,0.0,0.0,0.0,0.0,0.0,0.0,-0.1063,-0.1195,0.0,0.0,0.0,0.0,0.0,0.0,0.0,0.0,0.0,0.0,0.0,0.0,0.0,0.0,0.0,0.0,0.0,0.0,0.0,0.0,0.0,0.0,0.0,0.0,0.0,0.0,0.0,0.0,0.0,0.0,0.0,0.0,0.0,0.0,0.0,0.0,0.0,0.0,0.0,0.0,-1.0309,-1.1827,-1.2943,-1.3163,-1.3198,-1.3198,-1.3198,-1.3198,-1.3079,-1.2791,-1.2522,0.0,0.0,0.0,0.0,0.0,0.0,0.0,0.0,0.0,0.0,0.0,0.0,0.0,0.0,0.0,0.0,0.0,0.0,0.0,0.0,0.0,0.0,0.0,0.0,0.0,0.0,0.0,0.0,0.0,0.0,0.0,0.0,0.0,0.0,0.0,0.0,0.0,0.0,0.0,0.0,0.0,0.0,0.0,0.0,0.0,0.0,0.0,0.0,0.0,0.0,0.0,0.0,0.0,-0.0247,-0.0251,-0.0251,-0.0251,-0.0563,-0.1184,-0.1598,-0.204,-0.2474,-0.1964,0.0,0.0,0.0,0.0,0.0,0.0,0.0,0.0,0.0,0.0,0.0,0.0,0.0,0.0,0.0,0.0,0.0,0.0,0.0,0.0,0.0,0.0,0.0,0.0,-0.6213,-0.7567,-0.6269,0.0,0.0,0.0,0.0,0.0,0.0,0.0,0.0,0.0,0.0,0.0,-1.0466,-1.2025,-1.3123,-1.3198,-1.3198,-1.3198,-1.3198,-1.3198,-1.3198,-1.3198,-1.2893,-1.2659,0.0,0.0,0.0,0.0,0.0,0.0,0.0,0.0,0.0,0.0,0.0,0.0,0.0,0.0,0.0,0.0,0.0,0.0,0.0,0.0,0.0,0.0,0.0,0.0,0.0,0.0,0.0,0.0,0.0,0.0,0.0,0.0,0.0047,0.0,0.0,0.0,0.0,0.0,0.0,0.0,0.0,0.0,0.0,0.0,0.0,0.0,0.0,-0.0061,-0.0183,-0.0816,-0.1146,-0.1146,-0.1113,-0.1127,-0.1127,-0.1127,-0.1194,-0.1391,-0.2955,0.0,-0.2569,-0.3359,0.0,0.0,0.0,0.0,0.0,0.0,0.0,0.0,0.0,0.0,0.0,0.0,0.0,0.0,0.0,0.0,0.0,0.0,0.0,0.0,0.0,0.0,-0.6477,-0.6371,-0.7154,-0.8108,0.0,-0.7391,-0.5932,-0.5035,-0.6635,-0.7889,0.0,0.0,0.0,0.0,0.0,0.0,-1.1437,-1.2164,-1.2762,-1.3163,-1.3198,-1.3198,-1.3198,-1.3198,-1.3198,-1.3198,-1.3615,-1.3684,-1.3196,-1.3283,0.0,0.0,0.0,0.0,0.0,0.0,0.0,0.0,0.0,0.0,0.0,0.0,0.0,0.0,0.0,0.0,0.0,0.0,0.0,0.0,0.0,0.0,0.0,0.0,0.0,0.0,0.0,0.0,0.0,0.105,0.0403,0.0053,0.0,-0.0229,0.0,0.0,0.0,0.0,0.0,0.0,0.0,0.0,0.0,-0.0695,-0.0257,-0.0259,-0.0712,-0.0656,-0.0595,-0.0595,-0.0602,-0.0538,-0.0538,-0.0538,-0.0538,-0.0672,-0.2478,-0.3037,-0.2709,-0.3595,-0.3564,-0.2766,0.0,0.0,0.0,0.0,-0.2058,-0.2348,-0.4072,-0.4604,-0.4599,-0.5002,0.0,0.0,0.0,0.0,0.0,0.0,0.0,-0.29,0.0,0.0,-0.6067,-0.6561,-0.7372,-0.8094,-0.8484,-0.8213,-0.7806,-0.7321,-0.8229,-0.8735,-0.741,-0.8597,0.0,0.0,0.0,-1.0496,-1.118,-1.1994,-1.2579,-1.2797,-1.3047,-1.3198,-1.3198,-1.3198,-1.3198,-1.3198,-1.3783,-1.4006,-1.3742,-1.3817,-1.3617,0.0,0.0,0.0,0.0,0.0,0.0,0.0,0.0,0.0,0.0,0.0,0.0,0.0,0.0,0.0,0.0,0.0,0.0,0.0,0.0,0.0,0.0,0.0,0.0,0.0,0.0,0.0,0.0,0.1502,0.1079,0.0404,0.0303,0.0184,0.0,0.0,0.0,0.0,0.0,0.0,0.0,0.0,-0.0326,-0.0977,-0.0333,-0.0337,-0.0939,-0.0337,0.0,0.0,0.0,0.0,0.0,-0.0202,-0.0337,-0.0404,-0.201,-0.2678,-0.2806,-0.3925,-0.4215,-0.3947,-0.3295,-0.2892,-0.271,-0.296,-0.3008,-0.3225,-0.4801,-0.5327,-0.5407,-0.5856,-0.5534,-0.4838,-0.3933,0.0,0.0,0.0,0.0,-0.3223,-0.4128,-0.4853,-0.5519,-0.6233,-0.7048,-0.7697,-0.7959,-0.8484,-0.9015,-0.9075,-0.9588,-0.9539,-0.8026,-0.9389,0.0,-0.897,-0.9977,-1.0918,-1.1089,-1.1817,-1.2355,-1.2484,-1.2797,-1.3144,-1.3392,-1.3279,-1.3261,-1.3433,-1.3858,-1.4148,-1.4293,-1.428,-1.4313,-1.4347,0.0,0.0,0.0,0.0,0.0,0.0,0.0,0.0,0.0,0.0,0.0,0.0,0.0,0.0,0.0,0.0,0.0,0.0,0.0,0.0,0.0,0.0,0.0,0.0,0.0,0.0,0.0,0.0,0.0,0.1334,0.1219,0.0,0.0,0.0,0.0,-0.0981,-0.0379,0.0,0.0,0.0,0.0,-0.0067,0.0,0.0,-0.0067,0.0,0.0,0.0,0.0,0.0,0.0,-0.0873,-0.1207,-0.1274,-0.2276,-0.2678,-0.2811,-0.4612,-0.4812,-0.4006,-0.3934,-0.3399,-0.28,-0.3604,-0.3936,-0.4067,-0.5085,-0.5422,-0.5415,-0.5406,-0.4843,-0.4027,-0.4015,-0.3379,0.0,0.0,-0.3916,-0.4134,-0.5079,-0.5348,-0.5416,-0.5425,-0.6141,-0.6979,-0.7829,-0.8027,-0.8285,-0.9122,-1.0202,-1.0638,-0.9348,0.0,-1.0545,-0.9772,-1.0302,-1.1008,-1.1602,-1.1696,-1.1937,-1.2448,-1.2502,-1.2962,-1.3961,-1.3534,-1.3452,-1.4016,-1.4066,-1.4324,-1.4846,-1.4782,-1.4803,-1.4959,-1.3712,0.0,0.0,0.0,0.0,0.0,0.0,0.0,0.0,0.0,0.0,0.0,0.0,0.0,0.0,0.0,0.0,0.0,0.0,0.0,0.0,0.0,0.0,0.0,0.0,0.0,0.0,0.0,0.0,0.23,0.1698,0.0,0.0516,0.0195,-0.013,-0.0381,-0.0131,0.0,0.0,0.0,0.0,0.0,0.0,0.0,0.0,0.0,0.0,0.0,0.0,0.0,0.0,-0.0337,-0.0471,-0.0538,-0.1408,-0.1808,-0.1876,-0.3146,-0.3479,-0.3145,-0.3145,-0.3346,-0.348,-0.3279,-0.3547,-0.4016,-0.435,-0.4485,-0.4619,-0.5224,-0.5191,-0.4882,-0.4882,-0.4683,-0.4483,-0.4815,-0.4918,-0.4956,-0.5294,-0.5428,-0.5428,-0.5428,-0.5542,-0.6033,-0.7365,-0.7633,-0.7958,-0.9319,-1.0023,-1.0116,-0.9332,-1.0363,-1.1022,-1.0246,-1.0654,-1.1305,-1.195,-1.2049,-1.2167,-1.2356,-1.303,-1.3462,-1.3418,-1.3953,-1.4057,-1.3506,-1.4181,-1.4387,-1.3879,-1.4839,-1.5102,-1.4413,-1.4273,-1.3549,0.0,0.0,0.0,0.0,0.0,0.0,0.0,0.0,0.0,0.0,0.0,0.0,0.0,0.0,0.0,0.0,0.0,0.0,0.0,0.0,0.0,0.0,0.0,0.0,0.0,0.4044,0.3842,0.3242,0.2316,0.1664,0.1308,0.0533,0.0,0.0,0.0,0.0,0.0,0.0,0.0,0.0,0.0,0.0,0.0,0.0,0.0,0.0,0.0,0.0,0.0,0.0,0.0,0.0,-0.0605,-0.0873,-0.094,-0.1543,-0.181,-0.1877,-0.2478,-0.3078,-0.348,-0.2945,-0.3078,-0.3546,-0.3546,-0.3546,-0.3681,-0.4284,-0.4687,-0.4956,-0.4956,-0.5158,-0.5428,-0.5428,-0.5428,-0.5428,-0.5428,-0.5428,-0.5415,-0.5296,-0.5396,-0.5805,-0.6853,-0.7398,-0.8066,-0.9143,-0.9633,-0.9776,-0.9263,-1.0249,-1.0898,-1.0314,-1.0901,-1.1486,-1.1804,-1.2078,-1.2274,-1.2319,-1.2976,-1.338,-1.3328,-1.3889,-1.401,-1.3403,-1.4123,-1.4356,-1.3822,-1.4466,-1.4779,-1.4612,-1.4486,-1.374,-1.2328,0.0,0.0,0.0,0.0,0.0,0.0,0.0,0.0,0.0,0.0,0.0,0.0,0.0,0.0,0.0,0.0,0.0,0.0,0.0,0.0,0.0,0.0,0.0,0.4984,0.5047,0.4866,0.4136,0.3279,0.241,0.1474,0.0605,0.0067,0.0067,0.0067,0.0,0.0,0.0,0.0,0.0,0.0,0.0,0.0,0.0,0.0,0.0,0.0,0.0,0.0,0.0,0.0,0.0,0.0,0.0,0.0,0.0,0.0,-0.0202,-0.1944,-0.2611,-0.2677,-0.2611,-0.2611,-0.2677,-0.2677,-0.2677,-0.2678,-0.2678,-0.3279,-0.3947,-0.3947,-0.4619,-0.5294,-0.536,-0.536,-0.536,-0.5362,-0.5425,-0.5316,-0.5165,-0.575,-0.6318,-0.6255,-0.746,-0.8528,-0.8586,-0.9179,-0.9569,-0.9233,-0.9769,-1.0134,-0.9862,-1.0965,0.0,-1.1305,-1.1804,-1.2257,-1.2316,-1.2345,-1.2786,-1.3817,-1.3412,-1.3328,-1.3893,-1.3998,-1.4281,-1.4767,-1.3792,-1.3961,-1.5543,-1.4387,-1.3223,-1.2022,0.0,0.0,0.0,0.0,0.0,0.0,0.0,0.0,0.0,0.0,0.0,0.0,0.0,0.0,0.0,0.0,0.0,0.0,0.0,0.0,0.0,0.7177,0.667,0.5257,0.5201,0.5247,0.5019,0.4217,0.3546,0.3278,0.2478,0.1676,0.1006,0.0939,0.0672,0.0067,0.0,0.0,0.0,0.0,0.0,0.0,0.0,0.0,0.0,0.0,0.0,0.0,0.0,0.0,0.0,0.0,0.0,0.0,0.0,0.0,-0.0067,-0.0538,-0.1141,-0.1608,-0.1007,-0.1141,-0.1674,-0.1674,-0.2142,-0.2678,-0.2678,-0.2878,-0.3078,-0.3078,-0.3212,-0.3547,-0.4217,-0.4417,-0.4553,-0.5226,-0.5277,-0.5184,-0.5142,-0.5149,-0.5445,-0.6492,-0.6933,-0.7489,-0.8546,-0.8882,-0.9088,-0.9163,-0.9224,-0.9513,-1.0375,-1.0864,-1.1386,-1.2305,-1.2594,-1.2699,-1.2708,-1.3135,-1.3489,-1.38,-1.449,-1.48,-1.4559,-1.4963,-1.4933,-1.4337,-1.4328,-1.4492,-1.4708,-1.3988,-1.321,0.0,0.0,0.0,0.0,0.0,0.0,0.0,0.0,0.0,0.0,0.0,0.0,0.0,0.0,0.0,0.0,0.0,0.0,0.0,0.0,0.0,0.0,0.7836,0.7446,0.6431,0.6076,0.5945,0.5945,0.4812,0.4015,0.4015,0.3212,0.2477,0.1942,0.1876,0.1675,0.1142,0.1142,0.0941,0.0538,0.0553,0.0348,0.0,0.0,0.0,0.0,0.0,0.0,0.0,0.0,0.0,0.0,0.0,0.0,0.0,0.0,0.0,0.0,0.0,0.0,0.0,0.0,-0.0337,-0.0739,-0.0739,-0.1141,-0.1543,-0.1543,-0.181,-0.2142,-0.2142,-0.241,-0.2878,-0.3748,-0.4015,-0.4204,-0.5081,-0.5198,-0.5099,-0.4975,-0.4816,-0.4901,-0.5728,-0.6289,-0.6858,-0.7723,-0.8374,0.0,-0.9031,-0.8918,-0.9159,-1.0214,-1.0614,-1.122,-1.2295,-1.272,-1.2881,-1.2881,-1.3195,-1.3415,-1.3415,-1.4055,0.0,0.0,0.0,-1.4612,-1.4001,-1.4609,0.0,0.0,0.0,0.0,0.0,0.0,0.0,0.0,-1.2896,-1.2806,0.0,0.0,0.0,0.0,0.0,0.0,0.0,0.0,0.0,0.0,0.0,0.0,0.0,0.0,0.0,0.0,0.813,0.8285,0.8285,0.7567,0.6915,0.6717,0.5205,0.415,0.415,0.3479,0.2945,0.2878,0.2878,0.2811,0.2678,0.2678,0.0,0.0,0.0,0.1114,0.0279,0.0279,0.0279,0.0279,0.0273,0.0269,0.0135,0.0135,0.0067,0.0,0.0,0.0,0.0,0.0,0.0,0.0,0.0,0.0,0.0,0.0,0.0,0.0,0.0,0.0,0.0,0.0,-0.0538,-0.114,-0.114,-0.1742,-0.2545,-0.3479,-0.3673,-0.3907,-0.4711,-0.4913,-0.4889,-0.4753,-0.4677,-0.4685,-0.4601,-0.5605,-0.6532,-0.6694,-0.7777,-0.8699,-0.8804,-0.8808,-0.9057,-0.9814,-1.0415,-1.1065,-1.1819,-1.2505,-1.2881,-1.2881,0.0,0.0,-1.3022,-1.3017,-1.3017,-1.3113,-1.3646,-1.3968,-1.3931,-1.4736,-1.4717,-1.3657,-1.4443,-1.4853,-1.4858,-1.5229,-1.541,-1.5323,-1.3163,-1.2786,0.0,0.0,0.0,0.0,0.0,0.0,0.0,0.0,0.0,0.0,0.0,0.0,0.0,0.0,0.0,0.9659,0.9915,1.0104,1.0104,0.9329,0.8288,0.6848,0.5743,0.5158,0.5158,0.4956,0.4553,0.3814,0.3748,0.3412,0.2744,0.2678,0.2611,0.241,0.2423,0.2362,0.2161,0.2161,0.2161,0.2161,0.215,0.0,0.1074,0.1074,0.0672,0.0,0.0,0.0,0.0,0.0,0.0,0.0,0.0,0.0,0.0,0.0,0.0,0.0,0.0,0.0,0.0,0.0,-0.0135,-0.0269,-0.0269,-0.0404,0.0,-0.1609,-0.1846,-0.2135,-0.3659,-0.396,-0.4045,-0.4586,-0.4596,-0.4662,-0.5171,-0.5544,-0.6086,-0.7233,-0.7723,-0.8103,-0.8699,-0.8808,-0.9208,-1.0415,-1.0716,-1.1275,-1.251,-1.2822,-1.2881,-1.2881,-1.2881,-1.3109,-1.3595,-1.3647,-1.3826,-1.434,-1.4785,-1.4985,-1.4845,-1.5331,-1.5262,-1.4541,-1.5034,-1.5288,-1.5288,-1.5371,-1.541,-1.5405,-1.4917,-1.4831,0.0,0.0,0.0,0.0,0.0,0.0,0.0,0.0,0.0,0.0,0.0,1.0631,0.9792,0.0,1.0632,1.0372,1.0464,1.0624,1.0624,0.9853,0.9008,0.8094,0.7249,0.6533,0.6075,0.6075,0.5679,0.4753,0.4687,0.4485,0.4083,0.4083,0.3816,0.3346,0.3346,0.3146,0.2678,0.2678,0.2678,0.2678,0.2678,0.2477,0.2009,0.2009,0.1743,0.1343,0.1343,0.1343,0.1343,0.0873,0.0404,0.0,0.0,0.0,0.0,0.0,0.0,0.0,0.0,0.0,0.0,0.0,0.0,0.0,0.0,0.0,-0.0202,-0.1074,-0.1315,-0.1603,-0.2836,-0.3095,-0.3094,-0.3386,-0.3669,-0.401,-0.4333,-0.499,-0.5814,-0.691,-0.7453,-0.794,-0.8695,-0.8808,-0.9162,-1.0167,-1.0316,-1.0669,-1.1742,-1.2143,-1.2344,-1.2344,-1.2666,-1.3017,-1.3329,-1.3329,-1.3467,-1.3795,-1.438,-1.4661,-1.4599,-1.5185,-1.5429,-1.5103,-1.5303,-1.541,-1.541,-1.541,-1.541,-1.541,-1.541,-1.541,0.0,0.0,0.0,0.0,0.0,0.0,0.0,1.2618,1.2309,1.1369,1.1957,1.221,1.0876,1.12,1.1466,1.0944,1.08,1.0804,1.0621,0.998,0.953,0.953,0.8613,0.7697,0.7046,0.6979,0.6658,0.5949,0.5883,0.5883,0.5883,0.5883,0.5481,0.4544,0.4543,0.4077,0.3212,0.3212,0.3212,0.3212,0.3212,0.3146,0.2945,0.2945,0.2878,0.2678,0.2678,0.2678,0.261,0.1876,0.1141,0.0538,0.0538,0.0538,0.0471,0.0135,0.0,0.0,0.0,0.0,0.0,0.0,0.0,0.0,0.0,0.0,-0.0135,-0.0867,-0.1044,-0.1205,-0.2027,-0.2321,-0.2423,-0.2413,-0.301,-0.3511,-0.3511,-0.4446,-0.5546,-0.6423,-0.7074,-0.7777,-0.8643,-0.8808,-0.9008,-0.9714,-0.9814,-1.0064,-1.0914,-1.1466,-1.1864,-1.1976,-1.2559,-1.2881,-1.2881,-1.2881,-1.2915,-1.2993,-1.3716,-1.4116,-1.4204,-1.5,-1.541,-1.541,-1.541,-1.541,-1.541,-1.541,-1.541,-1.541,-1.541,-1.541,1.8333,1.6777,1.5727,1.7356,1.573,1.4281,0.0,1.5089,1.3516,1.366,1.3322,1.2912,1.2688,1.2761,1.259,1.1768,1.1652,1.141,1.0681,1.0498,1.0428,1.0428,0.8997,0.7962,0.7894,0.7829,0.7832,0.7702,0.7702,0.7702,0.7702,0.7702,0.7307,0.6455,0.639,0.5999,0.5092,0.509,0.509,0.509,0.509,0.4686,0.3881,0.3881,0.3412,0.2678,0.2678,0.2678,0.2678,0.2611,0.2477,0.241,0.241,0.241,0.2211,0.0605,0.0,0.0,0.0,0.0,0.0,0.0,0.0,0.0,0.0,0.0,0.0,-0.0131,-0.0127,-0.0308,-0.1072,-0.1726,-0.241,-0.3124,-0.3846,-0.4349,-0.4349,-0.4515,-0.5007,-0.6315,-0.6642,-0.7184,-0.8537,-0.8808,-0.9008,-0.9714,-0.9814,-1.0265,-1.1516,-1.176,-1.203,-1.272,-1.2827,-1.2881,-1.2881,-1.2881,-1.3042,-1.3418,-1.3824,-1.4307,-1.4697,-1.5161,-1.541,-1.541,-1.541,-1.541,-1.541,-1.541,-1.541,-1.541,-1.541,-1.541,2.0709,2.0434,1.9972,1.9345,1.8517,1.7919,1.8252,1.7172,1.5958,1.5528,1.5197,1.4768,1.3793,1.3644,1.3425,1.2634,1.2512,1.2393,1.2031,1.1969,1.1845,1.1351,1.0637,0.9809,0.8874,0.8748,0.8549,0.8027,0.8027,0.8027,0.8027,0.8027,0.7829,0.7437,0.744,0.7309,0.6924,0.6924,0.6924,0.6924,0.6924,0.6459,0.5599,0.5599,0.5072,0.4284,0.4284,0.3949,0.3479,0.3479,0.3145,0.2678,0.2678,0.2678,0.2611,0.1877,0.1543,0.1543,0.1543,0.1208,0.0739,0.0739,0.0404,0.0067,0.0605,0.0731,0.0655,0.0711,0.0996,0.1015,-0.0177,-0.0344,-0.0446,-0.1228,-0.2286,-0.3177,-0.3177,-0.3847,-0.4789,-0.5764,-0.5982,-0.6414,-0.7883,-0.8156,-0.8421,-0.9106,-0.9211,-0.9413,-0.9965,-1.0415,-1.107,-1.2138,-1.2662,-1.2881,-1.2881,-1.2881,-1.2954,-1.313,-1.3765,-1.4165,-1.4399,-1.5054,-1.541,-1.541,-1.541,-1.541,-1.541,-1.541,-1.541,-1.541,-1.541,-1.541,2.2332,2.2692,2.2497,2.0988,2.0494,2.0219,1.9496,1.8641,1.776,1.6992,1.6683,1.614,1.4811,1.4754,1.4583,1.3524,1.3472,1.3468,1.3065,1.3009,1.2761,1.2201,1.2139,1.164,1.0458,0.9904,0.9396,0.874,0.874,0.874,0.874,0.874,0.8611,0.8353,0.8355,0.8221,0.8027,0.8027,0.8027,0.8027,0.8027,0.77,0.7046,0.7046,0.6724,0.6079,0.5883,0.5479,0.5067,0.4872,0.4537,0.4131,0.4131,0.4131,0.4131,0.4131,0.3538,0.2678,0.2678,0.2276,0.1674,0.1674,0.1275,0.0873,0.1462,0.1569,0.1475,0.1514,0.1884,0.1931,0.0871,0.0683,0.067,0.0112,-0.1116,-0.2286,-0.251,-0.34,-0.4455,-0.5324,-0.5485,-0.5921,-0.7179,-0.7396,-0.756,-0.8103,-0.8374,-0.8639,-0.9005,-0.9662,-1.0466,-1.1412,-1.2192,-1.2613,-1.2613,-1.2769,-1.2881,-1.2881,-1.3667,-1.4082,-1.4082,-1.4961,-1.5526,-1.5695,-1.5522,-1.5526,-1.5695,-1.5526,-1.541,-1.541,-1.541,-1.541,2.3222,2.2569,2.1931,2.2705,2.1252,1.9762,2.0249,1.9219,1.8143,1.7883,1.7273,1.6575,1.5773,1.6235,1.6141,1.4427,1.4749,1.473,1.3239,1.3009,1.3005,1.2948,1.2948,1.2944,1.2883,1.1479,1.0558,1.0495,1.0495,1.0495,1.0495,1.0495,1.0107,0.9271,0.9271,0.8877,0.8027,0.8027,0.8027,0.8027,0.8027,0.7959,0.7962,0.7962,0.7959,0.7894,0.7046,0.7109,0.7829,0.6979,0.7109,0.7827,0.7827,0.7827,0.7827,0.7827,0.5647,0.2678,0.2678,0.2677,0.2677,0.2677,0.2611,0.2598,0.2466,0.2445,0.2414,0.2213,0.2172,0.2211,0.2141,0.1114,0.0,0.0,-0.1113,-0.2398,-0.3177,-0.34,-0.384,-0.521,-0.5485,-0.5762,-0.6477,-0.6642,-0.6642,-0.6642,-0.7292,-0.8246,-0.9607,-1.0364,-1.0767,-1.0817,-1.1416,-1.1814,-1.1814,-1.2505,-1.2881,-1.2881,-1.3667,-1.4082,-1.4082,-1.4961,-1.5753,-1.643,-1.5753,-1.5753,-1.6487,-1.5753,-1.541,-1.541,-1.541,-1.541,2.2546,2.3456,2.4142,2.3812,2.315,2.2481,2.2079,2.1151,2.0223,1.9656,1.8957,1.8172,1.7312,1.7235,1.704,1.6058,1.6449,1.6639,1.6126,1.6069,1.583,1.5293,1.5235,1.4824,1.3839,1.2797,1.2216,1.2216,1.1721,1.1655,1.2151,1.1717,1.1527,1.1764,1.1271,1.0829,1.0501,1.0018,0.9713,0.9713,0.9137,0.8877,0.8815,0.8288,0.8027,0.7959,0.77,0.77,0.7962,0.7697,0.7765,0.8027,0.8027,0.8027,0.8027,0.8027,0.723,0.6239,0.6239,0.5451,0.4399,0.4399,0.3671,0.2796,0.3235,0.3292,0.3216,0.3143,0.3403,0.3506,0.246,0.2228,0.2114,0.1615,0.0334,-0.0835,-0.1112,-0.1893,-0.2898,-0.3837,-0.4059,-0.4441,-0.5651,-0.5871,-0.6199,-0.7179,-0.756,-0.8043,-0.9001,-0.9714,-1.0316,-1.0762,-1.1412,-1.1976,-1.2505,-1.2769,-1.2881,-1.2881,-1.3667,-1.4082,-1.4082,-1.4961,-1.5526,-1.5753,-1.5526,-1.5522,-1.5748,-1.5522,-1.541,-1.541,-1.541,-1.541,2.2419,2.3746,2.4744,2.44,2.4201,2.3865,2.3039,2.2247,2.149,2.067,1.9812,1.9041,1.842,1.7961,1.7622,1.7674,1.767,1.7792,1.7941,1.7775,1.7396,1.6903,1.6847,1.6444,1.5456,1.4901,1.4168,1.3065,1.2512,1.2451,1.2948,1.2512,1.2451,1.3009,1.2512,1.2201,1.2201,1.1413,1.1048,1.1048,1.078,1.0644,1.0581,1.0056,0.9793,0.979,0.9464,0.953,0.9727,0.9163,0.9102,0.936,0.9055,0.8932,0.8932,0.8932,0.9116,0.9233,0.8342,0.7233,0.6235,0.6108,0.5306,0.4495,0.482,0.4644,0.437,0.429,0.4361,0.4293,0.3289,0.3176,0.3233,0.2731,0.167,0.0723,0.0445,-0.0556,-0.1614,-0.239,-0.2728,-0.3284,-0.4553,-0.4941,-0.5544,-0.674,-0.6904,-0.7391,-0.8643,-0.9159,-0.9614,-1.0064,-1.0665,-1.1275,-1.1746,-1.2255,-1.2577,-1.2734,-1.3594,-1.4204,-1.436,-1.5044,-1.5522,-1.5806,-1.5522,-1.5526,-1.5806,-1.5526,-1.541,-1.541,-1.541,-1.541,2.2796,2.3464,2.3844,2.4545,2.4427,2.3937,2.3167,2.2572,2.1928,2.0983,1.998,1.9226,1.9192,1.8437,1.8131,1.9074,1.8511,1.8172,1.8583,1.812,1.7682,1.7682,1.7682,1.7688,1.7688,1.7688,1.6414,1.3472,1.3178,1.3183,1.3183,1.3126,1.3126,1.313,1.307,1.307,1.307,1.2266,1.183,1.1892,1.2634,1.3009,1.3009,1.3009,1.3009,1.2944,1.2143,1.2216,1.2879,1.1304,1.1121,1.1772,1.1048,1.0744,1.0744,1.0744,1.123,1.1513,0.9102,0.8208,0.8094,0.7681,0.7548,0.7466,0.7034,0.6395,0.5787,0.5595,0.5113,0.4625,0.4625,0.4067,0.3453,0.3398,0.2841,0.2115,0.1387,0.0611,-0.0111,-0.0888,-0.1669,-0.2453,-0.3234,-0.3958,-0.473,-0.5322,-0.5485,-0.6355,-0.8477,-0.8755,-0.8804,-0.8906,-0.9462,-0.9865,-0.9965,-1.1065,-1.1999,-1.2532,-1.3523,-1.4331,-1.4766,-1.519,-1.5753,-1.643,-1.5753,-1.5748,-1.643,-1.5748,-1.541,-1.541,-1.5415,-1.5468,2.2493,2.3647,2.4758,2.4949,2.4921,2.4744,2.4327,2.3851,2.3285,2.25,2.1805,2.1131,2.0434,1.9966,1.9642,1.953,1.942,1.9366,1.9478,1.9353,1.9261,1.9261,1.9261,1.9038,1.8447,1.8442,1.7878,1.6527,1.5877,1.5543,1.5598,1.5041,1.4754,1.4805,1.4213,1.3906,1.3906,1.3126,1.27,1.27,1.2883,1.3009,1.3009,1.3009,1.3009,1.3005,1.2744,1.281,1.2948,1.2565,1.2504,1.27,1.2458,1.2397,1.2397,1.2397,1.252,1.2573,1.1935,1.1074,1.0084,0.8642,0.8077,0.7828,0.7096,0.6793,0.6579,0.637,0.6206,0.6043,0.6043,0.593,0.5597,0.5046,0.4378,0.3659,0.2891,0.217,0.128,-0.0056,-0.1336,-0.2286,-0.2453,-0.3554,-0.4488,-0.4648,-0.559,-0.6745,-0.783,-0.7993,-0.856,-1.0108,-1.0012,-1.0427,-1.1959,-1.1931,-1.22,-1.316,-1.3791,-1.4331,-1.4766,-1.519,-1.5468,-1.5695,-1.5526,-1.5468,-1.5695,-1.5468,-1.541,-1.541,-1.5979,-1.6208,2.2045,2.3046,2.3928,2.3989,2.4315,2.4559,2.435,2.4236,2.4015,2.3485,2.276,2.209,2.1643,2.097,2.0578,2.1027,2.064,2.0485,2.1024,2.0812,2.0607,2.0607,2.0383,2.0175,2.001,1.9536,1.9137,1.9002,1.773,1.693,1.6973,1.6537,1.6311,1.6353,1.5933,1.551,1.5153,1.5095,1.4686,1.4045,1.4686,1.4871,1.4542,1.4866,1.5037,1.5037,1.5037,1.5037,1.4974,1.4618,1.4495,1.4432,1.4123,1.3941,1.3941,1.3941,1.4182,1.4386,1.3669,1.3377,1.2968,1.0672,0.9737,0.9388,0.8783,0.8166,0.7655,0.7571,0.7261,0.7047,0.7047,0.7047,0.6937,0.6497,0.5903,0.5148,0.4441,0.3666,0.2722,0.1279,-0.0223,-0.1225,-0.1225,-0.2444,-0.344,-0.344,-0.4154,-0.5091,-0.6262,-0.7128,-0.8184,-0.9514,-0.9606,-1.0034,-1.1181,-1.131,-1.1644,-1.2298,-1.3345,-1.41,-1.4515,-1.5105,-1.541,-1.541,-1.5695,-1.569,-1.541,-1.569,-1.5864,-1.5864,-1.5979,-1.6208,2.1542,2.2137,2.242,2.254,2.3296,2.399,2.3886,2.4176,2.4403,2.4162,2.3306,2.2656,2.2798,2.1657,2.1197,2.2698,2.1832,2.1321,2.2419,2.2053,2.1697,2.1697,2.1252,2.1119,2.1656,2.0706,2.0289,2.0894,1.9193,1.8095,1.789,1.7786,1.7688,1.7578,1.7578,1.7269,1.6551,1.7269,1.693,1.5648,1.6986,1.7246,1.6652,1.7302,1.7578,1.7578,1.7578,1.7578,1.7572,1.6853,1.6546,1.6485,1.5796,1.5548,1.5548,1.5548,1.5946,1.6224,1.4775,1.5049,1.564,1.2771,1.1693,1.1431,1.0959,0.9927,0.8989,0.8989,0.8508,0.8022,0.8022,0.8022,0.8022,0.7917,0.736,0.6684,0.5916,0.5033,0.3989,0.2618,0.1224,0.0278,0.0167,-0.1002,-0.1954,-0.202,-0.2129,-0.2753,-0.416,-0.6093,-0.7513,-0.8128,-0.8611,-0.9006,-0.9167,-1.0119,-1.08,-1.1066,-1.2793,-1.3923,-1.4314,-1.505,-1.541,-1.541,-1.6036,-1.6036,-1.541,-1.6036,-1.6374,-1.6317,-1.5811,-1.5864,2.1341,2.186,2.2331,2.242,2.3269,2.4085,2.412,2.4529,2.4851,2.4681,2.4168,2.3687,2.3543,2.26,2.2005,2.2496,2.1886,2.1455,2.1801,2.1751,2.1697,2.1697,2.1609,2.1568,2.1697,2.1513,2.1417,2.152,2.1198,2.0492,1.9395,1.8797,1.8226,1.7633,1.7578,1.7512,1.739,1.7512,1.7462,1.7219,1.7457,1.7523,1.7413,1.7517,1.7578,1.7578,1.7578,0.0,1.7578,1.7451,1.739,1.739,1.7263,1.7197,1.7197,1.7197,1.7011,1.6712,1.6425,1.5957,1.5023,1.257,1.2081,1.2328,1.1128,1.0606,1.045,1.045,1.034,1.0234,1.0234,1.0234,1.0069,0.9475,0.8815,0.815,0.7396,0.5723,0.4154,0.3284,0.2396,0.1617,0.1004,0.0167,-0.0562,-0.1217,-0.1811,-0.2306,-0.2608,-0.4159,-0.5986,-0.7896,-0.7754,-0.7924,-0.902,-1.0052,-1.1005,-1.2024,-1.3659,-1.4796,-1.5153,-1.5352,-1.541,-1.541,-1.5526,-1.5526,-1.541,-1.5526,-1.558,-1.558,-1.6088,-1.6379,1.9491,1.9956,2.0408,2.0922,2.2218,2.3397,2.3505,2.4403,2.5162,2.4998,2.4667,2.4298,2.3937,2.3432,2.3022,2.2841,2.2431,2.2217,2.2503,2.2338,2.235,2.266,2.2423,2.2331,2.2651,2.2079,2.1972,2.2593,2.2292,2.1722,2.0801,2.0462,2.0092,1.9718,1.9718,1.9718,1.9718,1.9718,1.9552,1.9178,1.9552,1.9552,1.9178,1.9558,1.9718,1.9718,1.9718,1.9718,1.9718,1.9718,1.9718,1.9718,1.9718,1.9554,1.9265,1.9265,1.887,1.8315,1.8015,1.756,1.6831,1.4801,1.4,1.3684,1.2999,1.2609,1.2308,1.2308,1.2308,1.2308,1.2308,1.2073,1.1733,1.1405,1.0238,0.922,0.9233,0.7862,0.6343,0.5237,0.4414,0.3536,0.245,0.1301,0.0461,0.0117,-0.0604,-0.124,-0.1697,-0.2416,-0.3871,-0.6269,-0.6581,-0.7067,-0.8203,-0.9304,-1.0053,-1.0432,-1.2233,-1.3525,-1.4145,-1.4149,-1.4332,-1.4751,-1.5133,-1.5133,-1.481,-1.557,-1.6337,-1.7053,-1.7014,-1.7598,1.7632,1.812,1.8587,1.9315,2.1098,2.2703,2.2806,2.4169,2.5336,2.512,2.4964,2.4705,2.4191,2.4051,2.3906,2.3602,2.3354,2.338,2.3785,2.3552,2.3493,2.3895,2.3507,2.342,2.3914,2.3054,2.2841,2.3781,2.3372,2.2782,2.2101,2.2161,2.2161,2.2062,2.2062,2.2062,2.2062,2.1944,2.158,2.1035,2.1465,2.1458,2.1035,2.1587,2.1937,2.2062,2.2062,2.1983,2.1857,2.1857,2.1824,2.1697,2.1697,2.1384,2.091,2.091,2.0476,1.9831,1.9328,1.9104,1.8787,1.7468,1.6243,1.5207,1.4954,1.4585,1.4266,1.4266,1.4179,1.4103,1.4103,1.3653,1.3153,1.3052,1.1733,1.0563,1.0685,0.9875,0.8713,0.732,0.6401,0.5485,0.4204,0.2967,0.2109,0.1946,0.1117,0.0322,-0.0388,-0.0794,-0.1858,-0.4065,-0.5004,-0.5895,-0.693,-0.8231,-0.9081,-0.9423,-1.1232,-1.2687,-1.3489,-1.3485,-1.3786,-1.4451,-1.5056,-1.5051,-1.4451,-1.5675,-1.6824,-1.7901,-1.7307,-1.8076,1.6991,1.7694,1.8423,1.851,2.0587,2.2614,2.262,2.4072,2.5332,2.5059,2.504,2.4952,2.4538,2.4201,2.4218,2.49,2.4804,2.4844,2.5491,2.5545,2.5419,2.5081,2.5012,2.4973,2.5059,2.4965,2.4918,2.5051,2.4996,2.4427,2.321,2.3679,2.3728,2.316,2.316,2.316,2.316,2.265,2.241,2.2305,2.1883,2.193,2.235,2.241,2.2687,2.316,2.316,2.2886,0.0,2.241,2.214,2.1697,2.1697,2.1527,2.1346,2.1346,2.0835,2.0172,2.0106,1.9745,1.9316,1.9169,1.8152,1.6793,1.5724,1.5725,1.607,1.607,1.5713,1.5322,1.5322,1.4914,1.4359,1.3752,1.3449,1.2844,1.1079,1.0581,1.0128,0.8764,0.7896,0.7161,0.633,0.5814,0.5318,0.4557,0.3234,0.2316,0.2246,0.087,-0.0537,-0.1535,-0.2464,-0.3723,-0.5368,-0.697,-0.8931,-1.1269,-1.3055,-1.4323,-1.5172,-1.5172,-1.523,-1.5294,-1.5347,-1.5347,-1.5289,-1.5405,-1.5575,-1.5675,-1.5623,-1.6358,1.598,1.6818,1.7664,1.8348,2.0486,2.2484,2.2786,2.4167,2.5386,2.5372,2.5219,2.5052,2.4881,2.4548,2.4506,2.5094,2.48,2.4817,2.5806,2.5679,2.5496,2.5554,2.5727,2.5699,2.5243,2.543,2.5684,2.5971,2.6497,2.6604,2.6118,2.5263,2.4689,2.4451,2.4451,2.4451,2.4451,2.4217,2.4143,2.4143,2.3903,2.3903,2.4143,2.4143,2.4258,2.4451,2.4451,2.4331,0.0,2.4143,2.3986,2.3827,2.3827,2.3498,2.3055,2.2815,2.2275,2.1593,2.1303,2.0983,2.0623,2.0307,1.9859,1.9271,1.8173,1.7813,1.7783,1.7783,1.7664,1.7511,1.7511,1.7019,1.6342,1.5525,1.5491,1.5271,1.396,1.3788,1.3376,1.1447,1.0826,1.0229,0.8969,0.8242,0.7703,0.7297,0.6333,0.5147,0.361,0.2771,0.1593,-0.0336,-0.1341,-0.2341,-0.3604,-0.6254,-0.8228,-0.931,-1.1936,-1.4218,-1.5894,-1.5449,-1.5802,-1.712,-1.7175,-1.7175,-1.7175,-1.7654,-1.8307,-1.9132,-1.9132,-1.9838,1.5821,1.6633,1.7513,1.861,2.0611,2.2475,2.3124,2.4387,2.5459,2.5553,2.5376,2.5192,2.511,2.5057,2.5174,0.0,0.0,2.5733,2.6591,2.642,2.6285,2.6404,2.6618,2.6585,2.605,2.6268,2.6563,2.6882,2.7545,2.7897,2.7897,2.6704,2.5996,2.5996,2.5996,2.5996,2.5996,2.5837,2.5757,2.5757,2.5603,2.5603,2.5757,2.5757,2.5845,2.5988,2.5746,2.5691,0.0,2.5507,2.546,2.5497,2.5257,2.486,2.4312,2.38,2.3237,2.2721,2.2395,2.2152,2.1928,2.1562,2.1541,2.1505,2.0742,2.0022,1.9446,1.9446,1.9409,1.93,1.9038,1.8708,1.8241,1.7451,1.7463,1.7528,1.7068,1.6973,1.6565,1.5189,1.4536,1.3776,1.248,1.1705,1.1146,1.0654,0.9763,0.8477,0.6726,0.5167,0.3526,0.1655,0.0067,-0.1408,-0.2538,-0.4882,-0.7101,-0.9069,-1.1476,-1.414,-1.7104,-1.665,-1.7042,-1.863,-1.863,-1.863,-1.8682,-1.9587,-2.0539,-2.1537,-2.1897,-2.2788,1.6881,1.7468,1.8328,1.9335,2.096,2.2579,2.365,2.4726,2.5494,2.5496,2.55,2.5407,2.5148,2.5753,2.6413,2.6813,2.754,2.8121,2.8352,2.8367,2.8246,2.7917,2.7888,2.7888,2.786,2.7869,2.7888,2.7897,2.7888,2.7897,2.7897,2.7888,2.786,2.786,2.786,2.786,2.786,2.7347,2.7065,2.7065,2.655,2.6582,2.7065,2.7065,2.7377,2.7825,2.7036,2.6836,0.0,2.6208,2.6031,2.621,2.5427,2.4963,2.4709,2.391,2.3432,2.3198,2.3189,2.318,2.3189,2.3165,2.3165,2.3165,2.3156,2.2146,2.0967,2.0967,2.0823,2.0471,1.9602,1.963,1.9774,1.9446,1.937,1.9538,2.0027,1.9527,1.923,2.0137,1.908,1.7821,1.7152,1.6699,1.6049,1.4904,1.3507,1.2513,1.2509,0.8078,0.5001,0.4939,0.1979,-0.0738,-0.2462,-0.2659,-0.5431,-1.1928,-1.241,-1.4503,-1.9294,-1.9478,-1.9471,-1.9478,-1.9478,-1.9478,-1.9478,-2.0698,-2.1285,-2.1345,-2.2524,-2.3817,1.7024,1.769,1.841,1.8803,2.0731,2.264,2.3169,2.4428,2.5699,2.6375,2.6493,2.6599,2.7061,2.7209,2.764,2.8827,2.9155,2.9598,3.0598,3.0715,3.0316,2.9188,2.8368,2.8057,2.8465,2.8515,2.8567,2.8714,2.8969,2.9122,2.9122,2.9122,2.876,2.7926,2.7897,2.7897,2.7897,2.773,2.7654,2.7645,2.7484,2.7484,2.7645,2.7786,2.7951,2.8102,2.8026,2.8057,2.8103,2.7859,2.7792,2.7859,2.7582,2.7094,2.6453,2.5899,2.528,2.4658,2.4385,2.4044,2.3762,2.3914,2.3611,2.3255,2.3524,2.2891,2.2103,2.2103,2.2156,2.2098,2.1675,2.1613,2.1476,2.0898,2.1122,2.1433,2.1371,2.1661,2.1881,2.167,2.1236,2.0706,2.0125,1.9232,1.8491,1.7997,1.7946,1.729,1.548,1.3422,1.121,0.8884,0.3453,-0.022,-0.0769,-0.2949,-0.4204,-0.3949,-1.2319,-1.7937,-1.9434,-1.9503,-2.0375,-2.2275,-2.3433,-2.4019,-2.3999,-2.494,-2.4735,-2.351,-2.4636,-2.5068,1.8113,1.8788,1.9531,1.9992,2.1592,2.3208,2.3815,2.5011,2.618,2.6864,2.721,2.7539,2.8055,2.8209,2.8568,2.9439,2.975,3.0262,3.1353,3.15,3.1162,3.025,2.9216,2.8736,2.9101,2.9142,2.9186,2.9326,2.9568,2.972,2.9737,2.971,2.9383,2.8691,2.8607,2.8579,2.8579,2.8579,2.8579,2.8579,2.8579,2.8579,2.8579,2.8718,2.8759,2.8763,2.8626,2.8725,0.0,2.8678,2.8734,2.8975,2.8669,2.8027,2.7191,2.6635,2.5903,2.5136,2.4887,2.4582,2.4314,2.4454,2.4384,2.4313,2.4582,2.3911,2.3055,2.3055,2.3244,2.3377,2.3115,2.3093,2.2986,2.2423,2.2617,2.3103,2.3658,2.401,2.4356,2.4822,2.4678,2.4262,2.3645,2.2933,2.2248,2.1739,2.2011,2.1685,2.0057,1.8337,1.647,1.4328,0.7978,0.283,0.0226,-0.196,-0.2271,-0.0134,-0.7641,-1.3481,-1.647,-1.6592,-1.7401,-1.9113,-2.0167,-2.2626,-2.6552,-2.7063,-2.7167,-2.6901,-2.6161,-2.4196,0.0,2.046,2.128,2.2337,2.3174,2.4034,2.516,2.614,0.0,2.7049,2.7739,2.833,2.8445,2.8928,2.928,2.9213,2.9772,3.0451,3.1113,3.1127,3.108,3.108,3.027,2.9713,2.9721,2.9738,2.9746,2.9763,2.977,2.9792,2.9851,2.9798,2.9811,2.9952,2.9832,2.9753,2.9712,2.9704,2.9696,2.9696,2.9696,2.9696,2.9696,2.9704,2.9721,2.9684,2.8959,2.9063,2.9682,2.8874,2.8988,2.9568,2.8834,2.7973,2.7078,2.6398,2.5608,2.4846,2.4846,2.4846,2.4832,2.4809,2.5371,2.6062,2.6104,2.5114,2.3953,2.3962,2.4166,2.4284,2.3961,2.414,2.4323,2.3988,2.3971,2.4577,2.6546,2.6423,2.6621,2.8951,2.8797,2.8059,2.7346,2.7141,2.6721,2.5577,2.5437,2.5437,2.5355,2.2768,2.0975,2.0975,1.5305,0.8534,0.1179,0.021,0.0,0.0,0.0,-0.33,-1.0663,-1.0954,-1.0954,-1.0954,-1.0954,-1.6066,-2.6443,-2.6449,-2.7614,-2.974,-2.7053,-2.2142,2.0927,0.0,2.064,2.2206,2.2862,2.3369,0.0,2.5775,2.7086,2.7841,0.0,2.9655,3.0877,3.069,3.0735,3.1921,3.2221,3.249,3.3058,3.2436,3.193,3.193,3.061,2.9755,2.9914,3.0013,3.0148,3.0303,3.0356,3.0399,3.0413,3.0408,3.0406,3.0433,3.0397,3.0188,2.9783,2.9732,2.9696,2.9696,2.9696,2.9696,2.9713,2.9861,2.9939,2.993,2.9945,3.0069,3.0171,2.9312,2.9072,2.9238,2.9096,2.8135,2.6882,2.7405,2.6641,2.5343,2.5343,2.5232,2.5071,2.4926,2.5658,2.6592,2.6449,2.6007,2.5574,2.5611,2.5318,2.4928,2.4704,2.5126,2.5479,2.4994,2.5692,2.6669,2.7363,2.7894,2.8461,2.9249,2.9255,2.8978,2.8487,2.7685,2.6688,2.5502,2.5762,2.5749,2.4834,2.5804,2.6599,2.6599,2.4632,1.8563,0.6861,0.2275,0.0,0.0,0.0,-0.0855,-0.2674,-0.2786,-0.2786,-0.2786,-0.2786,-0.7861,-1.8199,-1.8228,-1.8462,-1.9212,-2.6321,-2.5721,2.187,2.1998,2.2202,2.3514,2.4241,2.4785,2.5318,2.6513,0.0,0.0,0.0,3.0459,3.1332,3.1389,3.1578,3.2447,3.2871,3.3188,3.3481,3.3019,3.2516,3.2119,3.0909,3.0158,3.0256,3.0337,3.043,3.0542,3.0581,3.0607,3.0643,3.0623,3.0643,3.0726,3.0648,3.0455,3.0171,3.0131,3.0112,3.0112,3.0112,3.0112,3.0112,3.0234,3.0276,3.0276,3.0434,3.0259,2.9862,2.9388,2.8972,2.8643,2.8679,2.7877,2.6815,2.775,2.7209,2.601,2.6039,2.596,2.5761,2.5255,2.6346,2.7771,2.7318,2.7344,2.7461,2.7164,2.6233,2.5402,2.5701,2.6049,2.6254,2.5965,2.6748,2.7721,2.8275,2.8693,2.9117,2.9696,2.9705,2.9511,2.9138,2.8556,2.7865,2.7035,2.7215,2.7125,2.6222,2.7369,2.7953,2.707,2.6061,2.2599,1.5453,1.0073,0.5062,0.0327,0.0,0.0,0.0,0.0,0.0,0.0,0.0,-0.2771,-0.835,-0.835,-0.8304,-0.8493,-1.4131,-1.4568,2.2726,2.3725,2.4601,2.5168,2.6003,2.6718,2.6775,0.0,0.0,0.0,0.0,0.0,3.1074,3.1605,3.207,3.2182,3.2873,3.3439,3.3553,3.3359,3.2931,3.2195,3.1213,3.0606,3.0606,3.0607,3.0623,3.0623,3.0633,3.0671,3.0731,3.0675,3.0719,3.0889,3.0713,3.0623,3.0623,3.0613,3.0606,3.0606,3.0588,3.0584,3.0584,3.0575,3.057,3.056,3.0429,0.0,2.9255,2.8987,2.8491,2.7873,2.7882,2.7326,2.6632,2.7703,2.7479,2.6656,2.6854,2.6963,2.6869,2.6012,2.7271,2.9005,2.8388,2.8594,2.8952,2.8545,2.7212,2.6071,2.6806,2.7046,2.7068,2.6941,2.7626,2.8481,2.9074,2.9192,2.9389,3.0148,3.0124,2.9869,2.952,2.9431,2.9186,2.8585,2.8437,2.8077,2.7141,2.7012,2.6321,2.4534,2.3356,2.2568,2.2258,1.8131,1.1714,0.2655,0.1323,0.0804,0.0805,0.0269,0.0,0.0,0.0,0.0,0.0,0.0,0.0,0.0,0.0,0.0,2.3465,2.5024,2.6072,2.5447,2.6003,2.6726,2.6782,0.0,0.0,0.0,0.0,0.0,0.0,3.2089,3.237,3.2997,3.3775,3.4533,3.5217,3.4088,3.3155,3.3018,3.1579,3.0606,3.0606,3.0647,3.0674,3.0674,3.079,3.0857,3.0868,3.0857,3.0868,3.0898,3.0758,3.0676,3.0676,3.0635,3.0606,3.0606,3.0539,3.0518,3.0512,3.046,3.0427,3.0388,0.0,2.9252,2.9018,2.7601,2.6937,2.684,2.6893,2.6379,2.5798,2.7479,2.754,2.688,2.7634,2.8321,2.8754,2.7941,2.8403,2.925,2.9128,2.8709,2.8509,2.9642,2.8874,2.7735,2.7871,2.8403,2.8729,2.8053,2.9065,3.0024,2.9424,2.9847,3.0332,3.0303,3.0268,3.0144,2.9869,2.9599,2.8874,2.7337,2.6818,2.5626,2.2923,2.2582,2.2033,2.0535,2.0191,1.9364,1.7517,1.6743,1.5023,1.1848,0.7129,0.4514,0.4489,0.1589,0.0,0.0,0.0,0.0,0.0,0.0,0.0,0.0,0.0,0.0,2.3043,2.462,2.5918,2.5986,2.706,2.8123,2.8246,2.8933,0.0,0.0,0.0,0.0,0.0,3.2236,3.3271,3.4547,3.5074,3.511,3.4541,3.3789,3.297,3.2062,3.1252,3.0757,3.0757,3.072,3.0703,3.0703,3.0718,3.0736,3.0736,3.0736,3.0736,3.0736,3.0675,3.0652,3.0652,3.0624,3.0605,3.0605,3.0569,3.0554,3.0554,3.0521,3.0512,3.0492,0.0,2.9637,2.911,2.791,2.713,2.6659,2.622,2.5774,2.5614,2.7355,2.7762,2.7559,2.836,2.8885,2.9068,2.8247,2.8856,2.9814,2.933,2.9159,2.927,2.9946,2.9052,2.7966,2.8286,2.8618,2.877,2.8403,2.9235,2.9944,2.9333,2.9418,2.9545,2.9236,2.9083,2.8891,2.8544,2.814,2.7503,2.6533,2.5958,2.4775,2.2347,2.1625,2.043,1.8055,1.7368,1.6385,1.4664,1.4574,1.4227,1.3448,1.0109,0.8132,0.8154,0.6583,0.4823,0.2943,0.289,0.2891,0.2877,0.1944,0.0938,0.0,0.0,0.0,2.2802,2.4178,2.5553,2.666,2.7965,2.9111,2.9661,2.9826,0.0,0.0,0.0,0.0,3.124,3.2412,3.3896,3.5418,3.5693,3.5234,3.3887,3.3369,3.2637,3.1357,3.0995,3.0848,3.0848,3.0753,3.068,3.068,3.0628,3.0606,3.0606,3.0606,3.0606,3.0606,3.0354,3.0241,3.0264,3.021,3.0314,3.0606,3.0587,3.0575,3.0584,3.0564,3.055,3.054,3.0343,2.987,2.9193,2.8385,2.754,2.6709,2.624,2.6151,2.6405,2.7508,2.8184,2.8636,2.9213,2.9358,2.9219,2.8668,2.9319,3.0186,2.959,2.9673,2.9999,2.993,2.8983,2.8102,2.8709,2.8817,2.8782,2.8782,2.925,2.9596,2.9202,2.8987,2.875,2.8288,2.8094,2.7807,2.7344,2.6561,2.5868,2.5337,2.4571,2.3378,2.1493,2.0488,1.8926,1.6084,1.5037,1.3956,1.2545,1.2058,1.1836,1.1812,1.0835,1.0211,0.997,0.9564,0.8087,0.5459,0.5406,0.5393,0.5354,0.4837,0.3415,0.1263,0.127,0.1007,2.3552,2.4639,2.5717,2.7463,2.7942,0.0,3.0205,3.0623,0.0,3.2782,0.0,0.0,3.2236,3.2822,3.369,3.4564,3.4752,3.4746,3.4619,3.3271,3.2236,3.2119,3.1282,3.0709,3.0709,3.0652,3.0611,3.0611,3.0596,3.0606,3.0606,3.0606,3.0606,3.0606,2.9629,2.9168,2.9305,2.9052,2.9484,3.0606,3.0537,3.0516,3.0507,3.0441,3.0404,3.0365,2.9558,2.9164,2.9048,2.8249,2.7402,2.6699,2.744,2.8171,2.8768,2.8132,2.8892,3.0229,3.0294,3.0136,2.997,3.0157,3.0126,3.0056,3.0256,3.0161,2.9969,2.9763,2.924,2.8866,2.9464,2.9618,2.9618,2.9618,2.9657,2.9596,2.9202,2.9094,2.891,2.832,2.8187,2.7951,2.7256,2.5756,2.4312,2.3287,2.1726,1.9956,1.8083,1.7126,1.6084,1.4528,1.3648,1.248,1.0798,0.9227,0.8353,0.8376,0.8974,0.8971,0.8244,0.6605,0.5545,0.5332,0.5384,0.5406,0.5393,0.8503,0.8289,0.4982,0.4993,0.4106,2.2829,2.3908,2.5101,2.7374,2.7913,0.0,0.0,3.073,3.1691,3.2335,3.2957,0.0,3.2951,3.2762,3.3085,3.4396,3.4173,3.3828,3.3828,3.2777,3.1812,3.1272,3.0876,3.0638,3.0638,3.0575,3.0484,3.0366,3.0266,3.0165,3.0046,3.0046,2.9807,2.9305,2.8901,2.8469,2.8023,2.7918,2.8102,2.8562,2.9828,3.044,3.044,3.0414,3.0398,3.0379,3.0054,2.991,2.9831,2.8861,2.8265,2.7928,2.7599,2.7647,2.7947,2.8137,2.8602,2.9235,2.9787,2.9896,2.9838,2.9927,2.9896,2.9829,2.9927,2.9808,2.9598,2.9523,2.9058,2.8591,2.8819,2.8731,2.8579,2.8579,2.8579,2.8463,2.8076,2.7707,2.735,2.6917,2.6578,2.6261,2.5982,2.511,2.4016,2.2781,2.1724,2.0247,1.7807,1.5823,1.4148,1.2789,1.0968,0.9603,0.8974,0.7882,0.7177,0.7177,0.8006,0.8148,0.748,0.7113,0.6453,0.5369,0.5391,0.5386,0.542,0.6751,0.6687,0.5364,0.5381,0.506,2.2423,2.362,2.4957,2.6986,0.0,0.0,2.9146,3.046,3.168,3.2197,3.2637,3.2988,3.32,3.2622,3.2461,3.3545,3.3228,3.2865,3.2865,3.2065,3.1273,3.0674,3.0581,3.0545,3.0486,3.0385,3.026,3.0058,2.9956,2.9845,2.9713,2.9459,2.907,2.852,2.7926,2.737,2.6892,2.683,2.683,2.6911,2.8869,2.98,2.9809,3.0054,3.0178,3.0178,3.0178,3.0178,3.0127,2.946,2.9184,2.9051,2.7724,2.7523,2.803,2.8293,2.8574,2.8904,2.9489,2.967,2.9626,2.9678,2.967,2.9626,2.9678,2.9561,2.9373,2.9263,2.8739,2.8201,2.8084,2.7992,2.7897,2.7897,2.7897,2.7774,2.7387,2.6893,2.6396,2.606,2.5387,2.4855,2.4705,2.3846,2.2724,2.1401,2.0532,1.9214,1.7087,1.5079,1.3186,1.1494,0.9076,0.7567,0.7567,0.6789,0.6268,0.6268,0.6857,0.6999,0.6568,0.6939,0.6612,0.5391,0.4844,0.4831,0.541,0.5427,0.536,0.5347,0.5369,0.5396,2.2586,2.4024,2.5505,2.639,0.0,0.0,2.9102,2.9835,3.1022,3.2833,3.2505,3.2143,3.2936,3.2429,3.1871,3.1811,3.1853,3.1886,3.1896,3.115,3.06,3.06,3.0545,3.0424,3.0219,3.0073,2.9914,2.9704,2.9687,2.9677,2.9677,2.8929,2.8482,2.8473,2.6673,2.5794,2.5984,2.5794,2.5785,2.6003,2.7664,2.8482,2.853,2.9327,2.9696,2.9696,2.9696,2.9696,2.9713,2.9914,2.9989,2.9807,2.7951,2.822,2.9592,2.8708,2.8961,2.9687,2.9687,2.9551,2.9443,2.9625,2.9551,2.9434,2.9625,2.9533,2.9293,2.8901,2.8357,2.7803,2.7409,2.7589,2.7897,2.7888,2.7888,2.7774,2.7356,2.686,2.6396,2.6052,2.5002,2.403,2.3561,2.1843,2.0081,1.8776,1.7412,1.626,1.5463,1.4688,1.321,1.0732,0.8187,0.6719,0.6717,0.5881,0.5428,0.5428,0.5428,0.5428,0.5428,0.5384,0.5391,0.5377,0.3618,0.3618,0.5379,0.5379,0.5374,0.5428,0.5374,0.5379,2.2583,2.4024,2.5658,2.714,0.0,0.0,0.0,3.063,0.0,0.0,3.2369,3.1898,3.2142,3.1525,3.1155,3.1714,3.1297,3.1129,3.1738,3.1041,3.0452,3.0452,3.0285,3.0123,3.0069,2.9899,2.9713,2.9494,2.8914,2.8501,2.8378,2.7588,2.6904,2.6349,2.5791,2.5245,2.4745,2.4672,2.4672,2.4754,2.5801,2.7092,2.853,2.9327,2.9696,2.9696,2.9696,2.9696,2.9687,2.9616,2.9475,2.9249,2.869,2.8759,2.9178,2.8929,2.8993,2.9206,2.9206,2.9181,2.9071,2.8856,2.8763,2.8652,2.8483,2.8391,2.8324,2.8201,2.7816,2.7448,2.7326,2.7178,2.6978,2.6657,2.6548,2.6437,2.5922,2.5414,2.4995,2.4887,2.3922,2.3084,2.298,2.2037,2.0729,1.8887,1.8223,1.6706,1.3254,1.2619,1.125,0.8184,0.7167,0.6461,0.5817,0.5556,0.5428,0.5428,0.5428,0.5428,0.5428,0.5376,0.4971,0.4151,0.4432,0.4843,0.5379,0.5379,0.5377,0.5374,0.5369,0.5376,2.3517,2.5043,2.6638,2.7936,2.9138,3.0008,2.9992,0.0,0.0,0.0,3.1578,3.1187,3.1547,3.1004,3.0672,3.1168,3.0711,3.0475,3.1017,3.0526,3.0128,3.0128,2.9973,2.9845,2.9772,2.9643,2.9344,2.8804,2.8274,2.7786,2.7359,2.6557,2.5897,2.5421,2.4972,2.45,2.4005,2.3867,2.3795,2.3804,2.4747,2.5855,2.7112,2.8381,2.9119,2.9407,2.9407,2.9485,2.9551,2.9342,2.9212,2.9156,2.9053,2.8994,2.8994,2.8994,2.8896,2.8773,2.8952,2.8905,2.8749,2.8658,2.8531,2.8359,2.8156,2.8001,2.7869,2.7716,2.7478,2.7264,2.7115,2.6724,2.6367,2.6077,2.6005,2.5844,2.5335,2.4784,2.4341,2.4078,2.2848,2.177,2.1547,2.0732,1.9424,1.759,1.6756,1.5382,1.2558,1.1316,0.9929,0.7919,0.6778,0.5943,0.5427,0.5428,0.5428,0.5428,0.5432,0.5434,0.5428,0.5372,0.5038,0.436,0.5043,0.4705,0.3281,0.4699,0.5381,0.5386,0.5374,0.5381,2.4782,2.6457,2.7953,2.8634,2.9398,2.9861,2.9464,2.9661,3.0127,3.074,3.0385,3.0213,3.1018,3.0709,3.0343,3.0343,3.0122,2.996,2.996,2.9822,2.9696,2.9696,2.9678,2.9607,2.9423,2.9318,2.885,2.7864,2.7658,2.7255,2.6487,2.5693,2.5223,2.5193,2.4188,2.364,2.364,2.3346,2.3189,2.3198,2.4257,2.4766,2.4915,2.6903,2.8237,2.8994,2.8994,2.9125,2.9291,2.9089,2.9125,2.9291,2.9089,2.8994,2.8994,2.8961,2.8716,2.8446,2.8782,2.8667,2.842,2.8749,2.8599,2.8298,2.8246,2.8002,2.764,2.7277,2.7161,2.7025,2.6666,2.6254,2.5924,2.5888,2.5844,2.5689,2.5089,2.4576,2.4078,2.3439,2.1867,2.0397,1.9806,1.8567,1.7158,1.5528,1.3985,1.2948,1.2883,1.077,0.9243,0.9119,0.6965,0.5491,0.5428,0.5428,0.5428,0.5428,0.5372,0.5374,0.543,0.5374,0.5384,0.5394,0.5386,0.3755,0.0469,0.3618,0.5179,0.5256,0.5381,0.5389,2.4098,2.5591,0.0,2.8481,2.9279,2.9661,2.9194,2.9312,2.956,2.9708,2.9757,2.982,3.0009,2.9938,2.9848,2.9848,2.9806,2.9763,2.9763,2.9731,2.9696,2.9696,2.9561,2.9454,2.9403,2.8651,2.8046,2.7827,2.6622,2.5731,2.5284,2.4505,2.3945,2.3687,2.3435,2.3314,2.3314,2.3245,2.3189,2.3189,2.3445,2.3901,2.4575,2.6786,2.8237,2.8994,2.8994,2.8845,2.8646,2.8887,2.8854,2.8646,2.8887,2.8994,2.8961,2.8658,2.8471,2.8359,2.8192,2.8093,2.7973,2.7727,2.761,2.7491,2.7152,2.6765,2.6394,2.6298,2.5991,2.564,2.5553,2.5449,2.5259,2.4824,2.4744,2.4455,2.3448,2.3165,2.2883,2.2204,2.1363,2.0551,1.9813,1.9002,1.7752,1.5643,1.3985,1.2761,1.2143,1.0989,0.9721,0.8396,0.7172,0.6139,0.5427,0.5428,0.5428,0.5428,0.543,0.5369,0.5376,0.5386,0.5389,0.5382,0.5398,0.4992,0.4235,0.362,0.3549,0.4018,0.4959,0.5374,2.4252,2.5549,0.0,2.8654,0.0,2.9314,2.9067,2.9112,2.9212,2.9212,2.9395,2.9561,2.9561,2.9634,2.9696,2.9696,2.9616,2.9561,2.9561,2.9446,2.9208,2.8836,2.8706,2.8494,2.8114,2.7407,2.684,2.6435,2.5497,2.4681,2.4113,2.3692,2.3392,2.3221,2.3036,2.2972,2.2972,2.2832,2.2781,2.2773,2.289,2.3459,2.446,2.6039,2.7203,2.7956,2.8127,2.827,2.842,2.8633,2.8599,2.8385,2.8438,2.8558,2.8658,2.8299,2.8156,2.8129,2.7973,2.7774,2.7598,2.7589,2.7448,2.7264,2.706,2.6514,2.6005,2.6005,2.5606,2.5221,2.5221,2.502,2.4649,2.4104,2.4202,2.4093,2.2957,2.2701,2.23,2.1004,2.0199,1.9428,1.8341,1.7297,1.5996,1.4446,1.3214,1.2143,1.1351,1.0129,0.8974,0.8089,0.6854,0.5881,0.5427,0.5428,0.5428,0.5428,0.5434,0.5372,0.5379,0.5396,0.5399,0.5387,0.5387,0.4979,0.4097,0.3482,0.3616,0.4498,0.5101,0.5379,2.429,2.5643,2.6901,2.8717,2.908,0.0,2.8994,2.8994,2.8994,2.8994,2.9178,2.93,2.924,2.9315,2.9345,2.928,2.907,2.8912,2.8912,2.8741,2.8347,2.7668,2.7585,2.7328,2.6667,2.6172,2.5619,2.4946,2.4453,2.3879,2.3153,2.3117,2.3093,2.3038,2.2789,2.2634,2.2634,2.2407,2.231,2.231,2.2519,2.3119,2.4048,2.4733,2.5588,2.6606,2.7025,2.7524,2.804,2.8227,2.8272,2.8192,2.7964,2.8075,2.8281,2.7908,2.7811,2.7783,2.7716,2.747,2.7232,2.7589,2.74,2.7066,2.7066,2.6446,2.5726,2.5726,2.5335,2.4942,2.4942,2.4504,2.4002,2.3462,2.3576,2.3475,2.2409,2.22,2.1602,1.9698,1.8608,1.7679,1.6502,1.4895,1.3541,1.2883,1.2081,1.1347,1.0684,0.9195,0.8156,0.8027,0.6599,0.5557,0.5428,0.5428,0.5428,0.5428,0.5372,0.5379,0.5379,0.5124,0.5062,0.5396,0.5379,0.4693,0.3149,0.3681,0.4427,0.5393,0.5381,0.5387,2.2866,0.0,2.7271,0.0,2.8648,2.8994,2.8994,2.8994,2.8994,2.8994,2.903,2.8957,2.8597,2.8265,2.795,2.7596,2.7222,2.6979,2.6979,2.6946,2.6888,2.6778,2.6768,2.6722,2.6612,2.5668,2.501,2.4901,2.3936,2.3184,2.2797,2.2772,2.2652,2.2415,2.2369,2.2341,2.2341,2.233,2.231,2.231,2.2358,2.242,2.2569,2.2698,2.3838,2.5798,2.6543,2.6717,2.6574,2.7549,2.7765,2.747,2.7774,2.7926,2.7917,2.7538,2.7387,2.7326,2.6995,2.6816,2.6783,2.6841,2.6556,2.6167,2.6167,2.5433,2.4624,2.4624,2.4233,2.3794,2.3794,2.3348,2.2912,2.2823,2.1923,2.0903,2.0243,2.0111,1.964,1.8143,1.6725,1.5686,1.5481,1.3609,1.2074,1.1958,1.1292,1.0744,1.0621,0.9722,0.8812,0.8091,0.7111,0.6203,0.5493,0.5428,0.5428,0.5428,0.5372,0.5379,0.5379,0.3889,0.3825,0.5394,0.5403,0.5266,0.5052,0.5109,0.5241,0.5381,0.5369,0.5371,2.2863,2.4853,2.6742,0.0,2.8553,2.8994,2.8994,2.8994,2.8994,2.8994,2.8498,2.8057,2.8066,2.7607,2.7154,2.6891,2.6559,2.6394,2.6573,2.6438,2.6211,2.5949,2.5771,2.5472,2.5017,2.4347,2.3862,2.3678,2.3049,2.2634,2.2482,2.249,2.2426,2.231,2.231,2.231,2.231,2.231,2.231,2.231,2.231,2.2172,2.1928,2.2172,2.305,2.4393,2.4978,2.5596,2.6242,2.674,2.7103,2.7303,2.7241,2.7356,2.7508,2.7115,2.7123,2.7232,2.6849,2.6513,2.6297,2.6297,2.5952,2.5532,2.5532,2.502,2.4389,2.4389,2.3991,2.3508,2.3187,2.2882,2.2512,2.1799,2.0864,1.9819,1.8767,1.8802,1.8549,1.6664,1.5438,1.4523,1.4104,1.3162,1.2324,1.1892,1.1531,1.0912,0.9977,0.9137,0.8223,0.7372,0.6463,0.5815,0.5427,0.5428,0.5432,0.5371,0.5376,0.5384,0.5398,0.4647,0.4583,0.5406,0.5404,0.5398,0.5386,0.5381,0.5376,0.5369,0.543,0.5372,0.0,0.0,2.5621,2.7103,2.8079,2.8728,2.8817,2.8929,2.8938,2.8767,2.7899,2.7175,2.7218,2.6664,2.6124,2.5931,2.5683,2.5538,2.5721,2.5583,2.5335,2.4893,2.463,2.4222,2.3629,2.3268,2.2972,2.2721,2.2436,2.231,2.231,2.231,2.2245,2.2135,2.2106,2.2069,2.1982,2.1982,2.1982,2.1982,2.1982,2.1781,2.146,2.1811,2.2274,2.2822,2.3525,2.4482,2.5531,2.5881,2.6363,2.6857,2.674,2.6873,2.7115,2.6816,2.6906,2.7083,2.6674,2.6297,2.5969,2.5852,2.5411,2.4981,2.4981,2.4624,2.415,2.401,2.3694,2.3231,2.2589,2.2314,2.1934,2.0769,1.9832,1.8826,1.7567,1.7571,1.7241,1.536,1.4414,1.3666,1.2818,1.2324,1.183,1.1271,1.0951,1.0378,0.9131,0.842,0.7635,0.6785,0.6139,0.5622,0.5427,0.5432,0.5371,0.5379,0.5384,0.5187,0.4721,0.5142,0.5418,0.5413,0.4516,0.4237,0.4699,0.5178,0.5379,0.5371,0.5371,0.5379,2.1149,2.242,0.0,2.5363,2.6794,2.7967,2.8325,2.8725,2.8791,2.8093,2.7342,2.657,2.5763,2.5027,2.4423,2.4076,2.3907,2.3714,2.3415,2.3647,2.3696,2.3362,2.3307,2.3265,2.3221,2.2914,2.2721,2.2695,2.2436,2.231,2.231,2.231,2.2106,2.1658,2.165,2.1438,2.1063,2.1071,2.1071,2.1071,2.1071,2.1055,2.1023,2.1063,2.1087,2.1215,2.275,2.3465,2.3642,2.5056,2.5658,2.5768,2.6429,2.6725,2.6725,2.6725,2.6725,2.6649,2.6191,2.6005,2.5933,2.5419,2.4863,2.4422,2.4422,2.4074,2.3508,2.2965,2.2792,2.2596,2.1953,2.1348,2.0733,1.9927,1.8726,1.7523,1.6708,1.6031,1.5337,1.4442,1.3606,1.2822,1.202,1.0521,0.946,0.9463,0.874,0.8151,0.8091,0.8024,0.7635,0.6785,0.6654,0.6266,0.5493,0.5372,0.5379,0.5379,0.5399,0.465,0.2881,0.4465,0.5368,0.5413,0.202,0.1142,0.2811,0.4571,0.5394,0.5394,0.5394,0.5394,2.1192,0.0,0.0,2.4645,2.5716,2.6613,2.7444,2.7737,2.7721,2.7272,2.6406,2.546,2.4681,2.41,2.3707,2.3473,2.3239,2.3093,2.3198,2.3117,2.3085,2.3189,2.3021,2.2864,2.2864,2.2772,2.2643,2.2472,2.2341,2.231,2.231,2.231,2.2069,2.1612,2.159,2.1407,2.0991,2.0999,2.0999,2.0999,2.0999,2.0821,2.055,2.0862,2.0829,2.0599,2.148,2.2123,2.2645,2.3729,2.4387,2.4786,2.5673,2.6101,2.6262,2.6262,2.6262,2.6183,2.5644,2.5259,2.4942,2.4744,2.4044,2.3289,2.3289,2.2869,2.2324,2.2139,2.2053,2.1913,2.13,2.0607,1.9665,1.8024,1.6858,1.5898,1.5192,1.4801,1.4264,1.2927,1.2443,1.1958,1.117,1.0098,0.9274,0.9274,0.8549,0.7829,0.7242,0.7174,0.6854,0.5945,0.5881,0.5752,0.5427,0.5372,0.4902,0.3752,0.4785,0.4046,0.1075,0.1617,0.3041,0.5366,0.1821,0.0336,0.0937,0.1607,0.2546,0.3689,0.3689,0.4303,2.0964,2.157,2.2417,2.3898,2.4727,2.5447,2.6411,2.6923,2.6989,2.6174,2.5523,2.4828,2.3953,2.3383,2.3005,2.2919,2.2789,2.2755,2.2883,2.278,2.2755,2.2883,2.2712,2.246,2.2229,2.2203,2.2124,2.1949,2.1793,2.17,2.1728,2.1607,2.132,2.0865,2.0926,2.0821,2.0573,2.0565,2.0565,2.0565,2.0565,2.0398,2.0097,2.0439,2.0398,2.0124,2.0558,2.1116,2.1794,2.2608,2.317,2.3613,2.471,2.524,2.5435,2.5644,2.5734,2.5644,2.5136,2.4704,2.4348,2.396,2.334,2.2649,2.2445,2.2046,2.1656,2.1472,2.139,2.1197,2.0314,1.9169,1.7853,1.6425,1.5274,1.4332,1.3588,1.3601,1.342,1.2074,1.1571,1.1142,1.0291,0.9195,0.8417,0.8417,0.7702,0.6922,0.6334,0.6266,0.6075,0.5493,0.5428,0.543,0.5434,0.5379,0.4908,0.3693,0.3568,0.2492,0.0067,0.0,0.1146,0.3521,0.1214,0.0,0.0,0.0,0.0604,0.181,0.181,0.2418,0.0,0.0,0.0,2.2966,2.3821,2.4506,2.5265,2.6288,2.6586,2.4825,2.4777,2.4689,2.3545,2.2755,2.2282,2.2245,2.2492,2.2591,2.2324,2.251,2.2599,2.2321,2.2257,2.1961,2.1253,2.1152,2.1152,2.115,2.073,2.05,2.057,2.0167,1.9773,1.9395,1.9588,1.966,1.966,1.9675,1.9682,1.9682,1.9682,1.9682,1.9682,1.9682,1.9682,1.9718,2.0124,2.055,2.1015,2.1752,2.2066,2.2192,2.363,2.4184,2.4259,2.4918,2.5182,2.5097,2.4544,2.4348,2.4184,2.3039,2.2656,2.2505,2.1852,2.1656,2.152,2.093,2.0746,2.0434,1.9026,1.7009,1.5298,1.5245,1.41,1.2761,1.1954,1.2389,1.2634,1.1896,1.0996,1.0179,0.9393,0.7829,0.6719,0.6719,0.5945,0.5428,0.5428,0.5428,0.5428,0.5428,0.5428,0.5434,0.5377,0.5389,0.5401,0.5413,0.2021,0.0,0.0,0.0,0.0,0.0,0.0,0.0,0.0,0.0,0.0,0.0,0.0,0.0,2.0495,0.0,0.0,0.0,0.0,0.0,2.3775,2.4171,2.421,2.4095,2.3964,2.3502,2.2315,2.1927,2.1697,2.1424,2.194,2.2192,2.1593,2.2021,2.2379,2.231,2.1563,2.0988,2.0788,2.0063,1.9796,2.0314,1.9747,1.9617,2.0129,1.9329,1.8803,1.8687,1.8864,1.8979,1.8979,1.945,1.9682,1.9682,1.9682,1.9682,1.9682,1.9682,1.9682,1.9726,1.9811,1.9945,2.0127,2.097,2.1222,2.1222,2.2797,2.3504,2.3685,2.4374,2.4624,2.4544,2.3998,2.3522,2.312,2.2778,2.2081,2.1272,2.1126,2.0726,2.0169,1.9496,1.9288,1.8967,1.7517,1.6193,1.5197,1.465,1.3278,1.1885,1.1058,1.0574,1.0272,1.0025,0.9305,0.8597,0.8417,0.7437,0.6719,0.6719,0.5945,0.5428,0.5428,0.5428,0.5428,0.5428,0.5369,0.5376,0.5379,0.5398,0.541,0.5413,0.2021,0.0,0.0,0.0,0.0,0.0,0.0,0.0,0.0,0.0,0.0,0.0,0.0,0.0,2.1133,2.1326,2.1838,2.2004,0.0,0.0,2.3072,2.3043,2.2721,2.2883,2.2899,2.2555,2.1538,2.1346,2.1186,2.0615,2.1236,2.1602,2.1172,2.1486,2.1751,2.1751,2.0906,2.0217,1.9907,1.9074,1.882,1.9476,1.8752,1.84,1.8608,1.803,1.7677,1.7677,1.8077,1.8425,1.8702,1.9084,1.9413,1.9682,1.9682,1.9682,1.9682,1.9682,1.9682,1.9682,1.9682,1.9682,1.9754,2.0243,2.0384,2.0415,2.1915,2.26,2.279,2.373,2.3899,2.3636,2.3311,2.2815,2.2253,2.1981,2.1203,2.0314,2.001,1.9451,1.8768,1.8334,1.7758,1.7009,1.5783,1.4667,1.3656,1.283,1.1684,1.0511,0.9669,0.879,0.8355,0.8681,0.8027,0.744,0.744,0.6724,0.6139,0.6139,0.5752,0.5428,0.5428,0.5428,0.543,0.5369,0.5376,0.5382,0.5393,0.5406,0.4729,0.3235,0.1145,0.0,0.0,-0.1482,-0.2223,-0.2223,-0.074,-0.074,-0.2223,-0.2223,-0.1884,-0.1075,-0.0336,-0.0403,2.2079,2.231,2.2873,2.3279,2.2607,0.0,2.283,2.2495,2.1933,2.152,2.1621,2.1585,2.0847,2.0703,2.0472,1.9774,2.0273,2.0791,2.0855,2.0951,2.0999,2.0999,2.0383,1.9681,1.9012,1.8311,1.8163,1.8834,1.7977,1.7204,1.665,1.6642,1.6582,1.6469,1.7099,1.7748,1.8334,1.8409,1.8772,1.9419,1.9419,1.9456,1.9522,1.9522,1.9522,1.9522,1.9522,1.9522,1.9522,1.9522,1.9603,1.9809,2.1042,2.1588,2.1844,2.2907,2.3047,2.2701,2.2603,2.2154,2.152,2.0874,2.0206,1.9459,1.8756,1.8118,1.7572,1.7396,1.6234,1.4896,1.4178,1.2821,1.1447,1.0676,0.9815,0.8944,0.8027,0.724,0.6915,0.7572,0.7114,0.6525,0.6525,0.5945,0.5428,0.5428,0.543,0.543,0.543,0.5432,0.5371,0.5379,0.5382,0.5391,0.5411,0.5003,0.3437,0.0202,0.0,-0.0202,-0.0607,-0.3709,-0.5413,-0.5413,-0.2012,-0.2011,-0.541,-0.5411,-0.4583,-0.2947,-0.1339,-0.1339,2.2969,2.3655,2.4264,2.2889,2.3045,0.0,2.2027,2.1673,2.1379,2.0492,2.0159,1.9776,1.9051,1.892,1.875,1.8208,1.8715,1.9367,2.0019,2.0623,2.0999,2.0999,2.0107,1.946,1.9327,1.8337,1.8008,1.8675,1.8548,1.7776,1.6295,1.6205,1.5808,1.4949,1.559,1.6004,1.6124,1.6661,1.7221,1.7756,1.7756,1.7979,1.8419,1.8419,1.8419,1.8419,1.8419,1.8419,1.8419,1.8419,1.893,1.9728,2.013,2.084,2.1664,2.1476,2.1979,2.2603,2.21,2.1486,2.0874,2.0143,1.9472,1.8756,1.8004,1.7682,1.7341,1.6115,1.4618,1.3408,1.3291,1.1985,1.0742,1.0547,0.9357,0.8027,0.7111,0.6848,0.6525,0.6013,0.5752,0.5686,0.5686,0.5493,0.5428,0.5428,0.5371,0.5376,0.5376,0.5384,0.5391,0.5393,0.5401,0.5408,0.5413,0.2762,0.0741,0.0067,0.0,-0.1282,-0.4206,-0.5012,-0.5413,-0.5413,-0.3288,-0.3215,-0.5386,-0.5404,-0.5202,-0.4847,-0.4506,-0.3758,2.383,2.4252,2.4815,2.4275,2.359,0.0,0.0,2.15,2.0339,2.0891,1.9723,1.8678,1.8994,1.8331,1.7685,1.7438,1.7721,1.8039,1.8204,1.9438,2.0143,1.9626,1.9016,1.865,1.865,1.758,1.7033,1.739,1.7698,1.7255,1.5769,1.5705,1.5319,1.4522,1.483,1.5161,1.5499,1.5839,1.6292,1.6898,1.7167,1.7436,1.7695,1.7968,1.8099,1.8099,1.8099,1.8099,1.8059,1.7786,1.815,1.895,1.9354,2.0028,2.0831,2.0894,2.1273,2.1643,2.0968,2.0275,1.9651,1.8885,1.8203,1.7457,1.6701,1.5898,1.508,1.3895,1.3028,1.2205,1.1392,1.0511,0.9682,0.8832,0.7941,0.7111,0.627,0.6075,0.5947,0.55,0.5371,0.5369,0.543,0.5428,0.543,0.5369,0.5376,0.5105,0.4157,0.4027,0.4371,0.5334,0.3763,0.2685,0.2694,0.1076,-0.0739,-0.2559,-0.2695,-0.3101,-0.4048,-0.4923,-0.5399,-0.5404,-0.4512,-0.4509,-0.5396,-0.5408,-0.5401,-0.5379,-0.5391,-0.4913,2.4581,2.4841,2.5352,2.5446,2.4264,2.3172,0.0,0.0,0.0,2.087,1.9163,1.7772,1.8644,1.7544,1.645,1.645,1.6648,1.6576,1.5939,1.7627,1.8629,1.7869,1.7805,1.7762,1.7762,1.6905,1.6373,1.6496,1.6876,1.6663,1.5591,1.5428,1.5094,1.4436,1.4307,1.4509,1.5052,1.5066,1.5394,1.6025,1.6592,1.6896,1.6995,1.7416,1.7686,1.7787,1.7558,1.7511,1.7552,1.6979,1.702,1.751,1.8138,1.8861,1.961,1.9903,2.0009,1.9907,1.9275,1.8631,1.7893,1.7197,1.6435,1.5646,1.4824,1.366,1.2377,1.1498,1.119,1.0759,0.9387,0.8944,0.842,0.7044,0.659,0.6268,0.5556,0.543,0.5369,0.5377,0.5106,0.4968,0.5369,0.5369,0.5372,0.5381,0.5384,0.4841,0.342,0.2613,0.2751,0.4182,0.1138,-0.1072,-0.101,-0.0738,-0.1944,-0.5205,-0.5413,-0.4724,-0.3289,-0.4638,-0.5251,-0.4914,-0.4855,-0.4926,-0.5062,-0.5062,-0.5186,-0.5432,-0.5384,-0.5386,2.5068,2.6071,2.6626,2.4211,2.5089,2.5518,2.1648,0.0,2.063,1.8293,0.0,1.6515,1.5756,0.0,0.0,1.4165,1.464,1.4653,1.3729,1.5065,1.6297,1.6647,1.7102,1.7388,1.7388,1.7244,1.7356,1.7857,1.7495,1.7026,1.6411,1.5911,1.5191,1.4183,1.3617,1.3388,1.3452,1.3452,1.3766,1.4392,1.4917,1.54,1.5896,1.5868,1.6164,1.6625,1.5543,1.5392,1.584,1.5219,1.5045,1.5129,1.5708,1.6916,1.8242,1.7147,1.6909,1.7117,1.6847,1.6264,1.5491,1.4732,1.4027,1.3226,1.2368,1.1516,1.0603,0.9759,0.8954,0.8407,0.8221,0.757,0.6913,0.6719,0.6139,0.5491,0.5427,0.5371,0.5377,0.5379,0.409,0.3486,0.5117,0.5393,0.5393,0.5394,0.5403,0.5341,0.5135,0.2288,0.0404,0.0606,-0.2623,-0.4794,-0.4797,-0.3289,-0.3221,-0.5276,-0.5413,-0.5284,-0.5095,-0.5282,-0.4648,-0.3014,-0.3015,-0.3281,-0.3814,-0.3814,-0.4356,-0.5377,-0.5379,-0.5376,2.512,2.5082,2.4855,2.3977,2.3983,2.372,2.1833,2.053,1.9527,1.8852,0.0,0.0,0.0,0.0,0.0,0.0,1.3453,1.3239,1.2475,1.3279,1.4104,1.4656,1.5184,1.5621,1.5948,1.6245,1.6473,1.6631,1.5913,1.5319,1.5,1.4789,1.4175,1.3135,1.2869,1.2611,1.2395,1.2395,1.2501,1.2793,1.3591,1.4078,1.4264,1.4873,1.5239,1.5427,1.4932,1.463,1.4499,1.4267,1.4127,1.4048,1.3543,1.4482,1.5992,1.5593,1.552,1.5452,1.4606,1.4105,1.3626,1.2357,1.1417,1.0701,1.0372,0.9702,0.8971,0.8578,0.827,0.7897,0.7372,0.6981,0.6593,0.6083,0.5699,0.5374,0.5381,0.5386,0.5391,0.5398,0.4785,0.4176,0.3913,0.3835,0.4167,0.5266,0.541,0.3906,-0.0335,-0.2218,-0.2355,-0.0201,-0.3227,-0.5411,-0.5432,-0.4727,-0.4584,-0.5344,-0.4445,-0.3834,-0.384,-0.4864,-0.5063,-0.43,-0.4239,-0.3896,-0.3077,-0.4159,-0.4905,-0.5379,-0.5379,-0.5376,2.4839,2.4243,2.3641,2.3408,2.2741,2.1974,2.1248,1.9717,1.8467,1.8522,1.6441,0.0,0.0,0.0,1.2466,1.2336,0.0,1.1696,1.1045,1.1397,1.1973,1.2646,1.3208,1.3759,1.4274,1.4673,1.5002,1.5195,1.4353,1.394,1.411,1.3999,1.3554,1.2836,1.2552,1.2246,1.1976,1.1841,1.1811,1.1822,1.2791,1.3248,1.3247,1.4101,1.4596,1.4658,1.4127,1.3726,1.3417,1.2888,1.2633,1.2503,1.1401,1.1648,1.28,1.3756,1.3779,1.3231,1.2421,1.1844,1.1294,1.0098,0.9373,0.8812,0.8615,0.8125,0.757,0.7377,0.7312,0.7118,0.6527,0.6334,0.6212,0.5572,0.5036,0.4632,0.4641,0.5054,0.5127,0.4106,0.4729,0.4667,0.2359,0.1948,0.2416,0.3708,0.3093,0.0871,-0.3368,-0.4797,-0.4385,-0.1746,-0.3361,-0.4654,-0.4673,-0.4662,-0.486,-0.5344,-0.3226,-0.2414,-0.3422,-0.472,-0.52,-0.4643,-0.513,-0.4784,-0.3416,-0.4773,-0.5386,-0.5374,-0.5377,-0.5377,2.4136,2.4342,2.4147,2.2019,2.1893,2.1613,1.8921,1.8481,1.8026,1.5957,1.5203,1.44,1.283,1.174,1.0885,1.0364,1.0297,0.0,0.0,0.9213,0.9861,1.0869,1.1508,1.2085,1.2607,1.2702,1.3117,1.4072,1.3581,1.3667,1.4631,1.4183,1.3871,1.3832,1.2908,1.2402,1.2385,1.2009,1.1811,1.1827,1.2743,1.3208,1.3211,1.3651,1.4133,1.4606,1.273,1.2244,1.2662,1.0634,0.983,0.9775,0.9089,0.8529,0.8435,1.1055,1.0978,0.9648,1.0342,0.9536,0.8148,0.8086,0.8086,0.7894,0.7042,0.6783,0.659,0.5752,0.5493,0.5493,0.5428,0.5435,0.5444,0.5379,0.409,0.2811,0.2811,0.4171,0.4379,0.0869,0.303,0.4267,0.0671,0.0067,0.0135,0.0135,-0.2828,-0.3845,-0.0606,-0.3235,-0.5353,-0.5236,-0.3779,-0.2818,-0.2812,-0.2812,-0.3557,-0.5276,-0.2087,-0.1683,-0.5138,-0.5344,-0.4583,-0.2812,-0.4505,-0.5389,-0.5309,-0.5377,-0.5374,-0.5428,-0.5374,-0.5374,2.3398,2.2727,2.1905,2.09,2.0533,1.9927,1.819,1.7322,1.6445,1.487,1.3859,1.2883,1.1617,1.0886,1.0292,0.9773,0.9398,0.9106,0.0,0.8549,0.8533,0.8884,0.9989,1.0809,1.0981,1.1323,1.1752,1.2227,1.2438,1.2625,1.2792,1.3334,1.3363,1.2812,1.2455,1.2149,1.1875,1.1731,1.1437,1.1005,1.1656,1.168,1.1237,1.1687,1.1963,1.2073,1.091,1.03,1.0042,0.9354,0.8736,0.8279,0.8063,0.7859,0.7835,0.9063,0.8958,0.8157,0.8024,0.7233,0.6274,0.6274,0.6274,0.6208,0.5947,0.5815,0.5751,0.5491,0.5434,0.5374,0.5374,0.5382,0.5393,0.5399,0.4923,0.3836,0.1411,0.1413,0.1481,0.0269,-0.0943,-0.1349,-0.0202,0.0,0.0,0.0,-0.101,-0.2223,-0.3437,-0.466,-0.5416,-0.5423,-0.4867,-0.4456,-0.4465,-0.4455,-0.424,-0.3627,-0.1341,-0.1073,-0.3491,-0.479,-0.5129,-0.4496,-0.5108,-0.5379,-0.5434,-0.5434,-0.5432,-0.5428,-0.5432,-0.5432,2.1811,2.0935,2.0036,1.9514,1.8905,1.808,1.6698,1.5812,1.4859,1.3415,1.2457,1.1532,1.0262,0.9836,0.9434,0.8737,0.8487,0.8353,0.0,0.7648,0.728,0.728,0.8546,0.9425,0.9516,0.9921,1.0426,1.1033,1.1314,1.1548,0.0,1.2443,1.2557,1.1902,1.1737,1.1462,1.1094,1.0952,1.0646,1.0202,1.0673,1.0644,1.0193,1.0367,1.0442,1.0328,0.9375,0.8881,0.861,0.7287,0.6417,0.5849,0.5181,0.4942,0.5199,0.7357,0.7936,0.756,0.6574,0.5894,0.5374,0.5374,0.5374,0.5374,0.5374,0.5374,0.5374,0.5374,0.5379,0.5248,0.4632,0.3957,0.3488,0.3492,0.3019,0.2079,0.0336,0.0,0.0,0.0,-0.1888,-0.3178,-0.2087,-0.1952,-0.1953,-0.1953,-0.0807,-0.1278,-0.4933,-0.541,-0.5137,-0.4527,-0.4452,-0.4451,-0.4465,-0.5,-0.4917,-0.3757,-0.2547,-0.241,-0.3618,-0.4779,-0.5393,-0.5374,-0.5372,-0.5369,-0.5428,-0.5428,-0.5428,-0.5428,-0.5428,-0.5428]}]]